GFSMW_prec_precacc_078.txt.gz
Total_Precipitation_Accumulation
0.00 0.00 0.00 0.00 0.00 0.00 0.00 0.00 0.00 0.00 0.06 0.13 0.10 0.13 0.25 0.37 0.29 0.37 0.34 0.26 0.14 0.13 0.06 0.01 0.00 0.00 0.00 0.00 0.00 0.00 0.00 0.00 0.00 0.00 0.00 0.00 0.00 0.00 0.00 0.00 0.00 0.00 0.00
0.00 0.00 0.00 0.00 0.00 0.00 0.00 0.00 0.00 0.00 0.01 0.03 0.06 0.08 0.32 0.36 0.53 0.64 0.32 0.28 0.28 0.39 0.19 0.06 0.08 0.04 0.01 0.01 0.00 0.01 0.01 0.01 0.01 0.02 0.03 0.02 0.00 0.00 0.00 0.00 0.00 0.00 0.00
0.00 0.00 0.00 0.00 0.00 0.00 0.00 0.00 0.00 0.00 0.00 0.00 0.06 0.15 0.28 0.26 0.30 0.22 0.11 0.24 0.35 0.58 0.45 0.36 0.26 0.16 0.09 0.14 0.07 0.16 0.16 0.11 0.09 0.04 0.07 0.08 0.04 0.02 0.00 0.00 0.00 0.00 0.00
0.00 0.00 0.00 0.00 0.00 0.00 0.00 0.00 0.00 0.00 0.00 0.00 0.01 0.02 0.04 0.11 0.12 0.23 0.23 0.21 0.24 0.52 0.67 0.58 0.41 0.34 0.29 0.23 0.41 0.32 0.35 0.34 0.23 0.19 0.08 0.08 0.08 0.11 0.08 0.03 0.04 0.01 0.00
0.00 0.00 0.00 0.00 0.00 0.00 0.00 0.00 0.00 0.00 0.00 0.00 0.00 0.00 0.02 0.08 0.14 0.17 0.17 0.25 0.26 0.36 0.47 0.48 0.38 0.31 0.35 0.35 0.38 0.42 0.34 0.36 0.30 0.24 0.27 0.22 0.17 0.14 0.17 0.13 0.07 0.05 0.02
0.00 0.00 0.00 0.00 0.00 0.00 0.00 0.00 0.00 0.00 0.00 0.00 0.00 0.00 0.01 0.06 0.14 0.13 0.16 0.24 0.26 0.24 0.28 0.32 0.33 0.43 0.31 0.33 0.38 0.45 0.42 0.35 0.35 0.30 0.31 0.41 0.40 0.29 0.26 0.22 0.13 0.11 0.06
0.00 0.00 0.00 0.00 0.00 0.00 0.00 0.00 0.00 0.00 0.00 0.00 0.00 0.00 0.00 0.03 0.10 0.12 0.12 0.16 0.16 0.13 0.18 0.27 0.29 0.31 0.31 0.31 0.27 0.29 0.30 0.31 0.37 0.40 0.36 0.35 0.34 0.33 0.36 0.39 0.29 0.25 0.17
0.00 0.00 0.00 0.00 0.00 0.00 0.00 0.00 0.00 0.00 0.00 0.00 0.00 0.00 0.00 0.03 0.05 0.07 0.07 0.14 0.13 0.16 0.18 0.20 0.25 0.27 0.29 0.29 0.27 0.26 0.28 0.29 0.35 0.41 0.40 0.37 0.31 0.35 0.36 0.38 0.41 0.37 0.25
0.00 0.00 0.00 0.00 0.00 0.00 0.00 0.00 0.00 0.00 0.00 0.02 0.02 0.01 0.01 0.03 0.05 0.06 0.08 0.10 0.09 0.10 0.13 0.16 0.15 0.19 0.21 0.22 0.24 0.26 0.26 0.28 0.32 0.35 0.39 0.42 0.40 0.43 0.43 0.46 0.58 0.78 0.75
0.00 0.00 0.00 0.00 0.00 0.00 0.00 0.00 0.00 0.00 0.01 0.03 0.01 0.00 0.03 0.05 0.05 0.05 0.06 0.06 0.07 0.07 0.10 0.10 0.10 0.10 0.09 0.09 0.10 0.11 0.12 0.19 0.23 0.28 0.34 0.36 0.37 0.41 0.43 0.48 0.54 0.68 0.91
0.00 0.00 0.00 0.00 0.00 0.00 0.00 0.00 0.00 0.00 0.01 0.00 0.00 0.02 0.03 0.04 0.05 0.06 0.06 0.04 0.03 0.04 0.03 0.03 0.04 0.03 0.03 0.02 0.02 0.03 0.03 0.06 0.11 0.16 0.20 0.21 0.22 0.28 0.34 0.42 0.47 0.55 0.71
0.00 0.00 0.00 0.00 0.00 0.00 0.00 0.00 0.02 0.02 0.01 0.00 0.01 0.03 0.03 0.03 0.04 0.06 0.06 0.05 0.05 0.03 0.02 0.01 0.01 0.01 0.01 0.00 0.01 0.01 0.02 0.02 0.03 0.04 0.06 0.10 0.12 0.18 0.26 0.31 0.35 0.41 0.42
0.00 0.00 0.00 0.00 0.00 0.02 0.05 0.09 0.03 0.00 0.00 0.01 0.01 0.02 0.03 0.04 0.05 0.04 0.04 0.03 0.02 0.02 0.02 0.02 0.01 0.01 0.00 0.00 0.00 0.00 0.01 0.03 0.04 0.06 0.09 0.14 0.21 0.27 0.32 0.39 0.41 0.38 0.36
0.01 0.00 0.00 0.00 0.02 0.07 0.10 0.10 0.01 0.01 0.02 0.03 0.03 0.04 0.05 0.05 0.04 0.05 0.05 0.03 0.03 0.02 0.02 0.02 0.01 0.01 0.02 0.03 0.04 0.05 0.08 0.10 0.12 0.15 0.18 0.23 0.26 0.26 0.24 0.23 0.23 0.25 0.26
0.04 0.02 0.02 0.03 0.02 0.05 0.05 0.06 0.09 0.07 0.07 0.07 0.05 0.05 0.05 0.05 0.04 0.04 0.05 0.05 0.04 0.04 0.04 0.03 0.02 0.04 0.08 0.12 0.16 0.19 0.23 0.29 0.34 0.37 0.35 0.31 0.27 0.21 0.13 0.16 0.17 0.23 0.25
0.04 0.02 0.01 0.01 0.01 0.00 0.00 0.02 0.08 0.09 0.09 0.11 0.06 0.04 0.02 0.05 0.05 0.06 0.06 0.07 0.14 0.12 0.10 0.13 0.17 0.18 0.18 0.29 0.24 0.20 0.22 0.25 0.24 0.22 0.21 0.22 0.23 0.18 0.15 0.16 0.18 0.18 0.33
0.02 0.01 0.00 0.00 0.00 0.00 0.00 0.01 0.03 0.05 0.09 0.08 0.06 0.05 0.03 0.04 0.07 0.09 0.16 0.21 0.27 0.56 0.55 0.56 0.41 0.43 0.49 0.52 0.41 0.40 0.41 0.40 0.36 0.33 0.29 0.20 0.14 0.12 0.09 0.06 0.09 0.18 0.35
0.00 0.01 0.00 0.00 0.00 0.00 0.01 0.02 0.09 0.12 0.40 0.10 0.15 0.16 0.14 0.17 0.20 0.33 0.45 0.48 0.47 0.48 0.55 0.89 0.94 0.94 0.90 0.77 0.56 0.38 0.29 0.20 0.16 0.12 0.08 0.04 0.03 0.03 0.04 0.09 0.29 0.26 0.13
0.00 0.00 0.00 0.00 0.00 0.02 0.02 0.02 0.04 0.14 0.36 0.22 0.25 0.36 0.31 0.28 0.26 0.40 0.50 0.37 0.51 0.67 0.62 0.54 0.44 0.36 0.29 0.20 0.14 0.11 0.11 0.09 0.06 0.02 0.01 0.04 0.03 0.02 0.11 0.27 0.32 0.07 0.01
0.00 0.00 0.00 0.02 0.05 0.08 0.08 0.07 0.07 0.10 0.31 0.33 0.31 0.30 0.48 0.40 0.48 0.44 0.49 0.75 0.60 0.54 0.44 0.34 0.23 0.16 0.10 0.07 0.04 0.01 0.02 0.01 0.00 0.02 0.02 0.02 0.03 0.07 0.32 0.19 0.05 0.08 0.04
0.12 0.14 0.08 0.16 0.24 0.37 0.35 0.41 0.43 0.62 0.88 0.58 0.60 0.65 0.78 0.67 0.61 0.66 0.57 0.50 0.37 0.26 0.20 0.12 0.06 0.03 0.02 0.00 0.00 0.00 0.02 0.02 0.09 0.08 0.02 0.00 0.08 0.28 0.15 0.05 0.03 0.08 0.11
0.12 0.33 0.48 0.53 0.60 0.72 0.65 0.63 0.71 0.75 0.91 0.67 0.59 0.57 0.49 0.44 0.35 0.27 0.18 0.10 0.09 0.05 0.03 0.01 0.00 0.00 0.00 0.00 0.00 0.01 0.03 0.07 0.08 0.05 0.03 0.08 0.22 0.07 0.02 0.02 0.04 0.08 0.08
0.03 0.12 0.22 0.13 0.18 0.29 0.34 0.25 0.24 0.23 0.20 0.16 0.13 0.13 0.08 0.05 0.03 0.00 0.00 0.00 0.00 0.00 0.00 0.00 0.00 0.00 0.00 0.00 0.00 0.00 0.07 0.09 0.08 0.06 0.17 0.16 0.03 0.01 0.01 0.02 0.04 0.04 0.02
0.02 0.04 0.04 0.04 0.04 0.05 0.04 0.03 0.02 0.02 0.01 0.01 0.01 0.00 0.00 0.00 0.00 0.00 0.00 0.00 0.00 0.00 0.00 0.00 0.00 0.00 0.00 0.00 0.00 0.03 0.05 0.04 0.09 0.18 0.16 0.02 0.01 0.02 0.02 0.01 0.02 0.02 0.07
0.00 0.00 0.01 0.02 0.00 0.00 0.00 0.00 0.00 0.00 0.00 0.00 0.00 0.00 0.00 0.00 0.00 0.00 0.00 0.00 0.00 0.00 0.00 0.00 0.01 0.01 0.01 0.01 0.05 0.07 0.06 0.11 0.18 0.08 0.01 0.00 0.01 0.01 0.01 0.00 0.01 0.02 0.06
0.00 0.00 0.00 0.00 0.00 0.00 0.00 0.00 0.00 0.00 0.00 0.00 0.00 0.00 0.00 0.00 0.00 0.00 0.00 0.00 0.00 0.00 0.00 0.00 0.01 0.01 0.02 0.04 0.05 0.04 0.13 0.17 0.07 0.01 0.01 0.02 0.03 0.02 0.02 0.03 0.04 0.04 0.08

GFSMW_prec_precacc_084.txt.gz
Total_Precipitation_Accumulation
0.00 0.00 0.01 0.02 0.01 0.00 0.00 0.00 0.00 0.03 0.09 0.15 0.11 0.14 0.26 0.39 0.31 0.39 0.35 0.26 0.14 0.13 0.06 0.01 0.00 0.00 0.00 0.00 0.00 0.00 0.00 0.00 0.00 0.00 0.00 0.00 0.00 0.00 0.00 0.00 0.00 0.00 0.00
0.00 0.00 0.00 0.00 0.00 0.00 0.00 0.00 0.00 0.00 0.03 0.07 0.11 0.12 0.35 0.36 0.55 0.68 0.35 0.37 0.36 0.46 0.21 0.06 0.08 0.04 0.01 0.01 0.00 0.01 0.01 0.01 0.01 0.02 0.04 0.02 0.00 0.00 0.00 0.00 0.00 0.00 0.00
0.00 0.00 0.00 0.00 0.00 0.00 0.00 0.00 0.00 0.00 0.01 0.04 0.10 0.18 0.29 0.26 0.31 0.24 0.16 0.39 0.50 0.63 0.46 0.36 0.27 0.16 0.10 0.15 0.09 0.17 0.17 0.12 0.12 0.09 0.14 0.10 0.04 0.02 0.00 0.00 0.00 0.00 0.00
0.00 0.00 0.00 0.00 0.00 0.00 0.00 0.00 0.00 0.00 0.00 0.00 0.01 0.03 0.05 0.12 0.15 0.30 0.33 0.31 0.30 0.55 0.68 0.59 0.43 0.36 0.31 0.24 0.42 0.35 0.36 0.36 0.23 0.21 0.11 0.11 0.09 0.12 0.08 0.03 0.05 0.02 0.01
0.00 0.00 0.00 0.00 0.00 0.00 0.00 0.00 0.00 0.00 0.00 0.00 0.00 0.00 0.02 0.08 0.15 0.18 0.18 0.26 0.27 0.38 0.48 0.52 0.45 0.35 0.36 0.36 0.39 0.42 0.34 0.37 0.33 0.30 0.35 0.27 0.20 0.15 0.19 0.16 0.08 0.06 0.03
0.00 0.00 0.00 0.00 0.00 0.00 0.00 0.00 0.00 0.00 0.00 0.00 0.00 0.00 0.01 0.06 0.14 0.13 0.16 0.24 0.26 0.24 0.28 0.32 0.33 0.44 0.31 0.33 0.39 0.46 0.43 0.36 0.38 0.33 0.35 0.47 0.46 0.32 0.29 0.25 0.14 0.12 0.07
0.00 0.00 0.00 0.00 0.00 0.00 0.00 0.00 0.00 0.00 0.00 0.00 0.00 0.00 0.00 0.03 0.10 0.12 0.12 0.16 0.16 0.13 0.18 0.27 0.29 0.32 0.33 0.32 0.29 0.30 0.30 0.31 0.37 0.41 0.37 0.36 0.36 0.34 0.38 0.42 0.32 0.26 0.18
0.00 0.00 0.00 0.00 0.00 0.00 0.00 0.00 0.00 0.00 0.00 0.00 0.00 0.00 0.00 0.03 0.05 0.07 0.07 0.14 0.13 0.16 0.18 0.20 0.25 0.28 0.29 0.30 0.27 0.26 0.28 0.29 0.35 0.41 0.40 0.37 0.32 0.35 0.36 0.38 0.42 0.39 0.27
0.00 0.00 0.00 0.00 0.00 0.00 0.00 0.00 0.00 0.00 0.00 0.02 0.02 0.01 0.01 0.03 0.05 0.06 0.08 0.10 0.09 0.10 0.13 0.16 0.15 0.19 0.21 0.22 0.24 0.26 0.26 0.28 0.32 0.35 0.39 0.42 0.40 0.43 0.43 0.47 0.60 0.80 0.77
0.00 0.00 0.00 0.00 0.00 0.00 0.00 0.00 0.00 0.00 0.01 0.03 0.01 0.00 0.03 0.05 0.05 0.05 0.06 0.06 0.07 0.07 0.10 0.10 0.10 0.10 0.09 0.09 0.10 0.11 0.12 0.19 0.23 0.28 0.34 0.36 0.37 0.41 0.43 0.48 0.55 0.69 0.91
0.00 0.00 0.00 0.00 0.00 0.00 0.00 0.00 0.00 0.00 0.01 0.00 0.00 0.02 0.03 0.04 0.05 0.06 0.06 0.04 0.03 0.04 0.03 0.03 0.04 0.03 0.03 0.02 0.02 0.03 0.03 0.06 0.11 0.16 0.20 0.21 0.22 0.28 0.34 0.42 0.48 0.55 0.71
0.00 0.00 0.00 0.00 0.00 0.00 0.00 0.00 0.02 0.02 0.01 0.00 0.01 0.03 0.03 0.03 0.04 0.06 0.06 0.05 0.05 0.03 0.02 0.01 0.01 0.01 0.01 0.00 0.01 0.01 0.02 0.02 0.03 0.04 0.06 0.10 0.12 0.18 0.26 0.31 0.35 0.41 0.43
0.00 0.00 0.00 0.00 0.00 0.02 0.05 0.09 0.03 0.00 0.00 0.01 0.01 0.02 0.03 0.04 0.05 0.04 0.04 0.03 0.02 0.02 0.02 0.02 0.01 0.01 0.00 0.00 0.00 0.00 0.01 0.03 0.04 0.06 0.09 0.14 0.21 0.27 0.32 0.39 0.41 0.38 0.36
0.01 0.00 0.00 0.00 0.02 0.07 0.10 0.10 0.01 0.01 0.02 0.03 0.03 0.04 0.05 0.05 0.04 0.05 0.05 0.03 0.03 0.02 0.02 0.02 0.01 0.01 0.02 0.03 0.04 0.05 0.08 0.10 0.12 0.15 0.18 0.23 0.26 0.26 0.24 0.23 0.23 0.25 0.26
0.04 0.02 0.02 0.03 0.02 0.05 0.05 0.06 0.09 0.07 0.07 0.07 0.05 0.05 0.05 0.05 0.04 0.04 0.05 0.05 0.04 0.04 0.04 0.03 0.02 0.04 0.08 0.12 0.16 0.19 0.23 0.29 0.34 0.37 0.35 0.31 0.28 0.21 0.13 0.16 0.17 0.23 0.25
0.04 0.02 0.01 0.01 0.01 0.00 0.00 0.02 0.08 0.09 0.09 0.11 0.06 0.04 0.02 0.05 0.05 0.06 0.06 0.07 0.14 0.12 0.10 0.13 0.17 0.18 0.18 0.30 0.24 0.20 0.22 0.25 0.24 0.22 0.21 0.22 0.24 0.19 0.16 0.16 0.18 0.18 0.33
0.02 0.01 0.00 0.00 0.00 0.00 0.00 0.01 0.03 0.05 0.09 0.08 0.06 0.05 0.03 0.04 0.07 0.09 0.16 0.21 0.27 0.56 0.55 0.56 0.41 0.43 0.49 0.53 0.41 0.40 0.41 0.40 0.36 0.33 0.29 0.20 0.14 0.12 0.09 0.06 0.09 0.18 0.35
0.00 0.01 0.00 0.00 0.00 0.00 0.01 0.02 0.09 0.12 0.40 0.10 0.15 0.16 0.14 0.17 0.20 0.33 0.45 0.48 0.47 0.48 0.55 0.89 0.94 0.94 0.90 0.78 0.56 0.38 0.29 0.20 0.16 0.12 0.08 0.04 0.03 0.03 0.04 0.09 0.29 0.26 0.13
0.00 0.00 0.00 0.00 0.00 0.02 0.02 0.02 0.04 0.14 0.36 0.22 0.25 0.36 0.31 0.28 0.26 0.40 0.50 0.37 0.51 0.67 0.62 0.54 0.44 0.36 0.29 0.20 0.14 0.11 0.11 0.09 0.06 0.02 0.01 0.04 0.03 0.02 0.11 0.27 0.32 0.07 0.01
0.00 0.00 0.00 0.02 0.05 0.08 0.08 0.07 0.07 0.10 0.31 0.33 0.31 0.30 0.48 0.40 0.48 0.44 0.49 0.75 0.60 0.54 0.44 0.34 0.23 0.16 0.10 0.07 0.04 0.01 0.02 0.01 0.00 0.02 0.02 0.02 0.03 0.07 0.32 0.19 0.05 0.08 0.04
0.12 0.14 0.08 0.16 0.24 0.37 0.35 0.41 0.43 0.62 0.88 0.58 0.60 0.65 0.78 0.67 0.61 0.66 0.57 0.50 0.37 0.26 0.20 0.12 0.06 0.03 0.02 0.00 0.00 0.00 0.02 0.02 0.09 0.08 0.02 0.00 0.08 0.28 0.15 0.05 0.03 0.08 0.11
0.12 0.33 0.48 0.53 0.60 0.72 0.65 0.63 0.71 0.75 0.91 0.67 0.59 0.57 0.49 0.44 0.35 0.27 0.18 0.10 0.09 0.05 0.03 0.01 0.00 0.00 0.00 0.00 0.00 0.01 0.03 0.07 0.08 0.05 0.03 0.08 0.22 0.07 0.02 0.02 0.04 0.08 0.08
0.03 0.12 0.22 0.13 0.18 0.29 0.34 0.25 0.24 0.23 0.20 0.16 0.13 0.13 0.08 0.05 0.03 0.00 0.00 0.00 0.00 0.00 0.00 0.00 0.00 0.00 0.00 0.00 0.00 0.00 0.07 0.09 0.08 0.06 0.17 0.16 0.03 0.01 0.01 0.02 0.04 0.04 0.02
0.02 0.04 0.04 0.04 0.04 0.05 0.04 0.03 0.02 0.02 0.01 0.01 0.01 0.00 0.00 0.00 0.00 0.00 0.00 0.00 0.00 0.00 0.00 0.00 0.00 0.00 0.00 0.00 0.00 0.03 0.05 0.04 0.09 0.18 0.16 0.02 0.01 0.02 0.02 0.01 0.02 0.02 0.07
0.00 0.00 0.01 0.02 0.00 0.00 0.00 0.00 0.00 0.00 0.00 0.00 0.00 0.00 0.00 0.00 0.00 0.00 0.00 0.00 0.00 0.00 0.00 0.00 0.01 0.01 0.01 0.01 0.05 0.07 0.06 0.11 0.18 0.08 0.01 0.00 0.01 0.01 0.01 0.00 0.01 0.02 0.06
0.00 0.00 0.00 0.00 0.00 0.00 0.00 0.00 0.00 0.00 0.00 0.00 0.00 0.00 0.00 0.00 0.00 0.00 0.00 0.00 0.00 0.00 0.00 0.00 0.01 0.01 0.02 0.04 0.05 0.04 0.13 0.17 0.07 0.01 0.01 0.02 0.03 0.02 0.02 0.03 0.04 0.04 0.08

GFSMW_prec_precacc_087.txt.gz
Total_Precipitation_Accumulation
0.00 0.00 0.01 0.04 0.04 0.03 0.06 0.11 0.11 0.16 0.20 0.28 0.19 0.17 0.27 0.41 0.31 0.39 0.35 0.26 0.14 0.13 0.06 0.01 0.00 0.00 0.00 0.00 0.00 0.00 0.00 0.00 0.00 0.00 0.00 0.00 0.00 0.00 0.00 0.00 0.00 0.00 0.00
0.00 0.00 0.00 0.00 0.00 0.01 0.02 0.03 0.05 0.06 0.08 0.18 0.20 0.17 0.40 0.37 0.55 0.68 0.35 0.39 0.39 0.48 0.22 0.07 0.09 0.04 0.01 0.01 0.00 0.01 0.01 0.01 0.01 0.02 0.04 0.02 0.00 0.00 0.00 0.00 0.00 0.00 0.00
0.00 0.00 0.00 0.00 0.00 0.00 0.00 0.00 0.01 0.04 0.09 0.12 0.16 0.20 0.29 0.28 0.33 0.26 0.20 0.45 0.55 0.64 0.47 0.37 0.27 0.20 0.12 0.17 0.10 0.18 0.18 0.12 0.12 0.09 0.14 0.10 0.04 0.02 0.00 0.00 0.00 0.00 0.00
0.00 0.00 0.00 0.00 0.00 0.00 0.00 0.00 0.00 0.01 0.02 0.04 0.03 0.03 0.06 0.13 0.15 0.30 0.34 0.32 0.31 0.57 0.70 0.61 0.44 0.37 0.33 0.27 0.44 0.36 0.36 0.36 0.23 0.21 0.11 0.11 0.09 0.12 0.09 0.03 0.05 0.02 0.01
0.00 0.00 0.00 0.00 0.00 0.00 0.00 0.00 0.00 0.00 0.00 0.01 0.01 0.01 0.03 0.08 0.15 0.18 0.18 0.26 0.28 0.39 0.51 0.55 0.49 0.37 0.37 0.36 0.39 0.42 0.34 0.37 0.33 0.30 0.35 0.27 0.20 0.15 0.20 0.17 0.08 0.06 0.03
0.00 0.00 0.00 0.00 0.00 0.00 0.00 0.00 0.00 0.00 0.00 0.00 0.00 0.01 0.01 0.06 0.14 0.13 0.16 0.24 0.26 0.24 0.28 0.32 0.34 0.44 0.32 0.33 0.39 0.46 0.43 0.36 0.38 0.33 0.35 0.47 0.46 0.32 0.29 0.25 0.15 0.12 0.07
0.00 0.00 0.00 0.00 0.00 0.00 0.00 0.00 0.00 0.00 0.00 0.00 0.00 0.00 0.00 0.03 0.10 0.12 0.12 0.16 0.16 0.13 0.18 0.27 0.29 0.32 0.33 0.32 0.29 0.30 0.30 0.31 0.37 0.41 0.37 0.36 0.36 0.34 0.38 0.42 0.32 0.27 0.19
0.00 0.00 0.00 0.00 0.00 0.00 0.00 0.00 0.00 0.00 0.00 0.00 0.00 0.00 0.00 0.03 0.05 0.07 0.07 0.14 0.13 0.16 0.18 0.20 0.25 0.28 0.29 0.30 0.27 0.26 0.28 0.29 0.35 0.41 0.40 0.37 0.32 0.35 0.36 0.38 0.42 0.39 0.27
0.00 0.00 0.00 0.00 0.00 0.00 0.00 0.00 0.00 0.00 0.00 0.02 0.02 0.01 0.01 0.03 0.05 0.06 0.08 0.10 0.09 0.10 0.13 0.16 0.15 0.19 0.21 0.22 0.24 0.26 0.26 0.29 0.32 0.35 0.39 0.42 0.40 0.43 0.43 0.47 0.60 0.80 0.77
0.00 0.00 0.00 0.00 0.00 0.00 0.00 0.00 0.00 0.00 0.01 0.03 0.01 0.00 0.03 0.05 0.05 0.05 0.06 0.06 0.07 0.07 0.10 0.10 0.11 0.10 0.10 0.10 0.10 0.11 0.12 0.19 0.23 0.28 0.34 0.36 0.37 0.41 0.43 0.48 0.55 0.69 0.91
0.00 0.00 0.00 0.00 0.00 0.00 0.00 0.00 0.00 0.00 0.01 0.00 0.00 0.02 0.03 0.04 0.05 0.06 0.06 0.04 0.03 0.04 0.03 0.03 0.04 0.04 0.03 0.02 0.02 0.03 0.03 0.06 0.11 0.16 0.20 0.21 0.22 0.28 0.34 0.42 0.48 0.55 0.71
0.00 0.00 0.00 0.00 0.00 0.00 0.00 0.00 0.02 0.02 0.01 0.00 0.01 0.03 0.03 0.03 0.04 0.06 0.06 0.05 0.05 0.03 0.02 0.01 0.01 0.01 0.01 0.00 0.01 0.01 0.02 0.02 0.03 0.04 0.06 0.10 0.12 0.18 0.26 0.31 0.35 0.41 0.43
0.00 0.00 0.00 0.00 0.00 0.02 0.05 0.09 0.03 0.00 0.00 0.01 0.01 0.02 0.03 0.04 0.05 0.04 0.04 0.03 0.02 0.02 0.02 0.02 0.01 0.01 0.00 0.00 0.00 0.00 0.01 0.03 0.04 0.06 0.09 0.14 0.21 0.27 0.32 0.39 0.41 0.38 0.36
0.01 0.00 0.00 0.00 0.02 0.07 0.10 0.10 0.01 0.01 0.02 0.03 0.03 0.04 0.05 0.05 0.04 0.05 0.05 0.03 0.03 0.02 0.02 0.02 0.01 0.01 0.02 0.03 0.04 0.05 0.08 0.10 0.12 0.15 0.18 0.23 0.26 0.26 0.24 0.23 0.23 0.25 0.26
0.04 0.02 0.02 0.03 0.02 0.05 0.05 0.06 0.09 0.07 0.07 0.07 0.05 0.05 0.05 0.05 0.04 0.04 0.05 0.05 0.04 0.04 0.04 0.03 0.02 0.04 0.08 0.12 0.16 0.19 0.23 0.29 0.34 0.37 0.35 0.31 0.28 0.21 0.13 0.16 0.17 0.23 0.25
0.04 0.02 0.01 0.01 0.01 0.00 0.00 0.02 0.08 0.09 0.09 0.11 0.06 0.04 0.02 0.05 0.05 0.06 0.06 0.07 0.14 0.12 0.10 0.13 0.17 0.18 0.18 0.30 0.24 0.20 0.22 0.25 0.24 0.22 0.21 0.22 0.24 0.19 0.16 0.16 0.18 0.18 0.33
0.02 0.01 0.00 0.00 0.00 0.00 0.00 0.01 0.03 0.05 0.09 0.08 0.06 0.05 0.03 0.04 0.07 0.09 0.16 0.21 0.27 0.56 0.55 0.56 0.41 0.43 0.49 0.53 0.42 0.40 0.41 0.40 0.36 0.33 0.29 0.20 0.14 0.12 0.09 0.06 0.09 0.18 0.35
0.00 0.01 0.00 0.00 0.00 0.00 0.01 0.02 0.09 0.12 0.40 0.10 0.15 0.16 0.14 0.17 0.20 0.33 0.45 0.48 0.47 0.48 0.55 0.89 0.94 0.94 0.90 0.78 0.56 0.38 0.29 0.20 0.16 0.12 0.08 0.04 0.03 0.03 0.04 0.09 0.29 0.26 0.13
0.00 0.00 0.00 0.00 0.00 0.02 0.02 0.02 0.04 0.14 0.36 0.22 0.25 0.36 0.31 0.28 0.26 0.40 0.50 0.37 0.51 0.67 0.62 0.54 0.44 0.36 0.29 0.20 0.14 0.11 0.11 0.09 0.06 0.02 0.01 0.04 0.03 0.02 0.11 0.27 0.32 0.07 0.01
0.00 0.00 0.00 0.02 0.05 0.08 0.08 0.07 0.07 0.10 0.31 0.33 0.31 0.30 0.48 0.40 0.48 0.44 0.49 0.75 0.60 0.54 0.44 0.34 0.23 0.16 0.10 0.07 0.04 0.01 0.02 0.01 0.00 0.02 0.02 0.02 0.03 0.07 0.32 0.19 0.05 0.08 0.04
0.12 0.14 0.08 0.16 0.24 0.37 0.35 0.41 0.43 0.62 0.88 0.58 0.60 0.65 0.78 0.67 0.61 0.66 0.57 0.50 0.37 0.26 0.20 0.12 0.06 0.03 0.02 0.00 0.00 0.00 0.02 0.02 0.09 0.08 0.02 0.00 0.08 0.28 0.15 0.05 0.03 0.08 0.11
0.12 0.33 0.48 0.53 0.60 0.72 0.65 0.63 0.71 0.75 0.91 0.67 0.59 0.57 0.49 0.44 0.35 0.27 0.18 0.10 0.09 0.05 0.03 0.01 0.00 0.00 0.00 0.00 0.00 0.01 0.03 0.07 0.08 0.05 0.03 0.08 0.22 0.07 0.02 0.02 0.04 0.08 0.08
0.03 0.12 0.22 0.13 0.18 0.29 0.34 0.25 0.24 0.23 0.20 0.16 0.13 0.13 0.08 0.05 0.03 0.00 0.00 0.00 0.00 0.00 0.00 0.00 0.00 0.00 0.00 0.00 0.00 0.00 0.07 0.09 0.08 0.06 0.17 0.16 0.03 0.01 0.01 0.02 0.04 0.04 0.02
0.02 0.04 0.04 0.04 0.04 0.05 0.04 0.03 0.02 0.02 0.01 0.01 0.01 0.00 0.00 0.01 0.00 0.00 0.00 0.00 0.00 0.00 0.00 0.00 0.00 0.00 0.00 0.00 0.00 0.03 0.05 0.04 0.09 0.18 0.16 0.02 0.01 0.02 0.02 0.01 0.02 0.02 0.07
0.00 0.00 0.01 0.02 0.00 0.00 0.00 0.00 0.00 0.00 0.00 0.00 0.00 0.00 0.00 0.01 0.00 0.00 0.00 0.00 0.00 0.00 0.00 0.00 0.01 0.01 0.01 0.01 0.05 0.07 0.06 0.11 0.18 0.08 0.01 0.00 0.01 0.01 0.01 0.00 0.01 0.02 0.06
0.00 0.00 0.00 0.00 0.00 0.00 0.00 0.00 0.00 0.00 0.00 0.00 0.00 0.00 0.00 0.00 0.00 0.00 0.00 0.00 0.00 0.00 0.00 0.00 0.01 0.01 0.02 0.04 0.05 0.04 0.13 0.17 0.07 0.01 0.01 0.02 0.03 0.02 0.02 0.03 0.04 0.04 0.08

GFSMW_prec_precacc_090.txt.gz
Total_Precipitation_Accumulation
0.00 0.00 0.01 0.04 0.04 0.03 0.07 0.16 0.23 0.28 0.26 0.32 0.29 0.28 0.32 0.45 0.32 0.39 0.35 0.26 0.14 0.13 0.06 0.01 0.00 0.00 0.00 0.00 0.00 0.00 0.00 0.00 0.00 0.00 0.00 0.00 0.00 0.00 0.00 0.00 0.00 0.00 0.00
0.00 0.00 0.01 0.00 0.02 0.02 0.03 0.05 0.06 0.11 0.12 0.23 0.30 0.29 0.50 0.47 0.60 0.71 0.36 0.41 0.40 0.50 0.22 0.07 0.09 0.04 0.01 0.01 0.00 0.01 0.01 0.01 0.01 0.02 0.04 0.02 0.00 0.00 0.00 0.00 0.00 0.00 0.00
0.00 0.00 0.01 0.01 0.00 0.01 0.01 0.01 0.02 0.05 0.11 0.19 0.24 0.28 0.40 0.42 0.51 0.38 0.34 0.57 0.63 0.68 0.47 0.37 0.27 0.20 0.12 0.17 0.11 0.19 0.18 0.13 0.12 0.09 0.14 0.10 0.05 0.02 0.00 0.00 0.00 0.00 0.00
0.00 0.00 0.00 0.01 0.00 0.00 0.00 0.00 0.01 0.03 0.05 0.07 0.10 0.14 0.15 0.22 0.23 0.34 0.37 0.32 0.31 0.58 0.73 0.62 0.45 0.37 0.33 0.28 0.47 0.38 0.37 0.36 0.23 0.21 0.11 0.11 0.09 0.13 0.09 0.04 0.05 0.02 0.01
0.00 0.00 0.00 0.00 0.00 0.00 0.00 0.00 0.00 0.00 0.03 0.06 0.06 0.07 0.06 0.11 0.19 0.24 0.25 0.29 0.29 0.40 0.53 0.57 0.50 0.38 0.37 0.36 0.39 0.42 0.34 0.37 0.33 0.30 0.35 0.27 0.20 0.15 0.20 0.17 0.08 0.06 0.03
0.00 0.00 0.00 0.00 0.00 0.00 0.00 0.00 0.00 0.00 0.00 0.02 0.04 0.07 0.05 0.09 0.17 0.15 0.17 0.24 0.26 0.24 0.28 0.32 0.34 0.45 0.32 0.33 0.39 0.46 0.43 0.36 0.38 0.33 0.35 0.47 0.47 0.32 0.29 0.25 0.15 0.12 0.07
0.00 0.00 0.00 0.00 0.00 0.00 0.00 0.00 0.00 0.00 0.00 0.00 0.00 0.01 0.01 0.04 0.11 0.13 0.12 0.16 0.16 0.13 0.18 0.27 0.29 0.32 0.33 0.32 0.29 0.30 0.30 0.31 0.37 0.41 0.38 0.37 0.37 0.35 0.38 0.42 0.33 0.27 0.19
0.00 0.00 0.00 0.00 0.00 0.00 0.00 0.00 0.00 0.00 0.00 0.00 0.00 0.00 0.00 0.03 0.05 0.07 0.07 0.14 0.13 0.16 0.18 0.20 0.25 0.28 0.29 0.30 0.27 0.26 0.28 0.29 0.35 0.41 0.40 0.38 0.32 0.35 0.36 0.39 0.43 0.39 0.27
0.00 0.00 0.00 0.00 0.00 0.00 0.00 0.00 0.00 0.00 0.00 0.02 0.02 0.01 0.01 0.03 0.05 0.06 0.08 0.10 0.09 0.10 0.13 0.16 0.15 0.19 0.21 0.22 0.24 0.26 0.27 0.29 0.32 0.35 0.39 0.42 0.40 0.43 0.43 0.47 0.60 0.81 0.77
0.00 0.00 0.00 0.00 0.00 0.00 0.00 0.00 0.00 0.00 0.01 0.03 0.01 0.00 0.03 0.05 0.05 0.05 0.06 0.06 0.07 0.07 0.10 0.10 0.11 0.10 0.10 0.10 0.10 0.12 0.13 0.20 0.24 0.28 0.34 0.36 0.37 0.41 0.43 0.48 0.55 0.69 0.91
0.00 0.00 0.00 0.00 0.00 0.00 0.00 0.00 0.00 0.00 0.01 0.00 0.00 0.02 0.03 0.04 0.05 0.06 0.06 0.04 0.03 0.04 0.03 0.03 0.04 0.04 0.03 0.02 0.02 0.03 0.04 0.07 0.11 0.16 0.20 0.21 0.22 0.28 0.34 0.42 0.48 0.55 0.71
0.00 0.00 0.00 0.00 0.00 0.00 0.00 0.00 0.02 0.02 0.01 0.00 0.01 0.03 0.03 0.03 0.04 0.06 0.06 0.05 0.05 0.03 0.02 0.01 0.01 0.01 0.01 0.00 0.01 0.01 0.02 0.02 0.03 0.04 0.06 0.10 0.12 0.18 0.26 0.31 0.35 0.41 0.43
0.00 0.00 0.00 0.00 0.00 0.02 0.05 0.09 0.03 0.00 0.00 0.01 0.01 0.02 0.03 0.04 0.05 0.04 0.04 0.03 0.02 0.02 0.02 0.02 0.01 0.01 0.00 0.00 0.00 0.00 0.01 0.03 0.04 0.06 0.09 0.14 0.21 0.27 0.32 0.39 0.41 0.38 0.36
0.01 0.00 0.00 0.00 0.02 0.07 0.10 0.10 0.01 0.01 0.02 0.03 0.03 0.04 0.05 0.05 0.04 0.05 0.05 0.03 0.03 0.02 0.02 0.02 0.01 0.01 0.02 0.03 0.04 0.05 0.08 0.10 0.12 0.15 0.18 0.23 0.26 0.26 0.24 0.23 0.23 0.25 0.26
0.04 0.02 0.02 0.03 0.02 0.05 0.05 0.06 0.09 0.07 0.07 0.07 0.05 0.05 0.05 0.05 0.04 0.04 0.05 0.05 0.04 0.04 0.04 0.03 0.02 0.04 0.08 0.12 0.16 0.19 0.23 0.29 0.34 0.37 0.35 0.31 0.28 0.21 0.13 0.16 0.17 0.23 0.25
0.04 0.02 0.01 0.01 0.01 0.00 0.00 0.02 0.08 0.09 0.09 0.11 0.06 0.04 0.02 0.05 0.05 0.06 0.06 0.07 0.14 0.12 0.10 0.13 0.17 0.18 0.18 0.30 0.24 0.20 0.22 0.25 0.24 0.22 0.21 0.22 0.24 0.19 0.16 0.16 0.18 0.18 0.33
0.02 0.01 0.00 0.00 0.00 0.00 0.00 0.01 0.03 0.05 0.09 0.08 0.06 0.05 0.03 0.04 0.07 0.09 0.16 0.21 0.27 0.56 0.55 0.56 0.41 0.43 0.49 0.54 0.42 0.40 0.41 0.40 0.36 0.33 0.29 0.20 0.14 0.12 0.09 0.06 0.09 0.18 0.35
0.00 0.01 0.00 0.00 0.00 0.00 0.01 0.02 0.09 0.12 0.40 0.10 0.15 0.16 0.14 0.17 0.20 0.33 0.45 0.48 0.47 0.48 0.55 0.89 0.94 0.94 0.91 0.78 0.57 0.38 0.29 0.20 0.16 0.12 0.08 0.04 0.03 0.03 0.04 0.09 0.29 0.26 0.13
0.00 0.00 0.00 0.00 0.00 0.02 0.02 0.02 0.04 0.14 0.36 0.22 0.25 0.36 0.31 0.28 0.26 0.40 0.50 0.37 0.51 0.67 0.62 0.54 0.44 0.36 0.30 0.20 0.14 0.11 0.11 0.09 0.06 0.02 0.01 0.04 0.03 0.02 0.11 0.27 0.32 0.07 0.01
0.00 0.00 0.00 0.02 0.05 0.08 0.08 0.07 0.07 0.10 0.31 0.33 0.31 0.30 0.48 0.40 0.48 0.44 0.49 0.75 0.60 0.54 0.44 0.34 0.23 0.16 0.10 0.07 0.04 0.01 0.02 0.01 0.00 0.02 0.02 0.02 0.03 0.07 0.32 0.19 0.05 0.08 0.04
0.12 0.14 0.08 0.16 0.24 0.37 0.35 0.41 0.43 0.62 0.88 0.58 0.60 0.65 0.78 0.67 0.61 0.66 0.57 0.50 0.37 0.26 0.20 0.12 0.06 0.03 0.02 0.00 0.00 0.00 0.02 0.02 0.09 0.08 0.02 0.00 0.08 0.28 0.15 0.05 0.03 0.08 0.11
0.12 0.33 0.48 0.53 0.60 0.72 0.65 0.63 0.71 0.75 0.91 0.67 0.59 0.57 0.49 0.44 0.35 0.27 0.18 0.10 0.09 0.05 0.03 0.01 0.00 0.00 0.00 0.00 0.00 0.01 0.03 0.07 0.08 0.05 0.03 0.08 0.22 0.07 0.02 0.02 0.04 0.08 0.08
0.03 0.12 0.22 0.13 0.18 0.29 0.34 0.25 0.24 0.23 0.20 0.16 0.13 0.13 0.08 0.05 0.03 0.00 0.00 0.00 0.00 0.00 0.00 0.00 0.00 0.00 0.00 0.00 0.00 0.00 0.07 0.09 0.08 0.06 0.17 0.16 0.03 0.01 0.01 0.02 0.04 0.04 0.02
0.02 0.04 0.04 0.04 0.04 0.05 0.04 0.03 0.02 0.02 0.01 0.01 0.01 0.00 0.00 0.01 0.00 0.00 0.00 0.00 0.00 0.00 0.00 0.00 0.00 0.00 0.00 0.00 0.00 0.03 0.05 0.04 0.09 0.18 0.16 0.02 0.01 0.02 0.02 0.01 0.02 0.02 0.07
0.00 0.00 0.01 0.02 0.00 0.00 0.00 0.00 0.00 0.00 0.00 0.00 0.00 0.00 0.00 0.01 0.00 0.00 0.00 0.00 0.00 0.00 0.00 0.00 0.01 0.01 0.01 0.01 0.05 0.07 0.06 0.11 0.18 0.08 0.01 0.00 0.01 0.01 0.01 0.00 0.01 0.02 0.06
0.00 0.00 0.00 0.00 0.00 0.00 0.00 0.00 0.00 0.00 0.00 0.00 0.00 0.00 0.00 0.00 0.00 0.00 0.00 0.00 0.00 0.00 0.00 0.00 0.01 0.01 0.02 0.04 0.05 0.04 0.13 0.17 0.07 0.01 0.01 0.02 0.03 0.02 0.02 0.03 0.04 0.04 0.08

GFSMW_prec_precacc_093.txt.gz
Total_Precipitation_Accumulation
0.00 0.00 0.01 0.04 0.04 0.03 0.11 0.18 0.24 0.34 0.29 0.33 0.34 0.33 0.39 0.52 0.35 0.40 0.35 0.26 0.14 0.13 0.06 0.01 0.00 0.00 0.00 0.00 0.00 0.00 0.00 0.00 0.00 0.00 0.00 0.00 0.00 0.00 0.00 0.00 0.00 0.00 0.00
0.00 0.00 0.01 0.00 0.02 0.02 0.06 0.14 0.07 0.11 0.15 0.24 0.32 0.32 0.59 0.50 0.63 0.74 0.44 0.45 0.40 0.50 0.22 0.07 0.09 0.04 0.01 0.01 0.00 0.01 0.01 0.01 0.01 0.02 0.04 0.02 0.00 0.00 0.00 0.00 0.00 0.00 0.00
0.00 0.00 0.01 0.01 0.01 0.02 0.02 0.05 0.07 0.07 0.11 0.19 0.26 0.31 0.46 0.44 0.51 0.41 0.41 0.67 0.76 0.72 0.49 0.38 0.27 0.20 0.12 0.17 0.11 0.19 0.18 0.13 0.12 0.10 0.14 0.10 0.05 0.02 0.00 0.00 0.00 0.00 0.00
0.00 0.00 0.00 0.01 0.02 0.01 0.02 0.01 0.03 0.04 0.09 0.10 0.11 0.14 0.18 0.28 0.29 0.38 0.41 0.34 0.47 0.73 0.88 0.74 0.50 0.38 0.33 0.28 0.47 0.38 0.37 0.36 0.24 0.21 0.11 0.12 0.10 0.13 0.09 0.04 0.05 0.02 0.01
0.00 0.00 0.00 0.00 0.01 0.01 0.01 0.00 0.00 0.00 0.05 0.08 0.09 0.13 0.10 0.19 0.27 0.27 0.28 0.31 0.34 0.52 0.66 0.67 0.58 0.44 0.39 0.37 0.39 0.42 0.34 0.37 0.33 0.30 0.35 0.27 0.20 0.15 0.20 0.17 0.08 0.06 0.03
0.00 0.00 0.00 0.00 0.01 0.00 0.00 0.00 0.00 0.00 0.01 0.04 0.08 0.13 0.08 0.14 0.24 0.21 0.22 0.26 0.27 0.26 0.29 0.36 0.39 0.48 0.34 0.34 0.39 0.46 0.43 0.36 0.38 0.33 0.35 0.47 0.47 0.32 0.29 0.25 0.15 0.13 0.07
0.00 0.00 0.00 0.00 0.00 0.00 0.00 0.00 0.00 0.00 0.00 0.00 0.02 0.04 0.06 0.08 0.15 0.19 0.19 0.23 0.19 0.14 0.20 0.28 0.30 0.32 0.33 0.32 0.29 0.30 0.30 0.31 0.37 0.41 0.38 0.37 0.37 0.35 0.38 0.42 0.33 0.27 0.19
0.00 0.00 0.00 0.00 0.00 0.00 0.00 0.00 0.00 0.00 0.00 0.00 0.00 0.00 0.01 0.03 0.07 0.08 0.07 0.14 0.13 0.16 0.18 0.20 0.25 0.28 0.29 0.31 0.28 0.27 0.29 0.30 0.36 0.41 0.41 0.38 0.32 0.35 0.36 0.39 0.43 0.40 0.27
0.00 0.00 0.00 0.00 0.00 0.00 0.00 0.00 0.00 0.00 0.00 0.02 0.02 0.01 0.01 0.03 0.05 0.06 0.08 0.10 0.09 0.10 0.13 0.16 0.15 0.19 0.21 0.22 0.24 0.27 0.27 0.29 0.33 0.36 0.40 0.42 0.40 0.43 0.43 0.47 0.60 0.81 0.77
0.00 0.00 0.00 0.00 0.00 0.00 0.00 0.00 0.00 0.00 0.01 0.03 0.01 0.00 0.03 0.05 0.05 0.05 0.06 0.06 0.07 0.07 0.10 0.10 0.11 0.10 0.10 0.10 0.10 0.12 0.13 0.20 0.24 0.28 0.35 0.37 0.37 0.41 0.43 0.48 0.55 0.69 0.91
0.00 0.00 0.00 0.00 0.00 0.00 0.00 0.00 0.00 0.00 0.01 0.00 0.00 0.02 0.03 0.04 0.05 0.06 0.06 0.04 0.03 0.04 0.03 0.03 0.04 0.04 0.03 0.02 0.02 0.03 0.04 0.07 0.12 0.17 0.21 0.22 0.22 0.28 0.34 0.42 0.48 0.55 0.71
0.00 0.00 0.00 0.00 0.00 0.00 0.00 0.00 0.02 0.02 0.01 0.00 0.01 0.03 0.03 0.03 0.04 0.06 0.06 0.05 0.05 0.03 0.02 0.01 0.01 0.01 0.01 0.00 0.01 0.01 0.02 0.02 0.03 0.04 0.06 0.10 0.12 0.18 0.26 0.31 0.35 0.41 0.43
0.00 0.00 0.00 0.00 0.00 0.02 0.05 0.09 0.03 0.00 0.00 0.01 0.01 0.02 0.03 0.04 0.05 0.04 0.04 0.03 0.02 0.02 0.02 0.02 0.01 0.01 0.00 0.00 0.00 0.00 0.01 0.03 0.04 0.06 0.09 0.14 0.21 0.27 0.32 0.39 0.41 0.38 0.36
0.01 0.00 0.00 0.00 0.02 0.07 0.10 0.10 0.01 0.01 0.02 0.03 0.03 0.04 0.05 0.05 0.04 0.05 0.05 0.03 0.03 0.02 0.02 0.02 0.01 0.01 0.02 0.03 0.04 0.05 0.08 0.10 0.12 0.15 0.18 0.23 0.26 0.26 0.24 0.23 0.23 0.25 0.26
0.04 0.02 0.02 0.03 0.02 0.05 0.05 0.06 0.09 0.07 0.07 0.07 0.05 0.05 0.05 0.05 0.04 0.04 0.05 0.05 0.04 0.04 0.04 0.03 0.02 0.04 0.08 0.12 0.16 0.19 0.23 0.29 0.34 0.37 0.35 0.31 0.28 0.21 0.13 0.16 0.17 0.23 0.25
0.04 0.02 0.01 0.01 0.01 0.00 0.00 0.02 0.08 0.09 0.09 0.11 0.06 0.04 0.02 0.05 0.05 0.06 0.06 0.07 0.14 0.12 0.10 0.13 0.17 0.18 0.18 0.30 0.24 0.20 0.22 0.25 0.24 0.22 0.21 0.22 0.24 0.19 0.16 0.16 0.18 0.18 0.33
0.02 0.01 0.00 0.00 0.00 0.00 0.00 0.01 0.03 0.05 0.09 0.08 0.06 0.05 0.03 0.04 0.07 0.09 0.16 0.21 0.27 0.56 0.55 0.56 0.41 0.43 0.49 0.54 0.42 0.40 0.41 0.40 0.36 0.33 0.29 0.20 0.14 0.12 0.09 0.06 0.09 0.18 0.35
0.00 0.01 0.00 0.00 0.00 0.00 0.01 0.02 0.09 0.12 0.40 0.10 0.15 0.16 0.14 0.17 0.20 0.33 0.45 0.48 0.47 0.48 0.55 0.89 0.94 0.94 0.91 0.79 0.57 0.39 0.29 0.20 0.16 0.12 0.08 0.04 0.03 0.03 0.04 0.09 0.29 0.26 0.13
0.00 0.00 0.00 0.00 0.00 0.02 0.02 0.02 0.04 0.14 0.36 0.22 0.25 0.36 0.31 0.28 0.26 0.40 0.50 0.37 0.51 0.67 0.62 0.54 0.44 0.36 0.30 0.21 0.14 0.11 0.11 0.09 0.06 0.02 0.01 0.04 0.03 0.02 0.11 0.27 0.32 0.07 0.01
0.00 0.00 0.00 0.02 0.05 0.08 0.08 0.07 0.07 0.10 0.31 0.33 0.31 0.30 0.48 0.40 0.48 0.44 0.49 0.75 0.60 0.54 0.44 0.34 0.23 0.16 0.10 0.07 0.04 0.01 0.02 0.01 0.00 0.02 0.02 0.02 0.03 0.07 0.32 0.19 0.05 0.08 0.04
0.12 0.14 0.08 0.16 0.24 0.37 0.35 0.41 0.43 0.62 0.88 0.58 0.60 0.65 0.78 0.67 0.61 0.66 0.57 0.50 0.37 0.26 0.20 0.12 0.06 0.03 0.02 0.00 0.00 0.00 0.02 0.02 0.09 0.08 0.02 0.00 0.08 0.28 0.15 0.05 0.03 0.08 0.11
0.12 0.33 0.48 0.53 0.60 0.72 0.65 0.63 0.71 0.75 0.91 0.67 0.59 0.57 0.49 0.44 0.35 0.27 0.18 0.10 0.09 0.05 0.03 0.01 0.00 0.00 0.00 0.00 0.00 0.01 0.03 0.07 0.08 0.05 0.03 0.08 0.22 0.07 0.02 0.02 0.04 0.08 0.08
0.03 0.12 0.22 0.13 0.18 0.29 0.34 0.25 0.24 0.23 0.20 0.16 0.13 0.13 0.08 0.05 0.03 0.00 0.00 0.00 0.00 0.00 0.00 0.00 0.00 0.00 0.00 0.00 0.00 0.00 0.07 0.09 0.08 0.06 0.17 0.16 0.03 0.01 0.01 0.02 0.04 0.04 0.02
0.02 0.04 0.04 0.04 0.04 0.05 0.04 0.03 0.02 0.02 0.01 0.01 0.01 0.00 0.00 0.01 0.00 0.00 0.00 0.00 0.00 0.00 0.00 0.00 0.00 0.00 0.00 0.00 0.00 0.03 0.05 0.04 0.09 0.18 0.16 0.02 0.01 0.02 0.02 0.01 0.02 0.02 0.07
0.00 0.00 0.01 0.02 0.00 0.00 0.00 0.00 0.00 0.00 0.00 0.00 0.00 0.00 0.00 0.01 0.00 0.00 0.00 0.00 0.00 0.00 0.00 0.00 0.01 0.01 0.01 0.01 0.05 0.07 0.06 0.11 0.18 0.08 0.01 0.00 0.01 0.01 0.01 0.00 0.01 0.02 0.06
0.00 0.00 0.00 0.01 0.00 0.00 0.00 0.00 0.00 0.00 0.00 0.00 0.00 0.00 0.00 0.00 0.00 0.00 0.01 0.00 0.00 0.00 0.00 0.00 0.01 0.01 0.02 0.04 0.05 0.04 0.13 0.17 0.07 0.01 0.01 0.02 0.03 0.02 0.02 0.03 0.04 0.04 0.08

GFSMW_prec_precacc_096.txt.gz
Total_Precipitation_Accumulation
0.00 0.00 0.01 0.04 0.04 0.06 0.12 0.18 0.25 0.37 0.29 0.34 0.35 0.41 0.42 0.55 0.41 0.41 0.36 0.26 0.14 0.13 0.06 0.01 0.00 0.00 0.00 0.00 0.00 0.00 0.00 0.00 0.00 0.00 0.00 0.00 0.00 0.00 0.00 0.00 0.00 0.00 0.00
0.00 0.00 0.01 0.00 0.02 0.03 0.07 0.14 0.08 0.14 0.15 0.25 0.36 0.35 0.76 0.61 0.80 0.84 0.54 0.53 0.43 0.52 0.22 0.07 0.09 0.04 0.01 0.01 0.00 0.01 0.01 0.01 0.01 0.02 0.04 0.02 0.01 0.00 0.00 0.00 0.00 0.00 0.00
0.00 0.00 0.01 0.01 0.01 0.02 0.03 0.05 0.07 0.07 0.16 0.27 0.37 0.43 0.56 0.52 0.67 0.56 0.60 0.78 0.90 0.84 0.60 0.46 0.36 0.28 0.15 0.18 0.11 0.19 0.18 0.13 0.12 0.10 0.14 0.11 0.05 0.02 0.00 0.00 0.00 0.00 0.00
0.00 0.00 0.00 0.01 0.02 0.02 0.05 0.02 0.03 0.05 0.10 0.21 0.27 0.25 0.26 0.39 0.44 0.54 0.54 0.44 0.61 0.83 1.02 0.88 0.64 0.52 0.41 0.39 0.56 0.46 0.46 0.41 0.26 0.22 0.12 0.12 0.10 0.13 0.09 0.04 0.05 0.02 0.01
0.00 0.00 0.00 0.00 0.01 0.01 0.04 0.06 0.01 0.01 0.05 0.13 0.18 0.25 0.18 0.24 0.31 0.32 0.33 0.39 0.44 0.58 0.72 0.71 0.61 0.46 0.43 0.44 0.51 0.53 0.43 0.41 0.34 0.30 0.35 0.27 0.20 0.15 0.20 0.17 0.08 0.06 0.03
0.00 0.00 0.00 0.00 0.01 0.01 0.01 0.02 0.02 0.02 0.03 0.08 0.12 0.16 0.11 0.18 0.29 0.26 0.26 0.30 0.33 0.34 0.39 0.47 0.50 0.54 0.43 0.43 0.50 0.55 0.49 0.43 0.39 0.33 0.36 0.47 0.47 0.33 0.29 0.25 0.15 0.13 0.07
0.00 0.00 0.00 0.00 0.00 0.00 0.01 0.02 0.01 0.01 0.00 0.01 0.04 0.07 0.09 0.12 0.16 0.21 0.20 0.24 0.21 0.17 0.25 0.34 0.39 0.39 0.38 0.35 0.31 0.33 0.32 0.31 0.37 0.41 0.38 0.38 0.38 0.35 0.38 0.42 0.33 0.28 0.19
0.00 0.00 0.00 0.00 0.00 0.00 0.00 0.00 0.00 0.00 0.00 0.00 0.00 0.00 0.03 0.08 0.11 0.10 0.07 0.15 0.14 0.17 0.18 0.20 0.25 0.28 0.30 0.31 0.29 0.28 0.30 0.31 0.37 0.43 0.43 0.40 0.33 0.36 0.37 0.39 0.43 0.40 0.27
0.00 0.00 0.00 0.00 0.00 0.00 0.00 0.00 0.00 0.00 0.00 0.02 0.02 0.01 0.01 0.03 0.05 0.06 0.08 0.10 0.09 0.10 0.13 0.16 0.15 0.19 0.21 0.22 0.24 0.27 0.27 0.30 0.34 0.37 0.41 0.43 0.41 0.44 0.43 0.47 0.60 0.81 0.77
0.00 0.00 0.00 0.00 0.00 0.00 0.00 0.00 0.00 0.00 0.01 0.03 0.01 0.00 0.03 0.05 0.05 0.05 0.06 0.06 0.07 0.07 0.10 0.10 0.11 0.10 0.10 0.10 0.10 0.12 0.13 0.20 0.24 0.29 0.36 0.39 0.39 0.42 0.43 0.48 0.55 0.69 0.91
0.00 0.00 0.00 0.00 0.00 0.00 0.00 0.00 0.00 0.00 0.01 0.00 0.00 0.02 0.03 0.04 0.05 0.06 0.06 0.04 0.03 0.04 0.03 0.03 0.04 0.04 0.03 0.02 0.02 0.03 0.04 0.07 0.12 0.17 0.21 0.23 0.23 0.29 0.34 0.42 0.48 0.55 0.71
0.00 0.00 0.00 0.00 0.00 0.00 0.00 0.00 0.02 0.02 0.01 0.00 0.01 0.03 0.03 0.03 0.04 0.06 0.06 0.05 0.05 0.03 0.02 0.01 0.01 0.01 0.01 0.00 0.01 0.01 0.02 0.03 0.03 0.04 0.06 0.10 0.13 0.18 0.26 0.31 0.35 0.41 0.43
0.00 0.00 0.00 0.00 0.00 0.02 0.05 0.09 0.03 0.00 0.00 0.01 0.01 0.02 0.03 0.04 0.05 0.04 0.04 0.03 0.02 0.02 0.02 0.02 0.01 0.01 0.00 0.00 0.00 0.00 0.01 0.03 0.04 0.07 0.09 0.14 0.21 0.27 0.32 0.39 0.41 0.38 0.36
0.01 0.00 0.00 0.00 0.02 0.07 0.10 0.10 0.01 0.01 0.02 0.03 0.03 0.04 0.05 0.05 0.04 0.05 0.05 0.03 0.03 0.02 0.02 0.02 0.01 0.01 0.02 0.03 0.04 0.05 0.08 0.10 0.12 0.15 0.18 0.23 0.26 0.26 0.24 0.23 0.23 0.25 0.26
0.04 0.02 0.02 0.03 0.02 0.05 0.05 0.06 0.09 0.07 0.07 0.07 0.05 0.05 0.05 0.05 0.04 0.04 0.05 0.05 0.04 0.04 0.04 0.03 0.02 0.04 0.08 0.12 0.16 0.19 0.23 0.29 0.34 0.37 0.35 0.31 0.28 0.21 0.13 0.16 0.17 0.23 0.25
0.04 0.02 0.01 0.01 0.01 0.00 0.00 0.02 0.08 0.09 0.09 0.11 0.06 0.04 0.02 0.05 0.05 0.06 0.06 0.07 0.14 0.12 0.10 0.13 0.17 0.18 0.18 0.30 0.24 0.20 0.22 0.25 0.24 0.22 0.21 0.22 0.24 0.19 0.16 0.16 0.18 0.18 0.33
0.02 0.01 0.00 0.00 0.00 0.00 0.00 0.01 0.03 0.05 0.09 0.08 0.06 0.05 0.03 0.04 0.07 0.09 0.16 0.21 0.27 0.56 0.55 0.56 0.41 0.43 0.49 0.55 0.43 0.40 0.41 0.40 0.36 0.33 0.29 0.20 0.14 0.12 0.09 0.06 0.09 0.18 0.35
0.00 0.01 0.00 0.00 0.00 0.00 0.01 0.02 0.09 0.12 0.40 0.10 0.15 0.16 0.14 0.17 0.20 0.33 0.45 0.48 0.47 0.48 0.55 0.89 0.94 0.94 0.91 0.79 0.58 0.39 0.29 0.20 0.16 0.12 0.08 0.04 0.03 0.03 0.04 0.09 0.29 0.26 0.13
0.00 0.00 0.00 0.00 0.00 0.02 0.02 0.02 0.04 0.14 0.36 0.22 0.25 0.36 0.31 0.28 0.26 0.40 0.50 0.37 0.51 0.67 0.62 0.54 0.44 0.36 0.30 0.21 0.15 0.11 0.11 0.09 0.06 0.02 0.01 0.04 0.03 0.02 0.11 0.27 0.32 0.07 0.01
0.00 0.00 0.00 0.02 0.05 0.08 0.08 0.07 0.07 0.10 0.31 0.33 0.31 0.30 0.48 0.40 0.48 0.44 0.49 0.75 0.60 0.54 0.44 0.34 0.23 0.16 0.10 0.08 0.04 0.01 0.02 0.01 0.00 0.02 0.02 0.02 0.03 0.07 0.32 0.19 0.05 0.08 0.04
0.12 0.14 0.08 0.16 0.24 0.37 0.35 0.41 0.43 0.62 0.88 0.58 0.60 0.65 0.78 0.67 0.61 0.66 0.57 0.50 0.37 0.26 0.20 0.12 0.06 0.03 0.02 0.00 0.00 0.00 0.02 0.02 0.09 0.08 0.02 0.00 0.08 0.28 0.15 0.05 0.03 0.08 0.11
0.12 0.33 0.48 0.53 0.60 0.72 0.65 0.63 0.71 0.75 0.91 0.67 0.59 0.57 0.49 0.44 0.35 0.27 0.18 0.10 0.09 0.05 0.03 0.01 0.00 0.00 0.00 0.00 0.00 0.01 0.03 0.07 0.08 0.05 0.03 0.08 0.22 0.07 0.02 0.02 0.04 0.08 0.08
0.03 0.12 0.22 0.13 0.18 0.29 0.34 0.25 0.24 0.23 0.20 0.16 0.13 0.13 0.08 0.05 0.03 0.00 0.00 0.00 0.00 0.00 0.00 0.00 0.00 0.00 0.00 0.00 0.00 0.00 0.07 0.09 0.08 0.06 0.17 0.16 0.03 0.01 0.01 0.02 0.04 0.04 0.02
0.02 0.04 0.04 0.04 0.04 0.05 0.04 0.03 0.02 0.02 0.01 0.01 0.01 0.00 0.00 0.01 0.00 0.00 0.00 0.00 0.00 0.00 0.00 0.00 0.00 0.00 0.00 0.00 0.00 0.03 0.05 0.04 0.09 0.18 0.16 0.02 0.01 0.02 0.02 0.01 0.02 0.02 0.07
0.00 0.00 0.01 0.02 0.00 0.00 0.00 0.00 0.00 0.00 0.00 0.00 0.00 0.00 0.00 0.01 0.00 0.00 0.00 0.00 0.00 0.00 0.00 0.00 0.01 0.01 0.01 0.01 0.05 0.07 0.06 0.11 0.18 0.08 0.01 0.00 0.01 0.01 0.01 0.00 0.01 0.02 0.06
0.00 0.00 0.00 0.01 0.00 0.00 0.00 0.00 0.00 0.00 0.00 0.00 0.00 0.00 0.00 0.00 0.00 0.00 0.01 0.00 0.00 0.00 0.00 0.00 0.01 0.01 0.02 0.04 0.05 0.04 0.13 0.17 0.07 0.01 0.01 0.02 0.03 0.02 0.02 0.03 0.04 0.04 0.08

GFSMW_prec_precacc_099.txt.gz
Total_Precipitation_Accumulation
0.00 0.00 0.01 0.04 0.05 0.10 0.16 0.20 0.27 0.37 0.31 0.35 0.35 0.41 0.42 0.56 0.43 0.42 0.38 0.27 0.14 0.13 0.06 0.01 0.00 0.00 0.00 0.00 0.00 0.00 0.00 0.00 0.00 0.00 0.00 0.00 0.00 0.00 0.00 0.00 0.00 0.00 0.00
0.00 0.00 0.01 0.00 0.02 0.05 0.12 0.27 0.15 0.15 0.15 0.25 0.38 0.40 0.82 0.63 0.85 0.90 0.57 0.60 0.50 0.53 0.23 0.07 0.09 0.04 0.01 0.01 0.00 0.01 0.01 0.01 0.01 0.02 0.04 0.02 0.01 0.00 0.00 0.00 0.00 0.00 0.00
0.00 0.00 0.01 0.01 0.01 0.02 0.03 0.07 0.16 0.19 0.23 0.32 0.57 0.65 0.79 0.67 0.71 0.64 0.78 1.03 1.19 1.09 0.72 0.52 0.40 0.33 0.19 0.22 0.15 0.20 0.19 0.14 0.12 0.10 0.14 0.11 0.05 0.02 0.00 0.00 0.00 0.00 0.00
0.00 0.00 0.00 0.01 0.02 0.02 0.05 0.03 0.04 0.05 0.14 0.31 0.32 0.31 0.35 0.52 0.55 0.72 0.78 0.64 0.80 1.03 1.24 1.10 0.82 0.65 0.49 0.47 0.67 0.55 0.55 0.51 0.39 0.29 0.17 0.15 0.11 0.13 0.10 0.04 0.05 0.02 0.01
0.00 0.00 0.00 0.00 0.01 0.01 0.04 0.06 0.01 0.01 0.09 0.18 0.26 0.28 0.18 0.25 0.33 0.37 0.39 0.46 0.48 0.61 0.75 0.78 0.72 0.58 0.53 0.54 0.60 0.60 0.53 0.51 0.47 0.44 0.46 0.35 0.23 0.16 0.21 0.18 0.08 0.06 0.03
0.00 0.00 0.00 0.00 0.01 0.01 0.02 0.02 0.04 0.06 0.16 0.15 0.16 0.17 0.13 0.20 0.32 0.28 0.29 0.34 0.39 0.39 0.43 0.51 0.55 0.64 0.50 0.46 0.54 0.61 0.55 0.50 0.46 0.42 0.46 0.53 0.49 0.33 0.29 0.26 0.15 0.13 0.07
0.00 0.00 0.00 0.00 0.00 0.00 0.01 0.04 0.03 0.05 0.05 0.06 0.06 0.09 0.12 0.14 0.18 0.22 0.21 0.26 0.24 0.20 0.30 0.40 0.45 0.44 0.44 0.40 0.34 0.35 0.35 0.35 0.40 0.44 0.41 0.40 0.40 0.37 0.39 0.43 0.33 0.28 0.19
0.00 0.00 0.00 0.00 0.00 0.00 0.00 0.00 0.01 0.03 0.01 0.01 0.00 0.00 0.03 0.08 0.11 0.10 0.08 0.16 0.15 0.18 0.20 0.22 0.27 0.30 0.32 0.33 0.30 0.30 0.32 0.34 0.40 0.46 0.47 0.44 0.36 0.38 0.38 0.39 0.43 0.40 0.27
0.00 0.00 0.00 0.00 0.00 0.00 0.00 0.00 0.00 0.00 0.01 0.02 0.02 0.01 0.01 0.03 0.05 0.06 0.08 0.10 0.10 0.10 0.13 0.16 0.15 0.19 0.21 0.22 0.24 0.27 0.27 0.30 0.34 0.38 0.43 0.44 0.42 0.45 0.44 0.48 0.60 0.82 0.78
0.00 0.00 0.00 0.00 0.00 0.00 0.00 0.00 0.00 0.00 0.01 0.03 0.01 0.01 0.03 0.05 0.05 0.05 0.06 0.07 0.07 0.07 0.10 0.10 0.11 0.10 0.10 0.10 0.10 0.12 0.13 0.20 0.24 0.29 0.36 0.39 0.39 0.42 0.44 0.49 0.56 0.70 0.93
0.00 0.00 0.00 0.00 0.00 0.00 0.00 0.00 0.00 0.00 0.01 0.00 0.00 0.02 0.03 0.04 0.05 0.06 0.06 0.04 0.03 0.04 0.03 0.03 0.04 0.04 0.03 0.02 0.02 0.03 0.04 0.07 0.12 0.17 0.22 0.23 0.23 0.29 0.35 0.42 0.48 0.55 0.71
0.00 0.00 0.00 0.00 0.00 0.00 0.00 0.00 0.02 0.02 0.01 0.00 0.01 0.03 0.03 0.04 0.04 0.06 0.06 0.05 0.05 0.03 0.02 0.01 0.01 0.01 0.01 0.00 0.01 0.01 0.02 0.03 0.03 0.04 0.06 0.10 0.13 0.18 0.27 0.32 0.35 0.41 0.43
0.00 0.00 0.00 0.00 0.00 0.02 0.05 0.09 0.03 0.00 0.00 0.01 0.01 0.02 0.03 0.04 0.05 0.04 0.04 0.03 0.02 0.02 0.02 0.02 0.01 0.01 0.00 0.00 0.00 0.00 0.01 0.03 0.04 0.07 0.10 0.14 0.21 0.27 0.32 0.39 0.41 0.38 0.36
0.01 0.00 0.00 0.00 0.02 0.07 0.10 0.10 0.01 0.01 0.02 0.03 0.03 0.04 0.05 0.05 0.04 0.05 0.05 0.03 0.03 0.02 0.02 0.02 0.01 0.01 0.02 0.03 0.04 0.05 0.08 0.10 0.12 0.15 0.18 0.23 0.26 0.26 0.24 0.23 0.23 0.25 0.26
0.04 0.02 0.02 0.03 0.02 0.05 0.05 0.06 0.09 0.07 0.07 0.07 0.05 0.05 0.05 0.05 0.04 0.04 0.05 0.05 0.04 0.04 0.04 0.03 0.02 0.04 0.08 0.12 0.16 0.19 0.23 0.29 0.34 0.37 0.35 0.31 0.28 0.21 0.13 0.16 0.17 0.23 0.25
0.04 0.02 0.01 0.01 0.01 0.00 0.00 0.02 0.08 0.09 0.09 0.11 0.06 0.04 0.02 0.05 0.05 0.06 0.06 0.07 0.14 0.12 0.10 0.13 0.17 0.18 0.18 0.30 0.24 0.20 0.22 0.25 0.24 0.22 0.21 0.22 0.24 0.19 0.16 0.16 0.18 0.18 0.33
0.02 0.01 0.00 0.00 0.00 0.00 0.00 0.01 0.03 0.05 0.09 0.08 0.06 0.05 0.03 0.04 0.07 0.09 0.16 0.21 0.27 0.56 0.55 0.56 0.41 0.43 0.49 0.55 0.43 0.40 0.41 0.40 0.36 0.33 0.29 0.20 0.14 0.12 0.09 0.06 0.09 0.18 0.35
0.00 0.01 0.00 0.00 0.00 0.00 0.01 0.02 0.09 0.12 0.40 0.10 0.15 0.16 0.14 0.17 0.20 0.33 0.45 0.48 0.47 0.48 0.55 0.89 0.94 0.94 0.91 0.79 0.58 0.39 0.29 0.20 0.16 0.12 0.08 0.04 0.03 0.03 0.04 0.09 0.29 0.26 0.13
0.00 0.00 0.00 0.00 0.00 0.02 0.02 0.02 0.04 0.14 0.36 0.22 0.25 0.36 0.31 0.28 0.26 0.40 0.50 0.37 0.51 0.67 0.62 0.54 0.44 0.36 0.30 0.21 0.15 0.12 0.11 0.09 0.06 0.02 0.01 0.04 0.03 0.02 0.11 0.27 0.32 0.07 0.01
0.00 0.00 0.00 0.02 0.05 0.08 0.08 0.07 0.07 0.10 0.31 0.33 0.31 0.30 0.48 0.40 0.48 0.44 0.49 0.75 0.60 0.54 0.44 0.34 0.23 0.16 0.10 0.08 0.04 0.01 0.02 0.01 0.00 0.02 0.02 0.02 0.03 0.07 0.32 0.19 0.05 0.08 0.04
0.12 0.14 0.08 0.16 0.24 0.37 0.35 0.41 0.43 0.62 0.88 0.58 0.60 0.65 0.78 0.67 0.61 0.66 0.57 0.50 0.37 0.26 0.20 0.12 0.06 0.03 0.02 0.00 0.00 0.00 0.02 0.02 0.09 0.08 0.02 0.00 0.08 0.28 0.15 0.05 0.03 0.08 0.11
0.12 0.33 0.48 0.53 0.60 0.72 0.65 0.63 0.71 0.75 0.91 0.67 0.59 0.57 0.49 0.44 0.35 0.27 0.18 0.10 0.09 0.05 0.03 0.01 0.00 0.00 0.00 0.00 0.00 0.01 0.03 0.07 0.08 0.05 0.03 0.08 0.22 0.07 0.02 0.02 0.04 0.08 0.08
0.03 0.12 0.22 0.13 0.18 0.29 0.34 0.25 0.24 0.23 0.20 0.16 0.13 0.13 0.08 0.05 0.03 0.00 0.00 0.00 0.00 0.00 0.00 0.00 0.00 0.00 0.00 0.00 0.00 0.00 0.07 0.09 0.08 0.06 0.17 0.16 0.03 0.01 0.01 0.02 0.04 0.04 0.02
0.02 0.04 0.04 0.04 0.04 0.05 0.04 0.03 0.02 0.02 0.01 0.01 0.01 0.00 0.00 0.01 0.00 0.00 0.00 0.00 0.00 0.00 0.00 0.00 0.00 0.00 0.00 0.00 0.00 0.03 0.05 0.04 0.09 0.18 0.16 0.02 0.01 0.02 0.02 0.01 0.02 0.02 0.07
0.00 0.00 0.01 0.02 0.00 0.00 0.00 0.00 0.00 0.00 0.00 0.00 0.00 0.00 0.00 0.01 0.00 0.00 0.00 0.00 0.00 0.00 0.00 0.00 0.01 0.01 0.01 0.01 0.05 0.07 0.06 0.11 0.18 0.08 0.01 0.00 0.01 0.01 0.01 0.00 0.01 0.02 0.06
0.00 0.00 0.00 0.01 0.00 0.00 0.00 0.00 0.00 0.00 0.00 0.00 0.00 0.00 0.00 0.00 0.00 0.00 0.01 0.00 0.00 0.00 0.00 0.00 0.01 0.01 0.02 0.04 0.05 0.04 0.13 0.17 0.07 0.01 0.01 0.02 0.03 0.02 0.02 0.03 0.04 0.04 0.08

GFSMW_prec_precacc_102.txt.gz
Total_Precipitation_Accumulation
0.00 0.00 0.02 0.06 0.08 0.17 0.25 0.26 0.39 0.49 0.41 0.39 0.38 0.42 0.42 0.56 0.44 0.44 0.39 0.28 0.14 0.13 0.06 0.01 0.00 0.00 0.00 0.00 0.00 0.00 0.00 0.00 0.00 0.00 0.00 0.00 0.00 0.00 0.00 0.00 0.00 0.00 0.00
0.00 0.00 0.01 0.00 0.02 0.10 0.14 0.32 0.24 0.17 0.17 0.37 0.49 0.46 0.83 0.65 0.87 0.92 0.58 0.62 0.52 0.55 0.24 0.08 0.09 0.04 0.01 0.01 0.00 0.01 0.01 0.01 0.01 0.02 0.04 0.02 0.01 0.00 0.00 0.00 0.00 0.00 0.00
0.00 0.00 0.01 0.01 0.02 0.04 0.04 0.08 0.17 0.19 0.32 0.40 0.86 0.90 0.91 0.77 0.81 0.66 0.78 1.05 1.23 1.16 0.79 0.59 0.43 0.33 0.21 0.29 0.26 0.31 0.27 0.20 0.18 0.13 0.15 0.11 0.05 0.02 0.01 0.02 0.01 0.01 0.00
0.00 0.00 0.00 0.01 0.03 0.04 0.07 0.04 0.04 0.05 0.14 0.39 0.42 0.34 0.44 0.67 0.59 0.84 0.96 0.77 0.87 1.11 1.37 1.32 1.01 0.80 0.64 0.59 0.77 0.65 0.67 0.65 0.51 0.37 0.23 0.21 0.16 0.18 0.12 0.04 0.05 0.02 0.01
0.00 0.00 0.00 0.00 0.01 0.03 0.07 0.10 0.04 0.01 0.09 0.21 0.32 0.36 0.25 0.26 0.34 0.43 0.51 0.61 0.62 0.75 0.87 0.88 0.88 0.78 0.74 0.75 0.76 0.72 0.62 0.59 0.54 0.51 0.52 0.45 0.35 0.28 0.34 0.23 0.08 0.06 0.03
0.00 0.00 0.00 0.00 0.01 0.02 0.05 0.06 0.08 0.08 0.19 0.24 0.26 0.23 0.16 0.21 0.39 0.49 0.46 0.46 0.47 0.49 0.50 0.60 0.65 0.78 0.61 0.50 0.57 0.64 0.58 0.53 0.49 0.45 0.51 0.62 0.61 0.42 0.36 0.31 0.17 0.14 0.07
0.00 0.00 0.00 0.00 0.00 0.01 0.02 0.06 0.06 0.12 0.17 0.12 0.08 0.10 0.14 0.19 0.24 0.29 0.27 0.29 0.25 0.20 0.31 0.41 0.50 0.53 0.53 0.46 0.38 0.37 0.36 0.37 0.42 0.47 0.44 0.42 0.43 0.41 0.44 0.47 0.36 0.29 0.19
0.00 0.00 0.00 0.00 0.00 0.01 0.02 0.04 0.05 0.05 0.07 0.05 0.02 0.01 0.04 0.09 0.12 0.10 0.08 0.16 0.15 0.18 0.20 0.22 0.28 0.31 0.33 0.34 0.31 0.31 0.33 0.35 0.42 0.48 0.50 0.47 0.41 0.42 0.41 0.42 0.46 0.41 0.28
0.00 0.00 0.00 0.00 0.00 0.00 0.00 0.01 0.01 0.02 0.03 0.03 0.02 0.01 0.01 0.03 0.05 0.06 0.08 0.10 0.10 0.10 0.13 0.16 0.15 0.19 0.21 0.22 0.24 0.27 0.27 0.30 0.34 0.39 0.44 0.45 0.43 0.46 0.45 0.48 0.61 0.84 0.79
0.00 0.00 0.00 0.00 0.00 0.00 0.00 0.00 0.00 0.00 0.02 0.04 0.02 0.01 0.03 0.05 0.05 0.05 0.06 0.07 0.07 0.07 0.10 0.10 0.11 0.10 0.10 0.10 0.10 0.12 0.13 0.20 0.24 0.29 0.36 0.39 0.39 0.42 0.44 0.50 0.57 0.71 0.95
0.00 0.00 0.00 0.00 0.00 0.00 0.00 0.00 0.00 0.00 0.01 0.00 0.01 0.02 0.03 0.04 0.05 0.06 0.06 0.04 0.03 0.04 0.03 0.03 0.04 0.04 0.03 0.02 0.02 0.03 0.04 0.07 0.12 0.17 0.22 0.23 0.23 0.29 0.35 0.43 0.49 0.56 0.72
0.00 0.00 0.00 0.00 0.00 0.00 0.00 0.00 0.02 0.02 0.01 0.00 0.01 0.03 0.03 0.04 0.04 0.06 0.06 0.05 0.05 0.03 0.02 0.01 0.01 0.01 0.01 0.00 0.01 0.01 0.02 0.03 0.03 0.04 0.06 0.10 0.13 0.19 0.27 0.32 0.35 0.41 0.43
0.00 0.00 0.00 0.00 0.00 0.02 0.05 0.09 0.03 0.00 0.00 0.01 0.01 0.02 0.03 0.04 0.05 0.04 0.04 0.03 0.02 0.02 0.02 0.02 0.01 0.01 0.00 0.00 0.00 0.00 0.01 0.03 0.04 0.07 0.10 0.15 0.21 0.27 0.32 0.39 0.41 0.38 0.36
0.01 0.00 0.00 0.00 0.02 0.07 0.10 0.10 0.01 0.01 0.02 0.03 0.03 0.04 0.05 0.05 0.04 0.05 0.05 0.03 0.03 0.02 0.02 0.02 0.01 0.01 0.02 0.03 0.04 0.05 0.08 0.10 0.12 0.15 0.18 0.23 0.26 0.26 0.25 0.23 0.24 0.25 0.26
0.04 0.02 0.02 0.03 0.02 0.05 0.05 0.06 0.09 0.07 0.07 0.07 0.05 0.05 0.05 0.05 0.04 0.04 0.05 0.05 0.04 0.04 0.04 0.03 0.02 0.04 0.08 0.12 0.16 0.19 0.23 0.29 0.34 0.37 0.35 0.31 0.28 0.21 0.14 0.16 0.17 0.23 0.25
0.04 0.02 0.01 0.01 0.01 0.00 0.00 0.02 0.08 0.09 0.09 0.11 0.06 0.04 0.02 0.05 0.05 0.06 0.06 0.07 0.14 0.12 0.10 0.13 0.17 0.18 0.18 0.30 0.24 0.20 0.22 0.25 0.24 0.22 0.21 0.22 0.24 0.19 0.16 0.17 0.18 0.18 0.33
0.02 0.01 0.00 0.00 0.00 0.00 0.00 0.01 0.03 0.05 0.09 0.08 0.06 0.05 0.03 0.04 0.07 0.09 0.16 0.21 0.27 0.56 0.55 0.56 0.41 0.43 0.49 0.55 0.43 0.40 0.41 0.40 0.36 0.33 0.29 0.20 0.14 0.12 0.09 0.06 0.09 0.18 0.35
0.00 0.01 0.00 0.00 0.00 0.00 0.01 0.02 0.09 0.12 0.40 0.10 0.15 0.16 0.14 0.17 0.20 0.33 0.45 0.48 0.47 0.48 0.55 0.89 0.94 0.94 0.91 0.79 0.58 0.39 0.29 0.20 0.16 0.12 0.08 0.04 0.03 0.03 0.04 0.09 0.29 0.26 0.13
0.00 0.00 0.00 0.00 0.00 0.02 0.02 0.02 0.04 0.14 0.36 0.22 0.25 0.36 0.31 0.28 0.26 0.40 0.50 0.37 0.51 0.67 0.62 0.54 0.44 0.36 0.30 0.21 0.15 0.12 0.11 0.09 0.06 0.02 0.01 0.04 0.03 0.02 0.11 0.27 0.32 0.07 0.01
0.00 0.00 0.00 0.02 0.05 0.08 0.08 0.07 0.07 0.10 0.31 0.33 0.31 0.30 0.48 0.40 0.48 0.44 0.49 0.75 0.60 0.54 0.44 0.34 0.23 0.16 0.10 0.08 0.04 0.01 0.02 0.01 0.00 0.02 0.02 0.02 0.03 0.07 0.32 0.19 0.05 0.08 0.04
0.12 0.14 0.08 0.16 0.24 0.37 0.35 0.41 0.43 0.62 0.88 0.58 0.60 0.65 0.78 0.67 0.61 0.66 0.57 0.50 0.37 0.26 0.20 0.12 0.06 0.03 0.02 0.00 0.00 0.00 0.02 0.02 0.09 0.08 0.02 0.00 0.09 0.28 0.15 0.05 0.03 0.08 0.11
0.12 0.33 0.48 0.53 0.60 0.72 0.65 0.63 0.71 0.75 0.91 0.67 0.59 0.57 0.49 0.44 0.35 0.27 0.18 0.10 0.09 0.05 0.03 0.01 0.00 0.00 0.00 0.00 0.00 0.01 0.03 0.07 0.08 0.05 0.03 0.08 0.22 0.07 0.02 0.02 0.04 0.08 0.08
0.03 0.12 0.22 0.13 0.18 0.29 0.34 0.25 0.24 0.23 0.20 0.16 0.13 0.13 0.08 0.05 0.03 0.00 0.00 0.00 0.00 0.00 0.00 0.00 0.00 0.00 0.00 0.00 0.00 0.01 0.07 0.09 0.08 0.06 0.17 0.16 0.03 0.01 0.01 0.02 0.04 0.04 0.02
0.02 0.04 0.04 0.04 0.04 0.05 0.04 0.03 0.02 0.02 0.01 0.01 0.01 0.00 0.00 0.01 0.00 0.00 0.00 0.00 0.00 0.00 0.00 0.00 0.00 0.00 0.00 0.00 0.00 0.03 0.05 0.04 0.09 0.18 0.16 0.02 0.01 0.02 0.02 0.01 0.02 0.02 0.07
0.00 0.00 0.01 0.02 0.00 0.00 0.00 0.00 0.00 0.00 0.00 0.00 0.00 0.00 0.00 0.01 0.00 0.00 0.00 0.00 0.00 0.00 0.00 0.00 0.01 0.01 0.01 0.01 0.05 0.07 0.06 0.11 0.18 0.08 0.01 0.00 0.01 0.01 0.01 0.00 0.01 0.02 0.06
0.00 0.00 0.00 0.01 0.00 0.00 0.00 0.00 0.00 0.00 0.00 0.00 0.00 0.00 0.00 0.00 0.00 0.00 0.01 0.01 0.01 0.01 0.00 0.00 0.01 0.01 0.02 0.04 0.05 0.04 0.13 0.17 0.07 0.01 0.01 0.02 0.03 0.02 0.02 0.03 0.04 0.04 0.08

GFSMW_prec_precacc_105.txt.gz
Total_Precipitation_Accumulation
0.00 0.04 0.19 0.23 0.26 0.44 0.50 0.42 0.69 0.84 0.73 0.53 0.41 0.48 0.43 0.56 0.46 0.45 0.41 0.29 0.14 0.13 0.06 0.01 0.00 0.00 0.00 0.00 0.00 0.00 0.00 0.00 0.00 0.00 0.00 0.00 0.00 0.00 0.00 0.00 0.00 0.00 0.00
0.00 0.00 0.06 0.22 0.26 0.29 0.31 0.45 0.38 0.36 0.39 0.61 0.64 0.66 0.86 0.65 0.91 0.97 0.62 0.62 0.52 0.55 0.25 0.10 0.11 0.04 0.01 0.01 0.00 0.01 0.01 0.01 0.01 0.02 0.04 0.02 0.01 0.00 0.00 0.00 0.00 0.00 0.00
0.00 0.00 0.01 0.07 0.16 0.24 0.21 0.16 0.22 0.23 0.41 0.65 1.17 1.19 1.14 0.91 0.86 0.67 0.78 1.05 1.24 1.16 0.81 0.61 0.48 0.34 0.21 0.29 0.26 0.31 0.28 0.22 0.20 0.16 0.18 0.13 0.06 0.03 0.02 0.03 0.03 0.04 0.03
0.00 0.00 0.00 0.02 0.04 0.05 0.13 0.23 0.12 0.06 0.19 0.53 0.64 0.58 0.52 0.80 0.66 0.90 0.98 0.79 0.89 1.11 1.38 1.34 1.13 0.94 0.70 0.63 0.81 0.70 0.74 0.77 0.64 0.52 0.37 0.34 0.24 0.23 0.15 0.06 0.06 0.02 0.01
0.00 0.00 0.00 0.00 0.01 0.03 0.09 0.12 0.17 0.16 0.20 0.37 0.50 0.45 0.41 0.43 0.47 0.50 0.53 0.70 0.75 0.86 0.93 0.98 1.05 0.99 0.92 0.95 1.10 1.18 1.00 0.78 0.64 0.58 0.57 0.47 0.39 0.33 0.40 0.29 0.12 0.07 0.04
0.00 0.00 0.00 0.00 0.01 0.03 0.07 0.09 0.11 0.09 0.25 0.27 0.33 0.28 0.18 0.22 0.40 0.60 0.73 0.72 0.79 0.75 0.73 0.82 0.83 0.91 0.81 0.76 0.85 0.93 0.84 0.72 0.62 0.55 0.58 0.65 0.64 0.46 0.43 0.38 0.21 0.15 0.08
0.00 0.00 0.00 0.00 0.00 0.02 0.03 0.09 0.09 0.15 0.26 0.22 0.13 0.11 0.16 0.19 0.26 0.37 0.40 0.40 0.35 0.29 0.34 0.42 0.51 0.53 0.54 0.48 0.41 0.40 0.40 0.42 0.46 0.50 0.47 0.44 0.45 0.44 0.47 0.50 0.39 0.31 0.21
0.00 0.00 0.00 0.00 0.00 0.01 0.04 0.07 0.07 0.10 0.13 0.09 0.05 0.03 0.06 0.10 0.15 0.13 0.10 0.16 0.16 0.18 0.20 0.22 0.28 0.31 0.33 0.34 0.31 0.31 0.34 0.36 0.42 0.48 0.50 0.48 0.42 0.44 0.45 0.45 0.48 0.42 0.28
0.00 0.00 0.00 0.00 0.00 0.00 0.01 0.01 0.02 0.04 0.06 0.06 0.04 0.02 0.01 0.05 0.06 0.06 0.08 0.10 0.10 0.10 0.13 0.16 0.15 0.19 0.21 0.22 0.24 0.27 0.27 0.30 0.34 0.39 0.44 0.45 0.43 0.47 0.47 0.51 0.65 0.90 0.80
0.00 0.00 0.00 0.00 0.00 0.00 0.00 0.00 0.01 0.02 0.03 0.05 0.03 0.02 0.03 0.06 0.05 0.05 0.06 0.07 0.07 0.07 0.10 0.10 0.11 0.10 0.10 0.10 0.10 0.12 0.13 0.20 0.24 0.29 0.36 0.39 0.39 0.42 0.44 0.50 0.58 0.73 0.97
0.00 0.00 0.00 0.00 0.00 0.00 0.00 0.00 0.00 0.01 0.02 0.02 0.02 0.04 0.03 0.04 0.05 0.06 0.06 0.04 0.03 0.04 0.03 0.03 0.04 0.04 0.03 0.02 0.02 0.03 0.04 0.07 0.12 0.17 0.22 0.23 0.24 0.29 0.35 0.43 0.49 0.56 0.72
0.00 0.00 0.00 0.00 0.00 0.00 0.00 0.00 0.02 0.02 0.01 0.02 0.03 0.04 0.03 0.04 0.04 0.06 0.06 0.05 0.05 0.03 0.02 0.01 0.01 0.01 0.01 0.00 0.01 0.01 0.02 0.03 0.03 0.04 0.06 0.10 0.13 0.19 0.27 0.32 0.35 0.41 0.43
0.00 0.00 0.00 0.00 0.00 0.02 0.05 0.09 0.03 0.00 0.00 0.01 0.01 0.02 0.03 0.04 0.05 0.04 0.04 0.03 0.02 0.02 0.02 0.02 0.01 0.01 0.00 0.00 0.00 0.00 0.01 0.03 0.04 0.07 0.10 0.15 0.21 0.27 0.32 0.39 0.41 0.38 0.36
0.01 0.00 0.00 0.00 0.02 0.07 0.10 0.10 0.01 0.01 0.02 0.03 0.03 0.04 0.05 0.05 0.04 0.05 0.05 0.03 0.03 0.02 0.02 0.02 0.01 0.01 0.02 0.03 0.04 0.05 0.08 0.10 0.12 0.15 0.18 0.23 0.26 0.26 0.25 0.24 0.24 0.26 0.27
0.04 0.02 0.02 0.03 0.02 0.05 0.05 0.06 0.09 0.07 0.07 0.07 0.05 0.05 0.05 0.05 0.04 0.04 0.05 0.05 0.04 0.04 0.04 0.03 0.02 0.04 0.08 0.12 0.16 0.19 0.23 0.29 0.34 0.37 0.35 0.31 0.28 0.22 0.14 0.16 0.17 0.24 0.26
0.04 0.02 0.01 0.01 0.01 0.00 0.00 0.02 0.08 0.09 0.09 0.11 0.06 0.04 0.02 0.05 0.05 0.06 0.06 0.07 0.14 0.12 0.10 0.13 0.17 0.18 0.18 0.30 0.24 0.20 0.22 0.25 0.24 0.22 0.21 0.22 0.24 0.19 0.16 0.17 0.18 0.19 0.33
0.02 0.01 0.00 0.00 0.00 0.00 0.00 0.01 0.03 0.05 0.09 0.08 0.06 0.05 0.03 0.04 0.07 0.09 0.16 0.21 0.27 0.56 0.55 0.56 0.41 0.43 0.49 0.55 0.43 0.40 0.41 0.40 0.36 0.33 0.29 0.20 0.14 0.12 0.09 0.06 0.09 0.18 0.35
0.00 0.01 0.00 0.00 0.00 0.00 0.01 0.02 0.09 0.12 0.40 0.10 0.15 0.16 0.14 0.17 0.20 0.33 0.45 0.48 0.47 0.48 0.55 0.89 0.94 0.94 0.91 0.79 0.58 0.39 0.29 0.20 0.16 0.12 0.08 0.04 0.04 0.03 0.05 0.09 0.29 0.26 0.13
0.00 0.00 0.00 0.00 0.00 0.02 0.02 0.02 0.04 0.14 0.36 0.22 0.25 0.36 0.31 0.28 0.26 0.40 0.50 0.37 0.51 0.67 0.62 0.54 0.44 0.36 0.30 0.21 0.15 0.12 0.11 0.09 0.06 0.02 0.01 0.04 0.03 0.03 0.12 0.27 0.32 0.07 0.01
0.00 0.00 0.00 0.02 0.05 0.08 0.08 0.07 0.07 0.10 0.31 0.33 0.31 0.30 0.48 0.40 0.48 0.44 0.49 0.75 0.60 0.54 0.44 0.34 0.23 0.16 0.10 0.08 0.04 0.01 0.02 0.01 0.00 0.02 0.02 0.04 0.03 0.08 0.33 0.19 0.05 0.08 0.04
0.12 0.14 0.08 0.16 0.24 0.37 0.35 0.41 0.43 0.62 0.88 0.58 0.60 0.65 0.78 0.67 0.61 0.66 0.57 0.50 0.37 0.26 0.20 0.12 0.06 0.03 0.02 0.00 0.00 0.01 0.02 0.02 0.09 0.08 0.02 0.01 0.10 0.28 0.15 0.05 0.03 0.08 0.11
0.12 0.33 0.48 0.53 0.60 0.72 0.65 0.63 0.71 0.75 0.91 0.67 0.59 0.57 0.49 0.44 0.35 0.27 0.18 0.10 0.09 0.05 0.03 0.01 0.00 0.00 0.00 0.00 0.00 0.01 0.03 0.07 0.08 0.05 0.03 0.08 0.22 0.08 0.02 0.02 0.04 0.08 0.08
0.03 0.12 0.22 0.13 0.18 0.29 0.34 0.25 0.24 0.23 0.20 0.16 0.13 0.13 0.08 0.05 0.03 0.00 0.00 0.00 0.00 0.00 0.00 0.00 0.00 0.00 0.00 0.00 0.00 0.01 0.07 0.09 0.08 0.06 0.17 0.16 0.03 0.01 0.01 0.02 0.04 0.04 0.02
0.02 0.04 0.04 0.04 0.04 0.05 0.04 0.03 0.02 0.02 0.01 0.01 0.01 0.00 0.00 0.01 0.00 0.00 0.00 0.00 0.00 0.00 0.00 0.00 0.00 0.00 0.00 0.00 0.00 0.03 0.05 0.04 0.09 0.18 0.16 0.02 0.01 0.02 0.02 0.01 0.02 0.02 0.07
0.00 0.00 0.01 0.02 0.00 0.00 0.00 0.00 0.00 0.00 0.00 0.00 0.00 0.00 0.00 0.01 0.00 0.00 0.00 0.00 0.00 0.00 0.00 0.00 0.01 0.01 0.01 0.01 0.05 0.07 0.06 0.11 0.18 0.08 0.01 0.00 0.01 0.01 0.01 0.00 0.01 0.02 0.06
0.00 0.00 0.00 0.01 0.00 0.00 0.00 0.00 0.00 0.00 0.00 0.00 0.00 0.00 0.00 0.00 0.00 0.00 0.01 0.01 0.01 0.01 0.00 0.00 0.01 0.01 0.02 0.04 0.05 0.04 0.13 0.17 0.07 0.01 0.01 0.02 0.03 0.02 0.02 0.03 0.04 0.04 0.08

GFSMW_prec_precacc_108.txt.gz
Total_Precipitation_Accumulation
0.07 0.12 0.31 0.40 0.46 0.75 0.96 0.78 0.90 0.96 0.87 0.56 0.41 0.48 0.43 0.56 0.46 0.46 0.41 0.29 0.14 0.13 0.06 0.01 0.00 0.00 0.00 0.00 0.00 0.00 0.00 0.00 0.00 0.00 0.00 0.00 0.00 0.00 0.00 0.00 0.00 0.00 0.00
0.03 0.04 0.14 0.35 0.32 0.37 0.71 0.94 0.84 0.68 0.61 0.84 0.77 0.76 0.90 0.67 0.91 1.00 0.63 0.64 0.55 0.56 0.25 0.10 0.11 0.04 0.01 0.01 0.00 0.01 0.01 0.01 0.01 0.02 0.04 0.02 0.01 0.00 0.00 0.00 0.00 0.00 0.01
0.01 0.02 0.04 0.21 0.30 0.28 0.41 0.80 0.81 0.63 0.71 1.01 1.65 1.57 1.40 1.05 1.01 0.75 0.84 1.15 1.28 1.18 0.81 0.62 0.48 0.35 0.21 0.31 0.26 0.31 0.28 0.23 0.21 0.17 0.21 0.18 0.09 0.05 0.03 0.04 0.04 0.05 0.05
0.00 0.00 0.01 0.06 0.15 0.12 0.24 0.62 0.65 0.60 0.51 0.85 0.94 0.87 0.80 1.04 0.81 0.99 1.10 0.95 0.99 1.13 1.38 1.34 1.14 0.99 0.85 0.73 0.87 0.75 0.81 0.84 0.73 0.68 0.53 0.50 0.36 0.29 0.16 0.06 0.06 0.03 0.02
0.00 0.00 0.00 0.02 0.05 0.14 0.25 0.33 0.47 0.47 0.69 0.67 0.77 0.68 0.59 0.61 0.64 0.62 0.67 0.79 0.82 0.89 1.02 1.14 1.27 1.27 1.25 1.21 1.33 1.33 1.30 1.21 1.05 0.84 0.75 0.63 0.56 0.50 0.56 0.38 0.14 0.09 0.05
0.00 0.00 0.00 0.00 0.01 0.05 0.18 0.32 0.39 0.34 0.50 0.59 0.67 0.58 0.49 0.50 0.60 0.73 0.88 0.93 1.07 1.09 1.14 1.19 1.09 1.15 0.98 0.84 0.95 1.04 0.94 0.80 0.68 0.60 0.68 0.80 0.79 0.61 0.57 0.47 0.24 0.16 0.09
0.00 0.00 0.00 0.00 0.00 0.02 0.06 0.19 0.23 0.31 0.48 0.45 0.37 0.32 0.41 0.32 0.37 0.52 0.68 0.55 0.54 0.46 0.47 0.48 0.58 0.56 0.55 0.49 0.41 0.42 0.41 0.42 0.47 0.53 0.49 0.47 0.48 0.47 0.49 0.52 0.41 0.32 0.22
0.00 0.00 0.00 0.00 0.00 0.01 0.05 0.12 0.14 0.19 0.22 0.16 0.12 0.07 0.11 0.17 0.23 0.25 0.21 0.16 0.17 0.19 0.20 0.22 0.28 0.31 0.33 0.34 0.31 0.31 0.34 0.36 0.43 0.48 0.50 0.49 0.44 0.47 0.47 0.46 0.49 0.43 0.28
0.00 0.00 0.00 0.00 0.00 0.00 0.01 0.01 0.02 0.05 0.07 0.08 0.05 0.02 0.03 0.07 0.09 0.09 0.09 0.10 0.10 0.10 0.13 0.16 0.15 0.19 0.21 0.22 0.24 0.27 0.27 0.30 0.34 0.39 0.44 0.45 0.44 0.47 0.49 0.54 0.70 0.95 0.82
0.00 0.00 0.00 0.00 0.00 0.00 0.00 0.00 0.01 0.02 0.03 0.05 0.03 0.02 0.04 0.07 0.06 0.05 0.06 0.07 0.07 0.07 0.10 0.10 0.11 0.10 0.10 0.10 0.10 0.12 0.13 0.20 0.24 0.29 0.36 0.39 0.39 0.42 0.44 0.51 0.59 0.74 1.00
0.00 0.00 0.00 0.00 0.00 0.00 0.00 0.01 0.00 0.01 0.02 0.02 0.03 0.04 0.04 0.05 0.06 0.06 0.06 0.04 0.03 0.04 0.03 0.03 0.04 0.04 0.03 0.02 0.02 0.03 0.04 0.07 0.12 0.17 0.22 0.23 0.24 0.29 0.35 0.43 0.49 0.57 0.75
0.00 0.00 0.00 0.00 0.00 0.00 0.00 0.01 0.03 0.03 0.01 0.03 0.04 0.05 0.04 0.05 0.05 0.06 0.06 0.05 0.05 0.03 0.02 0.01 0.01 0.01 0.01 0.00 0.01 0.01 0.02 0.03 0.03 0.04 0.06 0.10 0.13 0.19 0.27 0.32 0.36 0.41 0.43
0.00 0.00 0.00 0.00 0.00 0.02 0.05 0.09 0.03 0.00 0.00 0.02 0.02 0.03 0.03 0.04 0.05 0.04 0.04 0.03 0.02 0.02 0.02 0.02 0.01 0.01 0.00 0.00 0.00 0.00 0.01 0.03 0.04 0.07 0.10 0.15 0.21 0.27 0.32 0.39 0.41 0.39 0.37
0.01 0.00 0.00 0.00 0.02 0.07 0.10 0.10 0.01 0.01 0.02 0.03 0.03 0.04 0.05 0.05 0.04 0.05 0.05 0.03 0.03 0.02 0.02 0.02 0.01 0.01 0.02 0.03 0.04 0.05 0.08 0.10 0.12 0.15 0.18 0.23 0.26 0.26 0.25 0.24 0.24 0.27 0.28
0.04 0.02 0.02 0.03 0.02 0.05 0.05 0.06 0.09 0.07 0.07 0.07 0.05 0.05 0.05 0.05 0.04 0.04 0.05 0.05 0.04 0.04 0.04 0.03 0.02 0.04 0.08 0.12 0.16 0.19 0.23 0.29 0.34 0.37 0.35 0.31 0.28 0.22 0.14 0.16 0.17 0.24 0.26
0.04 0.02 0.01 0.01 0.01 0.00 0.01 0.02 0.08 0.09 0.09 0.11 0.06 0.04 0.02 0.05 0.05 0.06 0.06 0.07 0.14 0.12 0.10 0.13 0.17 0.18 0.18 0.30 0.24 0.20 0.22 0.25 0.24 0.22 0.21 0.22 0.24 0.19 0.16 0.17 0.18 0.19 0.33
0.02 0.01 0.00 0.00 0.00 0.00 0.00 0.01 0.03 0.05 0.09 0.08 0.06 0.05 0.03 0.04 0.07 0.09 0.16 0.21 0.27 0.56 0.55 0.56 0.41 0.43 0.49 0.55 0.43 0.40 0.41 0.40 0.36 0.33 0.29 0.20 0.14 0.12 0.09 0.06 0.09 0.19 0.35
0.00 0.01 0.00 0.00 0.00 0.00 0.01 0.02 0.09 0.12 0.40 0.10 0.15 0.16 0.14 0.17 0.20 0.33 0.45 0.48 0.47 0.48 0.55 0.89 0.94 0.94 0.91 0.79 0.58 0.40 0.29 0.20 0.16 0.12 0.08 0.04 0.04 0.04 0.05 0.09 0.29 0.26 0.13
0.00 0.00 0.00 0.00 0.00 0.02 0.02 0.02 0.04 0.14 0.36 0.22 0.25 0.36 0.31 0.28 0.26 0.40 0.50 0.37 0.51 0.67 0.62 0.54 0.44 0.36 0.30 0.21 0.15 0.12 0.11 0.09 0.06 0.02 0.01 0.04 0.03 0.04 0.12 0.27 0.32 0.07 0.01
0.00 0.00 0.00 0.02 0.05 0.08 0.08 0.07 0.07 0.10 0.31 0.33 0.31 0.30 0.48 0.40 0.48 0.44 0.49 0.75 0.60 0.54 0.44 0.34 0.23 0.16 0.10 0.08 0.04 0.01 0.02 0.01 0.00 0.02 0.02 0.04 0.03 0.09 0.33 0.19 0.05 0.08 0.04
0.12 0.14 0.08 0.16 0.24 0.37 0.35 0.41 0.43 0.62 0.88 0.58 0.60 0.65 0.78 0.67 0.61 0.66 0.57 0.50 0.37 0.26 0.20 0.12 0.06 0.03 0.02 0.00 0.00 0.01 0.02 0.02 0.09 0.08 0.02 0.01 0.11 0.29 0.16 0.05 0.03 0.08 0.11
0.12 0.33 0.48 0.53 0.60 0.72 0.65 0.63 0.71 0.75 0.91 0.67 0.59 0.57 0.49 0.44 0.35 0.27 0.18 0.10 0.09 0.05 0.03 0.01 0.00 0.00 0.00 0.00 0.00 0.01 0.03 0.07 0.08 0.05 0.03 0.08 0.22 0.08 0.02 0.02 0.05 0.08 0.08
0.03 0.12 0.22 0.13 0.18 0.29 0.34 0.25 0.24 0.23 0.20 0.16 0.13 0.13 0.08 0.05 0.03 0.00 0.00 0.00 0.00 0.00 0.00 0.00 0.00 0.00 0.00 0.00 0.00 0.01 0.07 0.09 0.08 0.06 0.17 0.16 0.03 0.01 0.01 0.02 0.04 0.04 0.02
0.02 0.04 0.04 0.04 0.04 0.05 0.04 0.03 0.02 0.02 0.01 0.01 0.01 0.00 0.00 0.01 0.00 0.00 0.00 0.00 0.00 0.00 0.00 0.00 0.00 0.00 0.00 0.00 0.00 0.03 0.05 0.05 0.09 0.18 0.16 0.02 0.01 0.02 0.02 0.01 0.02 0.02 0.07
0.00 0.00 0.01 0.02 0.00 0.00 0.00 0.00 0.00 0.00 0.00 0.00 0.00 0.00 0.00 0.01 0.00 0.00 0.00 0.00 0.00 0.00 0.00 0.00 0.01 0.01 0.01 0.01 0.05 0.07 0.06 0.11 0.18 0.08 0.01 0.00 0.01 0.01 0.01 0.00 0.01 0.02 0.06
0.00 0.00 0.00 0.01 0.00 0.00 0.00 0.00 0.00 0.00 0.00 0.00 0.00 0.00 0.00 0.00 0.00 0.00 0.01 0.01 0.01 0.01 0.00 0.00 0.01 0.01 0.02 0.04 0.05 0.04 0.13 0.17 0.07 0.01 0.01 0.02 0.03 0.02 0.02 0.03 0.04 0.04 0.08

GFSMW_prec_precacc_111.txt.gz
Total_Precipitation_Accumulation
0.13 0.28 0.43 0.71 0.73 0.92 1.02 0.78 0.91 0.96 0.87 0.56 0.41 0.48 0.43 0.56 0.46 0.46 0.41 0.29 0.14 0.13 0.06 0.01 0.00 0.00 0.00 0.00 0.00 0.00 0.00 0.00 0.00 0.00 0.00 0.00 0.00 0.00 0.00 0.00 0.00 0.00 0.00
0.07 0.14 0.27 0.53 0.74 0.60 0.92 1.16 1.07 0.71 0.68 0.90 0.78 0.76 0.90 0.67 0.91 1.00 0.63 0.66 0.56 0.56 0.25 0.10 0.11 0.04 0.01 0.01 0.00 0.01 0.01 0.01 0.01 0.02 0.04 0.02 0.01 0.00 0.00 0.00 0.00 0.00 0.01
0.03 0.09 0.15 0.32 0.54 0.64 0.63 1.15 1.72 1.15 0.87 1.16 1.76 1.68 1.47 1.05 1.03 0.76 0.85 1.18 1.32 1.22 0.84 0.64 0.54 0.39 0.25 0.35 0.27 0.32 0.28 0.23 0.22 0.18 0.22 0.23 0.16 0.11 0.05 0.05 0.05 0.08 0.07
0.01 0.02 0.10 0.16 0.23 0.29 0.59 1.02 1.37 2.11 1.05 1.08 1.17 1.09 0.98 1.13 0.92 1.11 1.23 1.06 1.06 1.16 1.42 1.43 1.21 1.04 0.97 0.87 0.96 0.80 0.85 0.90 0.77 0.70 0.57 0.56 0.42 0.37 0.21 0.07 0.08 0.07 0.05
0.00 0.01 0.04 0.08 0.15 0.21 0.41 0.63 0.99 1.24 2.13 1.40 1.17 0.93 0.74 0.70 0.76 0.74 0.76 0.83 0.86 0.97 1.12 1.23 1.41 1.44 1.54 1.49 1.55 1.51 1.44 1.26 1.06 0.85 0.75 0.63 0.57 0.55 0.74 0.56 0.28 0.19 0.10
0.00 0.00 0.00 0.01 0.06 0.12 0.28 0.41 0.57 0.64 1.49 2.13 1.59 1.30 0.70 0.60 0.78 0.82 0.95 1.00 1.20 1.30 1.36 1.45 1.35 1.35 1.19 1.05 1.11 1.20 1.03 0.88 0.72 0.61 0.69 0.81 0.80 0.61 0.61 0.53 0.26 0.17 0.09
0.00 0.00 0.00 0.01 0.04 0.10 0.15 0.25 0.35 0.44 0.86 1.06 1.17 1.62 1.25 0.62 0.66 0.83 0.90 0.76 0.79 0.73 0.70 0.66 0.77 0.71 0.60 0.52 0.46 0.45 0.43 0.43 0.47 0.53 0.50 0.48 0.48 0.48 0.50 0.53 0.41 0.32 0.22
0.00 0.00 0.00 0.00 0.01 0.04 0.12 0.17 0.20 0.28 0.35 0.53 0.75 0.82 1.20 1.31 0.87 0.65 0.44 0.38 0.34 0.37 0.32 0.26 0.31 0.32 0.33 0.34 0.31 0.31 0.34 0.36 0.43 0.48 0.50 0.49 0.44 0.47 0.47 0.47 0.50 0.43 0.28
0.00 0.00 0.00 0.00 0.00 0.01 0.03 0.03 0.05 0.10 0.15 0.18 0.39 0.22 0.16 0.31 0.32 0.30 0.24 0.17 0.16 0.13 0.14 0.16 0.15 0.19 0.21 0.22 0.24 0.27 0.27 0.30 0.34 0.39 0.44 0.45 0.44 0.47 0.49 0.54 0.71 0.98 0.84
0.01 0.00 0.00 0.00 0.00 0.00 0.00 0.01 0.03 0.04 0.05 0.08 0.09 0.09 0.14 0.19 0.15 0.14 0.13 0.09 0.07 0.07 0.10 0.10 0.11 0.10 0.10 0.10 0.10 0.12 0.13 0.20 0.24 0.29 0.36 0.39 0.39 0.42 0.44 0.51 0.59 0.75 1.01
0.01 0.00 0.00 0.00 0.00 0.00 0.01 0.03 0.02 0.02 0.03 0.03 0.04 0.06 0.06 0.08 0.10 0.09 0.07 0.04 0.03 0.04 0.03 0.03 0.04 0.04 0.03 0.02 0.02 0.03 0.04 0.07 0.12 0.17 0.22 0.23 0.24 0.29 0.35 0.43 0.49 0.57 0.75
0.01 0.00 0.00 0.00 0.00 0.00 0.00 0.03 0.05 0.04 0.01 0.03 0.04 0.06 0.05 0.06 0.06 0.07 0.06 0.05 0.05 0.03 0.02 0.01 0.01 0.01 0.01 0.00 0.01 0.01 0.02 0.03 0.03 0.04 0.06 0.10 0.13 0.19 0.27 0.32 0.36 0.41 0.43
0.00 0.00 0.00 0.00 0.00 0.02 0.05 0.09 0.04 0.00 0.00 0.02 0.03 0.03 0.04 0.04 0.05 0.05 0.04 0.03 0.02 0.02 0.02 0.02 0.01 0.01 0.00 0.00 0.00 0.00 0.01 0.03 0.04 0.07 0.10 0.15 0.21 0.27 0.32 0.39 0.41 0.39 0.37
0.01 0.00 0.00 0.00 0.02 0.07 0.10 0.10 0.01 0.01 0.02 0.03 0.04 0.05 0.06 0.06 0.05 0.05 0.05 0.03 0.03 0.02 0.02 0.02 0.01 0.01 0.02 0.03 0.04 0.05 0.08 0.10 0.12 0.15 0.18 0.23 0.26 0.26 0.25 0.24 0.24 0.27 0.28
0.04 0.02 0.02 0.03 0.02 0.05 0.05 0.06 0.09 0.07 0.07 0.07 0.05 0.05 0.06 0.05 0.04 0.04 0.05 0.05 0.04 0.04 0.04 0.03 0.02 0.04 0.08 0.12 0.16 0.19 0.23 0.29 0.34 0.37 0.35 0.31 0.28 0.22 0.14 0.16 0.17 0.24 0.26
0.04 0.02 0.01 0.01 0.01 0.00 0.01 0.02 0.08 0.09 0.09 0.11 0.06 0.04 0.02 0.05 0.05 0.06 0.06 0.07 0.14 0.12 0.10 0.13 0.17 0.18 0.18 0.30 0.24 0.20 0.22 0.25 0.24 0.22 0.21 0.22 0.24 0.19 0.16 0.17 0.18 0.19 0.33
0.02 0.01 0.00 0.00 0.00 0.00 0.00 0.01 0.03 0.05 0.09 0.08 0.06 0.05 0.03 0.04 0.07 0.09 0.16 0.21 0.27 0.56 0.55 0.56 0.41 0.43 0.49 0.55 0.43 0.40 0.41 0.40 0.36 0.33 0.29 0.20 0.14 0.12 0.09 0.06 0.10 0.19 0.35
0.00 0.01 0.00 0.00 0.00 0.00 0.01 0.02 0.09 0.12 0.40 0.11 0.15 0.16 0.14 0.17 0.20 0.33 0.45 0.48 0.47 0.48 0.55 0.89 0.94 0.94 0.91 0.79 0.58 0.40 0.29 0.20 0.16 0.12 0.08 0.04 0.04 0.04 0.05 0.09 0.29 0.26 0.13
0.00 0.00 0.00 0.00 0.00 0.02 0.02 0.02 0.04 0.14 0.36 0.22 0.25 0.36 0.31 0.28 0.26 0.40 0.50 0.37 0.51 0.67 0.62 0.54 0.44 0.36 0.30 0.21 0.15 0.12 0.11 0.09 0.06 0.02 0.01 0.04 0.03 0.04 0.12 0.27 0.32 0.07 0.01
0.00 0.00 0.00 0.02 0.05 0.08 0.08 0.07 0.07 0.10 0.31 0.33 0.31 0.30 0.48 0.40 0.48 0.44 0.49 0.75 0.60 0.54 0.44 0.34 0.23 0.16 0.10 0.08 0.04 0.01 0.02 0.01 0.00 0.02 0.02 0.04 0.03 0.09 0.33 0.19 0.05 0.08 0.04
0.12 0.14 0.08 0.16 0.24 0.37 0.35 0.41 0.43 0.62 0.88 0.58 0.60 0.65 0.78 0.67 0.61 0.66 0.57 0.50 0.37 0.26 0.20 0.12 0.06 0.03 0.02 0.00 0.00 0.01 0.02 0.02 0.09 0.08 0.02 0.01 0.11 0.29 0.16 0.05 0.03 0.08 0.11
0.12 0.33 0.48 0.53 0.60 0.72 0.65 0.63 0.71 0.75 0.91 0.67 0.59 0.57 0.49 0.44 0.35 0.27 0.18 0.10 0.09 0.05 0.03 0.01 0.00 0.00 0.00 0.00 0.00 0.01 0.03 0.07 0.08 0.05 0.03 0.08 0.22 0.08 0.02 0.02 0.05 0.08 0.08
0.03 0.12 0.22 0.13 0.18 0.29 0.34 0.25 0.24 0.23 0.20 0.16 0.13 0.13 0.08 0.05 0.03 0.00 0.00 0.00 0.00 0.00 0.00 0.00 0.00 0.00 0.00 0.00 0.00 0.01 0.07 0.09 0.08 0.06 0.17 0.16 0.03 0.01 0.01 0.02 0.04 0.04 0.02
0.02 0.04 0.04 0.04 0.04 0.05 0.04 0.03 0.02 0.02 0.01 0.02 0.01 0.00 0.00 0.01 0.00 0.00 0.00 0.00 0.00 0.00 0.00 0.00 0.00 0.00 0.00 0.00 0.00 0.03 0.05 0.05 0.09 0.18 0.16 0.02 0.01 0.02 0.02 0.01 0.02 0.02 0.07
0.00 0.00 0.01 0.02 0.00 0.00 0.00 0.00 0.01 0.01 0.01 0.01 0.02 0.03 0.02 0.02 0.00 0.00 0.00 0.00 0.00 0.00 0.00 0.00 0.01 0.01 0.01 0.01 0.05 0.07 0.06 0.11 0.18 0.08 0.01 0.00 0.01 0.01 0.01 0.00 0.01 0.02 0.06
0.00 0.00 0.00 0.01 0.00 0.00 0.00 0.00 0.00 0.00 0.00 0.00 0.00 0.02 0.03 0.02 0.03 0.02 0.01 0.01 0.01 0.01 0.00 0.00 0.01 0.01 0.02 0.04 0.05 0.04 0.13 0.17 0.07 0.01 0.01 0.02 0.03 0.02 0.02 0.03 0.04 0.04 0.08

GFSMW_prec_precacc_114.txt.gz
Total_Precipitation_Accumulation
0.14 0.31 0.71 2.14 2.12 1.24 1.16 0.85 0.94 0.97 0.87 0.57 0.42 0.48 0.43 0.56 0.46 0.46 0.41 0.29 0.14 0.13 0.06 0.01 0.00 0.00 0.00 0.00 0.00 0.00 0.00 0.00 0.00 0.00 0.00 0.00 0.00 0.00 0.00 0.00 0.00 0.00 0.00
0.07 0.16 0.46 1.04 2.37 1.19 1.09 1.26 1.12 0.72 0.69 0.90 0.79 0.77 0.90 0.67 0.91 1.00 0.63 0.66 0.56 0.56 0.25 0.10 0.11 0.04 0.01 0.01 0.00 0.01 0.01 0.01 0.01 0.02 0.04 0.02 0.01 0.00 0.00 0.01 0.00 0.00 0.01
0.03 0.10 0.23 0.56 1.31 1.75 0.93 1.33 1.80 1.18 0.89 1.17 1.78 1.69 1.47 1.06 1.03 0.76 0.85 1.18 1.32 1.22 0.84 0.64 0.54 0.39 0.26 0.35 0.28 0.32 0.30 0.23 0.22 0.18 0.22 0.23 0.17 0.11 0.05 0.05 0.05 0.08 0.07
0.01 0.03 0.14 0.31 0.55 1.51 1.24 1.28 1.56 2.20 1.12 1.15 1.24 1.13 1.00 1.13 0.92 1.11 1.23 1.07 1.07 1.17 1.43 1.44 1.22 1.05 0.99 0.90 0.98 0.83 0.89 0.91 0.78 0.70 0.57 0.57 0.43 0.39 0.22 0.07 0.08 0.07 0.06
0.00 0.01 0.08 0.22 0.33 0.51 1.06 1.14 1.36 1.44 2.32 1.53 1.30 1.08 0.91 0.80 0.81 0.77 0.79 0.87 0.93 1.01 1.16 1.26 1.43 1.52 1.61 1.56 1.61 1.58 1.47 1.28 1.06 0.85 0.76 0.64 0.57 0.56 0.76 0.59 0.31 0.25 0.13
0.00 0.00 0.03 0.15 0.19 0.24 0.54 0.88 1.20 1.05 1.78 2.46 2.01 1.50 0.96 0.85 0.93 0.91 0.99 1.06 1.26 1.35 1.43 1.53 1.44 1.48 1.30 1.11 1.13 1.22 1.06 0.88 0.72 0.62 0.69 0.81 0.80 0.62 0.62 0.53 0.26 0.17 0.09
0.01 0.00 0.01 0.07 0.15 0.16 0.27 0.46 0.62 0.78 1.14 1.37 1.72 2.41 1.89 1.02 0.89 1.03 1.13 0.83 0.80 0.76 0.78 0.78 0.95 0.98 0.87 0.62 0.47 0.47 0.46 0.44 0.48 0.54 0.52 0.49 0.49 0.48 0.50 0.54 0.42 0.32 0.22
0.02 0.01 0.01 0.03 0.08 0.15 0.26 0.37 0.41 0.47 0.51 0.72 1.05 1.71 2.06 2.18 1.48 1.10 0.78 0.69 0.48 0.48 0.53 0.45 0.56 0.50 0.49 0.39 0.32 0.32 0.34 0.37 0.43 0.49 0.50 0.49 0.44 0.47 0.48 0.47 0.51 0.44 0.29
0.02 0.01 0.00 0.00 0.03 0.10 0.18 0.40 0.35 0.30 0.24 0.31 0.75 0.91 0.82 0.93 0.94 0.83 0.72 0.68 0.59 0.48 0.42 0.49 0.30 0.30 0.25 0.23 0.24 0.27 0.27 0.30 0.34 0.39 0.44 0.45 0.44 0.47 0.49 0.55 0.71 0.99 0.84
0.01 0.00 0.00 0.00 0.01 0.03 0.11 0.16 0.16 0.16 0.19 0.21 0.19 0.26 0.29 0.40 0.42 0.47 0.47 0.43 0.40 0.34 0.26 0.21 0.20 0.15 0.10 0.10 0.10 0.12 0.13 0.20 0.24 0.29 0.36 0.39 0.39 0.42 0.44 0.51 0.59 0.75 1.01
0.01 0.00 0.00 0.00 0.00 0.00 0.05 0.11 0.10 0.08 0.11 0.09 0.07 0.11 0.14 0.17 0.23 0.24 0.19 0.14 0.15 0.14 0.09 0.06 0.05 0.04 0.03 0.02 0.02 0.03 0.04 0.07 0.12 0.17 0.22 0.23 0.24 0.29 0.35 0.43 0.49 0.57 0.75
0.04 0.01 0.00 0.00 0.00 0.00 0.02 0.08 0.12 0.10 0.07 0.07 0.07 0.09 0.10 0.12 0.14 0.15 0.13 0.12 0.09 0.05 0.02 0.01 0.01 0.01 0.01 0.00 0.01 0.01 0.02 0.03 0.03 0.04 0.06 0.10 0.13 0.19 0.27 0.32 0.36 0.41 0.44
0.05 0.01 0.00 0.00 0.00 0.02 0.05 0.11 0.07 0.05 0.05 0.06 0.05 0.06 0.06 0.09 0.11 0.09 0.07 0.05 0.03 0.02 0.02 0.02 0.01 0.01 0.00 0.00 0.00 0.00 0.01 0.03 0.04 0.07 0.10 0.15 0.21 0.27 0.32 0.39 0.41 0.39 0.37
0.02 0.01 0.00 0.00 0.02 0.07 0.10 0.11 0.04 0.05 0.07 0.08 0.07 0.07 0.07 0.08 0.09 0.09 0.08 0.04 0.03 0.02 0.02 0.02 0.01 0.01 0.02 0.03 0.04 0.05 0.08 0.10 0.12 0.15 0.18 0.23 0.26 0.26 0.25 0.24 0.24 0.27 0.28
0.04 0.02 0.02 0.03 0.02 0.05 0.05 0.06 0.09 0.08 0.09 0.10 0.08 0.07 0.07 0.07 0.07 0.07 0.07 0.05 0.04 0.04 0.04 0.03 0.02 0.04 0.08 0.12 0.16 0.19 0.23 0.29 0.34 0.37 0.35 0.31 0.28 0.22 0.14 0.16 0.17 0.24 0.26
0.04 0.02 0.01 0.01 0.01 0.00 0.01 0.02 0.08 0.09 0.10 0.12 0.08 0.04 0.02 0.05 0.05 0.07 0.07 0.07 0.14 0.12 0.10 0.13 0.17 0.18 0.18 0.30 0.24 0.20 0.22 0.25 0.24 0.22 0.21 0.22 0.24 0.19 0.16 0.17 0.18 0.19 0.33
0.02 0.01 0.00 0.00 0.00 0.00 0.00 0.01 0.03 0.05 0.09 0.08 0.06 0.05 0.03 0.04 0.07 0.10 0.16 0.21 0.27 0.56 0.55 0.56 0.41 0.43 0.49 0.55 0.43 0.40 0.41 0.40 0.36 0.33 0.29 0.20 0.14 0.12 0.09 0.06 0.10 0.19 0.35
0.00 0.01 0.00 0.00 0.00 0.00 0.01 0.02 0.09 0.12 0.40 0.11 0.15 0.16 0.14 0.17 0.20 0.33 0.45 0.48 0.47 0.48 0.55 0.89 0.94 0.94 0.91 0.79 0.58 0.40 0.29 0.20 0.16 0.12 0.08 0.04 0.04 0.04 0.05 0.09 0.29 0.26 0.13
0.00 0.00 0.00 0.00 0.00 0.02 0.02 0.02 0.04 0.14 0.36 0.22 0.25 0.36 0.31 0.28 0.26 0.40 0.50 0.37 0.51 0.67 0.62 0.54 0.44 0.36 0.30 0.21 0.15 0.12 0.11 0.09 0.06 0.02 0.01 0.04 0.03 0.04 0.12 0.27 0.32 0.07 0.01
0.00 0.00 0.00 0.02 0.05 0.08 0.08 0.07 0.07 0.10 0.31 0.33 0.31 0.30 0.48 0.40 0.48 0.44 0.49 0.75 0.60 0.54 0.44 0.34 0.23 0.16 0.10 0.08 0.04 0.01 0.02 0.01 0.00 0.02 0.02 0.04 0.03 0.09 0.33 0.19 0.05 0.08 0.04
0.12 0.14 0.08 0.16 0.24 0.37 0.35 0.41 0.43 0.62 0.88 0.58 0.60 0.65 0.78 0.67 0.61 0.66 0.57 0.50 0.37 0.26 0.20 0.12 0.06 0.03 0.02 0.00 0.00 0.01 0.02 0.02 0.09 0.08 0.02 0.01 0.11 0.29 0.16 0.05 0.03 0.08 0.11
0.12 0.33 0.48 0.53 0.60 0.72 0.65 0.63 0.71 0.75 0.91 0.67 0.59 0.57 0.49 0.44 0.35 0.27 0.18 0.10 0.09 0.05 0.03 0.01 0.00 0.00 0.00 0.00 0.00 0.01 0.03 0.07 0.08 0.05 0.03 0.08 0.22 0.08 0.02 0.02 0.05 0.08 0.08
0.03 0.12 0.22 0.13 0.18 0.29 0.34 0.25 0.24 0.23 0.20 0.16 0.13 0.13 0.08 0.05 0.03 0.00 0.00 0.00 0.00 0.00 0.00 0.00 0.00 0.00 0.00 0.00 0.00 0.01 0.07 0.10 0.08 0.06 0.17 0.16 0.03 0.01 0.01 0.02 0.04 0.04 0.02
0.02 0.04 0.04 0.04 0.04 0.05 0.04 0.03 0.02 0.02 0.01 0.02 0.01 0.00 0.00 0.01 0.00 0.00 0.00 0.00 0.00 0.00 0.00 0.00 0.00 0.00 0.00 0.00 0.00 0.03 0.05 0.05 0.09 0.18 0.16 0.02 0.01 0.02 0.02 0.01 0.02 0.02 0.07
0.00 0.00 0.01 0.02 0.00 0.00 0.00 0.00 0.01 0.03 0.05 0.05 0.07 0.09 0.08 0.06 0.02 0.01 0.01 0.00 0.00 0.00 0.00 0.00 0.01 0.01 0.01 0.01 0.05 0.07 0.06 0.11 0.18 0.08 0.01 0.00 0.01 0.01 0.01 0.00 0.01 0.02 0.06
0.00 0.00 0.00 0.01 0.00 0.00 0.00 0.00 0.00 0.00 0.00 0.01 0.01 0.03 0.08 0.15 0.19 0.16 0.12 0.10 0.06 0.04 0.02 0.02 0.02 0.02 0.03 0.04 0.05 0.04 0.13 0.17 0.07 0.01 0.01 0.02 0.03 0.02 0.02 0.03 0.04 0.04 0.08

GFSMW_prec_precacc_120.txt.gz
Total_Precipitation_Accumulation
0.14 0.31 0.73 2.22 2.50 1.74 1.93 2.52 2.25 1.45 1.15 0.65 0.45 0.50 0.44 0.56 0.46 0.46 0.41 0.29 0.14 0.13 0.06 0.01 0.00 0.00 0.00 0.00 0.00 0.00 0.00 0.00 0.00 0.00 0.00 0.00 0.00 0.00 0.00 0.00 0.00 0.00 0.00
0.07 0.17 0.47 1.20 2.65 1.81 1.56 2.36 2.69 1.30 0.95 0.94 0.80 0.78 0.90 0.67 0.91 1.00 0.63 0.66 0.56 0.56 0.25 0.10 0.11 0.04 0.01 0.01 0.00 0.01 0.01 0.01 0.01 0.02 0.04 0.03 0.01 0.00 0.00 0.01 0.00 0.00 0.01
0.03 0.11 0.23 0.68 1.54 2.56 1.51 2.00 3.09 2.20 1.20 1.24 1.83 1.76 1.56 1.08 1.04 0.77 0.85 1.18 1.32 1.22 0.84 0.64 0.54 0.39 0.26 0.35 0.28 0.32 0.30 0.23 0.22 0.18 0.23 0.23 0.19 0.14 0.05 0.05 0.05 0.08 0.07
0.02 0.03 0.14 0.38 0.78 2.02 1.91 1.84 2.63 3.52 1.66 1.34 1.32 1.17 1.02 1.15 0.92 1.11 1.23 1.07 1.07 1.17 1.43 1.44 1.22 1.05 0.99 0.90 0.98 0.83 0.91 0.98 0.85 0.72 0.57 0.57 0.45 0.41 0.23 0.07 0.08 0.07 0.06
0.01 0.01 0.08 0.26 0.55 0.96 2.00 1.93 2.58 2.71 3.40 1.93 1.49 1.15 0.93 0.83 0.82 0.78 0.79 0.87 0.93 1.01 1.17 1.27 1.44 1.52 1.62 1.57 1.62 1.60 1.48 1.30 1.07 0.85 0.77 0.64 0.57 0.57 0.76 0.59 0.31 0.25 0.13
0.01 0.00 0.03 0.19 0.37 0.62 1.41 2.07 2.60 2.15 3.40 3.28 2.58 1.74 1.05 0.97 0.99 0.92 1.00 1.07 1.27 1.38 1.45 1.56 1.46 1.50 1.32 1.16 1.23 1.34 1.10 0.89 0.72 0.63 0.71 0.83 0.82 0.62 0.62 0.53 0.26 0.17 0.09
0.02 0.00 0.01 0.10 0.23 0.47 0.90 1.32 2.72 2.38 2.85 2.67 2.53 2.93 2.30 1.37 1.11 1.15 1.24 0.88 0.83 0.78 0.81 0.81 0.98 1.05 0.95 0.72 0.61 0.57 0.50 0.45 0.49 0.56 0.54 0.53 0.52 0.50 0.50 0.54 0.42 0.32 0.22
0.02 0.01 0.01 0.07 0.16 0.30 0.70 0.85 1.28 2.01 2.13 2.18 2.39 2.51 3.03 2.85 1.86 1.38 0.97 0.89 0.56 0.49 0.53 0.45 0.62 0.70 0.65 0.59 0.42 0.35 0.38 0.40 0.46 0.50 0.52 0.51 0.44 0.47 0.48 0.47 0.52 0.44 0.29
0.02 0.02 0.01 0.08 0.10 0.24 0.34 0.68 0.80 0.91 1.53 1.29 1.91 1.65 1.51 1.52 1.56 1.42 0.97 0.85 0.80 0.62 0.46 0.53 0.44 0.47 0.47 0.41 0.36 0.34 0.32 0.33 0.36 0.40 0.45 0.45 0.44 0.47 0.49 0.55 0.72 1.00 0.84
0.03 0.03 0.03 0.14 0.08 0.14 0.25 0.29 0.38 0.56 0.82 0.96 0.81 0.73 0.84 0.86 0.89 1.08 1.00 0.74 0.65 0.64 0.56 0.43 0.39 0.33 0.37 0.45 0.27 0.20 0.19 0.21 0.24 0.29 0.36 0.39 0.39 0.42 0.44 0.51 0.59 0.75 1.01
0.08 0.10 0.19 0.17 0.05 0.06 0.17 0.20 0.21 0.35 0.76 0.60 0.46 0.47 0.43 0.48 0.49 0.56 0.55 0.55 0.50 0.38 0.41 0.38 0.32 0.23 0.17 0.18 0.27 0.14 0.08 0.08 0.12 0.17 0.22 0.23 0.24 0.29 0.35 0.43 0.49 0.57 0.76
0.27 0.31 0.33 0.16 0.09 0.07 0.10 0.14 0.22 0.35 0.97 0.65 0.41 0.33 0.27 0.29 0.29 0.25 0.30 0.34 0.34 0.30 0.24 0.24 0.29 0.22 0.15 0.11 0.12 0.11 0.05 0.03 0.03 0.04 0.06 0.10 0.13 0.19 0.27 0.32 0.36 0.41 0.44
0.28 0.18 0.17 0.07 0.05 0.08 0.10 0.15 0.15 0.20 0.41 0.49 0.33 0.18 0.11 0.14 0.17 0.14 0.15 0.17 0.18 0.20 0.16 0.12 0.13 0.12 0.09 0.07 0.05 0.05 0.03 0.03 0.04 0.07 0.10 0.15 0.21 0.27 0.32 0.39 0.41 0.39 0.37
0.28 0.14 0.12 0.03 0.03 0.10 0.15 0.14 0.08 0.10 0.15 0.21 0.20 0.17 0.11 0.14 0.16 0.16 0.17 0.14 0.13 0.11 0.08 0.06 0.06 0.06 0.05 0.05 0.05 0.05 0.08 0.10 0.12 0.15 0.18 0.23 0.26 0.26 0.25 0.24 0.24 0.27 0.28
0.19 0.18 0.12 0.08 0.07 0.12 0.10 0.11 0.12 0.10 0.11 0.12 0.11 0.11 0.10 0.11 0.14 0.15 0.16 0.14 0.12 0.10 0.08 0.06 0.05 0.06 0.09 0.13 0.16 0.19 0.23 0.29 0.34 0.37 0.35 0.31 0.28 0.22 0.14 0.16 0.17 0.24 0.26
0.07 0.07 0.08 0.06 0.04 0.05 0.06 0.05 0.10 0.11 0.11 0.13 0.10 0.07 0.05 0.08 0.09 0.11 0.13 0.13 0.20 0.18 0.16 0.16 0.19 0.19 0.18 0.30 0.24 0.20 0.22 0.25 0.24 0.22 0.21 0.22 0.24 0.19 0.16 0.17 0.18 0.19 0.33
0.02 0.02 0.01 0.01 0.01 0.01 0.01 0.02 0.05 0.06 0.11 0.10 0.08 0.07 0.05 0.07 0.10 0.13 0.19 0.25 0.33 0.62 0.62 0.61 0.42 0.44 0.50 0.55 0.43 0.40 0.41 0.40 0.36 0.33 0.29 0.20 0.14 0.12 0.09 0.06 0.10 0.19 0.35
0.00 0.01 0.00 0.00 0.00 0.00 0.01 0.02 0.09 0.13 0.41 0.13 0.20 0.23 0.18 0.20 0.22 0.35 0.47 0.50 0.48 0.49 0.58 0.91 0.95 0.95 0.91 0.79 0.58 0.40 0.29 0.20 0.16 0.12 0.08 0.04 0.04 0.04 0.05 0.09 0.29 0.26 0.13
0.00 0.00 0.00 0.00 0.00 0.02 0.02 0.02 0.04 0.14 0.36 0.22 0.25 0.38 0.34 0.31 0.28 0.41 0.51 0.38 0.52 0.68 0.62 0.54 0.44 0.36 0.30 0.21 0.15 0.12 0.11 0.09 0.06 0.02 0.01 0.04 0.03 0.04 0.12 0.27 0.32 0.07 0.01
0.00 0.00 0.00 0.02 0.05 0.08 0.08 0.07 0.07 0.10 0.31 0.33 0.31 0.31 0.49 0.41 0.50 0.46 0.51 0.76 0.60 0.55 0.44 0.34 0.23 0.16 0.10 0.08 0.04 0.01 0.02 0.01 0.00 0.02 0.02 0.04 0.03 0.09 0.33 0.19 0.05 0.08 0.04
0.12 0.14 0.08 0.16 0.24 0.37 0.35 0.41 0.43 0.62 0.88 0.58 0.60 0.65 0.78 0.67 0.61 0.66 0.57 0.50 0.37 0.26 0.20 0.12 0.06 0.03 0.02 0.00 0.00 0.01 0.02 0.02 0.09 0.08 0.02 0.01 0.11 0.29 0.16 0.05 0.03 0.08 0.11
0.12 0.33 0.48 0.53 0.60 0.72 0.65 0.63 0.71 0.75 0.91 0.67 0.59 0.57 0.49 0.44 0.35 0.27 0.18 0.10 0.09 0.05 0.03 0.01 0.00 0.00 0.00 0.00 0.00 0.01 0.03 0.07 0.08 0.05 0.03 0.08 0.22 0.08 0.02 0.02 0.05 0.08 0.08
0.03 0.12 0.22 0.13 0.18 0.29 0.34 0.25 0.24 0.23 0.20 0.16 0.13 0.13 0.08 0.05 0.03 0.00 0.00 0.00 0.00 0.00 0.00 0.00 0.00 0.00 0.00 0.00 0.00 0.01 0.07 0.10 0.08 0.06 0.17 0.16 0.03 0.01 0.01 0.02 0.04 0.04 0.02
0.02 0.04 0.04 0.04 0.04 0.05 0.04 0.03 0.02 0.02 0.02 0.02 0.02 0.00 0.00 0.01 0.00 0.00 0.00 0.00 0.00 0.00 0.00 0.00 0.00 0.00 0.00 0.00 0.00 0.03 0.05 0.05 0.09 0.18 0.16 0.02 0.01 0.02 0.02 0.01 0.02 0.02 0.07
0.00 0.00 0.01 0.02 0.00 0.00 0.00 0.00 0.01 0.03 0.06 0.09 0.13 0.16 0.14 0.12 0.06 0.03 0.03 0.02 0.01 0.02 0.01 0.01 0.01 0.01 0.01 0.01 0.05 0.07 0.06 0.11 0.18 0.08 0.01 0.00 0.01 0.01 0.01 0.00 0.01 0.02 0.06
0.00 0.00 0.00 0.01 0.00 0.00 0.00 0.00 0.00 0.00 0.00 0.01 0.01 0.04 0.11 0.23 0.32 0.35 0.38 0.39 0.35 0.34 0.27 0.22 0.18 0.16 0.16 0.13 0.13 0.10 0.18 0.20 0.08 0.01 0.01 0.02 0.03 0.02 0.02 0.03 0.04 0.04 0.08

GFSMW_prec_precacc_123.txt.gz
Total_Precipitation_Accumulation
0.14 0.31 0.73 2.22 2.50 1.74 1.93 2.53 2.34 2.00 1.28 0.74 0.63 0.75 0.87 0.67 0.47 0.46 0.41 0.29 0.14 0.13 0.06 0.01 0.00 0.00 0.00 0.00 0.00 0.00 0.00 0.00 0.00 0.00 0.00 0.00 0.00 0.00 0.00 0.00 0.00 0.00 0.00
0.07 0.17 0.47 1.20 2.66 1.81 1.56 2.36 2.77 2.01 1.48 1.03 0.85 0.85 0.97 0.70 0.91 1.00 0.63 0.66 0.56 0.56 0.25 0.10 0.11 0.04 0.01 0.01 0.00 0.01 0.01 0.01 0.01 0.02 0.04 0.03 0.01 0.00 0.00 0.01 0.00 0.00 0.01
0.04 0.12 0.24 0.68 1.55 2.58 1.52 2.00 3.12 2.62 1.98 1.60 1.86 1.78 1.60 1.11 1.04 0.77 0.85 1.18 1.32 1.22 0.84 0.64 0.54 0.39 0.26 0.35 0.28 0.32 0.30 0.23 0.22 0.18 0.23 0.23 0.19 0.14 0.05 0.05 0.05 0.08 0.07
0.03 0.06 0.15 0.38 0.78 2.03 1.93 1.85 2.66 3.88 2.35 2.03 1.42 1.18 1.04 1.15 0.92 1.11 1.23 1.07 1.07 1.17 1.43 1.44 1.22 1.05 0.99 0.90 0.98 0.83 0.91 0.98 0.85 0.72 0.57 0.57 0.45 0.41 0.23 0.07 0.08 0.07 0.06
0.01 0.01 0.08 0.26 0.56 0.98 2.01 1.94 2.62 2.93 4.31 2.78 1.81 1.20 0.94 0.83 0.82 0.78 0.79 0.87 0.93 1.01 1.17 1.27 1.44 1.52 1.62 1.57 1.62 1.60 1.48 1.30 1.07 0.85 0.77 0.64 0.57 0.57 0.76 0.59 0.31 0.25 0.13
0.03 0.00 0.03 0.19 0.39 0.68 1.45 2.08 2.62 2.31 4.02 4.40 3.24 1.96 1.09 0.98 0.99 0.92 1.01 1.07 1.28 1.38 1.46 1.56 1.46 1.50 1.32 1.16 1.23 1.34 1.10 0.89 0.72 0.63 0.71 0.83 0.82 0.62 0.62 0.53 0.26 0.17 0.09
0.07 0.01 0.01 0.10 0.27 0.52 0.94 1.34 2.76 2.44 3.11 3.50 3.75 3.43 2.57 1.48 1.15 1.17 1.24 0.88 0.83 0.78 0.82 0.82 0.98 1.05 0.95 0.72 0.61 0.58 0.51 0.46 0.49 0.56 0.54 0.53 0.52 0.50 0.50 0.54 0.42 0.32 0.22
0.04 0.02 0.01 0.07 0.19 0.37 0.74 0.86 1.30 2.03 2.18 2.51 3.50 3.39 3.64 3.19 2.02 1.48 0.99 0.89 0.56 0.49 0.53 0.45 0.62 0.70 0.65 0.60 0.42 0.36 0.38 0.40 0.46 0.50 0.52 0.51 0.44 0.47 0.48 0.47 0.52 0.44 0.29
0.02 0.02 0.01 0.09 0.18 0.32 0.39 0.71 0.84 0.93 1.57 1.41 2.38 2.69 2.21 1.97 1.85 1.61 1.11 0.88 0.80 0.62 0.46 0.53 0.44 0.47 0.47 0.41 0.37 0.35 0.32 0.33 0.36 0.40 0.45 0.45 0.44 0.47 0.49 0.55 0.72 1.00 0.84
0.03 0.03 0.04 0.19 0.21 0.23 0.32 0.38 0.45 0.60 0.90 1.09 1.23 1.55 1.57 1.56 1.29 1.32 1.21 0.84 0.68 0.66 0.57 0.43 0.39 0.33 0.37 0.45 0.28 0.21 0.19 0.22 0.24 0.29 0.36 0.39 0.39 0.42 0.44 0.51 0.59 0.75 1.01
0.09 0.10 0.28 0.39 0.24 0.12 0.21 0.22 0.23 0.36 0.79 0.71 0.84 0.91 1.05 1.12 0.89 0.90 0.94 0.75 0.58 0.43 0.44 0.39 0.33 0.23 0.17 0.18 0.27 0.14 0.08 0.09 0.13 0.17 0.22 0.23 0.24 0.29 0.35 0.43 0.49 0.57 0.76
0.34 0.55 0.74 0.50 0.21 0.10 0.14 0.17 0.25 0.37 1.00 0.78 0.64 0.58 0.49 0.50 0.49 0.47 0.60 0.95 0.50 0.35 0.30 0.27 0.31 0.23 0.15 0.11 0.12 0.11 0.06 0.05 0.04 0.05 0.08 0.10 0.13 0.19 0.27 0.32 0.36 0.41 0.44
0.73 0.65 0.54 0.35 0.20 0.20 0.22 0.24 0.20 0.24 0.83 0.89 0.59 0.35 0.28 0.30 0.34 0.29 0.27 0.47 0.60 0.39 0.30 0.25 0.22 0.16 0.12 0.09 0.06 0.08 0.09 0.08 0.09 0.10 0.12 0.15 0.21 0.27 0.32 0.39 0.41 0.39 0.37
0.76 0.54 0.45 0.33 0.20 0.20 0.28 0.18 0.10 0.15 0.30 0.50 0.36 0.23 0.20 0.23 0.21 0.19 0.22 0.20 0.22 0.28 0.33 0.34 0.26 0.19 0.14 0.13 0.12 0.10 0.14 0.16 0.15 0.17 0.20 0.23 0.26 0.26 0.25 0.24 0.24 0.27 0.28
0.61 0.53 0.34 0.25 0.18 0.19 0.13 0.12 0.14 0.13 0.16 0.22 0.21 0.16 0.12 0.13 0.16 0.16 0.17 0.17 0.15 0.14 0.18 0.19 0.20 0.28 0.31 0.25 0.24 0.26 0.28 0.34 0.40 0.37 0.35 0.31 0.28 0.22 0.14 0.16 0.17 0.24 0.26
0.35 0.13 0.11 0.10 0.08 0.08 0.09 0.07 0.14 0.11 0.13 0.18 0.14 0.08 0.09 0.12 0.13 0.14 0.14 0.15 0.21 0.19 0.16 0.17 0.21 0.21 0.21 0.34 0.29 0.24 0.24 0.27 0.25 0.22 0.21 0.22 0.24 0.19 0.16 0.17 0.18 0.19 0.33
0.13 0.09 0.07 0.07 0.07 0.05 0.05 0.05 0.06 0.07 0.11 0.10 0.08 0.08 0.07 0.09 0.12 0.15 0.20 0.29 0.39 0.71 0.68 0.69 0.52 0.54 0.55 0.58 0.47 0.44 0.42 0.40 0.36 0.33 0.29 0.20 0.14 0.12 0.09 0.06 0.10 0.19 0.35
0.01 0.02 0.02 0.03 0.06 0.04 0.03 0.04 0.10 0.13 0.41 0.13 0.20 0.23 0.19 0.20 0.22 0.35 0.47 0.51 0.49 0.51 0.61 0.99 1.13 1.14 0.98 0.81 0.58 0.40 0.29 0.20 0.16 0.12 0.08 0.04 0.04 0.04 0.05 0.09 0.29 0.26 0.13
0.00 0.00 0.00 0.00 0.00 0.02 0.02 0.02 0.04 0.14 0.36 0.22 0.25 0.38 0.35 0.32 0.28 0.42 0.51 0.39 0.52 0.69 0.63 0.56 0.48 0.42 0.31 0.23 0.16 0.12 0.11 0.09 0.06 0.02 0.01 0.04 0.03 0.04 0.12 0.27 0.32 0.07 0.01
0.00 0.00 0.00 0.02 0.05 0.08 0.08 0.07 0.07 0.10 0.31 0.33 0.31 0.31 0.49 0.41 0.51 0.47 0.51 0.76 0.60 0.55 0.45 0.35 0.24 0.20 0.14 0.10 0.08 0.03 0.02 0.01 0.00 0.02 0.02 0.04 0.03 0.09 0.33 0.19 0.05 0.08 0.04
0.12 0.14 0.08 0.16 0.24 0.37 0.35 0.41 0.43 0.62 0.88 0.58 0.60 0.65 0.78 0.67 0.62 0.67 0.58 0.50 0.37 0.27 0.20 0.13 0.07 0.04 0.02 0.00 0.00 0.01 0.02 0.02 0.09 0.08 0.02 0.01 0.11 0.29 0.16 0.05 0.03 0.08 0.11
0.12 0.33 0.48 0.53 0.60 0.72 0.65 0.63 0.71 0.75 0.91 0.67 0.59 0.57 0.49 0.44 0.35 0.27 0.18 0.10 0.09 0.06 0.04 0.02 0.01 0.01 0.01 0.00 0.00 0.01 0.03 0.07 0.08 0.05 0.03 0.08 0.22 0.08 0.02 0.02 0.05 0.08 0.08
0.03 0.12 0.22 0.13 0.18 0.29 0.34 0.25 0.24 0.23 0.20 0.16 0.13 0.13 0.08 0.05 0.03 0.00 0.00 0.00 0.00 0.00 0.00 0.00 0.00 0.00 0.00 0.00 0.00 0.01 0.07 0.10 0.08 0.06 0.17 0.16 0.03 0.01 0.01 0.02 0.04 0.04 0.02
0.02 0.04 0.04 0.04 0.04 0.05 0.04 0.03 0.02 0.02 0.02 0.02 0.02 0.00 0.00 0.01 0.00 0.00 0.00 0.00 0.00 0.00 0.00 0.00 0.00 0.00 0.00 0.00 0.00 0.03 0.05 0.05 0.09 0.18 0.16 0.02 0.01 0.02 0.02 0.01 0.02 0.02 0.07
0.00 0.00 0.01 0.02 0.00 0.00 0.00 0.00 0.01 0.03 0.06 0.09 0.13 0.16 0.14 0.12 0.06 0.03 0.03 0.02 0.01 0.02 0.01 0.01 0.02 0.02 0.03 0.02 0.06 0.08 0.06 0.11 0.19 0.08 0.01 0.00 0.01 0.01 0.01 0.00 0.01 0.02 0.06
0.00 0.00 0.00 0.01 0.00 0.00 0.00 0.00 0.00 0.00 0.00 0.01 0.01 0.04 0.11 0.23 0.32 0.35 0.38 0.40 0.38 0.37 0.29 0.25 0.22 0.20 0.24 0.23 0.24 0.21 0.27 0.28 0.16 0.07 0.03 0.03 0.03 0.03 0.03 0.04 0.04 0.04 0.08

GFSMW_prec_precacc_126.txt.gz
Total_Precipitation_Accumulation
0.14 0.31 0.73 2.22 2.50 1.74 1.93 2.53 2.34 2.00 1.28 0.75 0.63 0.77 1.06 1.14 0.92 0.69 0.51 0.32 0.18 0.13 0.06 0.01 0.00 0.00 0.00 0.00 0.00 0.00 0.00 0.00 0.00 0.00 0.00 0.00 0.00 0.00 0.00 0.00 0.00 0.00 0.00
0.07 0.17 0.47 1.20 2.66 1.81 1.56 2.36 2.77 2.01 1.48 1.04 0.86 0.89 1.06 0.96 1.12 1.20 0.81 0.70 0.59 0.57 0.25 0.10 0.11 0.04 0.01 0.01 0.00 0.01 0.01 0.01 0.01 0.02 0.04 0.03 0.01 0.00 0.00 0.01 0.00 0.00 0.01
0.04 0.12 0.24 0.68 1.55 2.58 1.53 2.00 3.12 2.62 1.98 1.65 1.90 1.85 1.75 1.28 1.22 1.01 1.06 1.27 1.34 1.22 0.84 0.64 0.54 0.39 0.26 0.35 0.28 0.32 0.30 0.23 0.22 0.18 0.23 0.23 0.19 0.14 0.05 0.05 0.05 0.08 0.07
0.03 0.06 0.15 0.38 0.78 2.03 1.93 1.86 2.68 3.89 2.35 2.14 1.75 1.26 1.21 1.36 1.04 1.25 1.42 1.17 1.09 1.18 1.43 1.44 1.22 1.05 0.99 0.90 0.98 0.83 0.91 0.98 0.85 0.72 0.57 0.57 0.45 0.41 0.23 0.07 0.08 0.07 0.06
0.01 0.01 0.08 0.26 0.56 0.98 2.02 1.96 2.64 2.95 4.33 2.94 2.29 1.42 1.01 0.96 0.91 0.84 0.85 0.94 0.95 1.01 1.17 1.27 1.44 1.52 1.62 1.57 1.62 1.60 1.48 1.30 1.07 0.85 0.77 0.64 0.57 0.57 0.76 0.59 0.31 0.25 0.13
0.03 0.00 0.03 0.19 0.39 0.68 1.47 2.11 2.64 2.34 4.06 4.47 3.78 2.34 1.30 1.08 1.23 1.00 1.07 1.11 1.30 1.38 1.46 1.56 1.46 1.50 1.32 1.16 1.23 1.34 1.10 0.89 0.72 0.63 0.71 0.83 0.82 0.62 0.62 0.53 0.26 0.17 0.09
0.07 0.01 0.01 0.10 0.28 0.54 0.96 1.38 2.79 2.47 3.14 3.52 4.20 3.93 3.03 1.66 1.25 1.25 1.29 0.90 0.84 0.79 0.82 0.82 0.98 1.05 0.95 0.72 0.61 0.58 0.51 0.46 0.49 0.56 0.54 0.53 0.52 0.50 0.50 0.54 0.42 0.32 0.22
0.07 0.07 0.04 0.09 0.20 0.40 0.80 0.94 1.36 2.07 2.22 2.53 3.88 4.13 4.38 3.62 2.18 1.54 1.02 0.90 0.56 0.49 0.53 0.45 0.62 0.70 0.65 0.60 0.42 0.36 0.38 0.40 0.46 0.51 0.52 0.51 0.44 0.47 0.48 0.47 0.52 0.44 0.29
0.05 0.06 0.07 0.11 0.18 0.38 0.52 0.83 0.94 1.00 1.61 1.44 2.57 3.10 2.93 2.52 2.12 1.73 1.13 0.89 0.80 0.62 0.46 0.53 0.44 0.47 0.47 0.42 0.37 0.35 0.33 0.33 0.38 0.41 0.45 0.45 0.44 0.47 0.49 0.55 0.72 1.00 0.84
0.03 0.03 0.04 0.19 0.22 0.36 0.51 0.61 0.68 0.74 0.95 1.10 1.29 1.65 1.88 2.02 1.54 1.49 1.25 0.84 0.68 0.66 0.57 0.43 0.40 0.34 0.38 0.46 0.30 0.21 0.20 0.22 0.25 0.29 0.36 0.39 0.39 0.42 0.44 0.51 0.59 0.75 1.01
0.09 0.10 0.28 0.39 0.38 0.70 0.49 0.43 0.36 0.44 0.82 0.72 0.87 1.01 1.28 1.41 1.16 1.10 1.04 0.78 0.62 0.47 0.47 0.44 0.36 0.25 0.18 0.19 0.29 0.15 0.10 0.12 0.14 0.17 0.22 0.23 0.24 0.29 0.35 0.43 0.49 0.57 0.76
0.34 0.55 0.76 0.79 1.15 0.81 0.38 0.26 0.30 0.41 1.04 0.82 0.69 0.69 0.76 0.88 0.76 0.75 0.79 1.09 0.62 0.45 0.37 0.33 0.39 0.32 0.23 0.17 0.14 0.12 0.07 0.05 0.04 0.05 0.09 0.11 0.14 0.19 0.27 0.32 0.36 0.41 0.44
0.85 0.93 1.21 1.31 0.61 0.41 0.29 0.29 0.26 0.29 0.89 0.97 0.71 0.52 0.43 0.66 0.57 0.58 0.63 0.89 0.90 0.58 0.42 0.35 0.29 0.22 0.18 0.16 0.12 0.11 0.11 0.08 0.09 0.11 0.13 0.17 0.22 0.28 0.32 0.39 0.41 0.39 0.37
1.31 1.21 0.96 0.53 0.36 0.41 0.52 0.38 0.27 0.32 0.39 0.61 0.52 0.42 0.36 0.47 0.53 0.46 0.59 0.62 0.77 0.68 0.59 0.51 0.38 0.29 0.23 0.22 0.19 0.14 0.15 0.17 0.17 0.19 0.22 0.26 0.29 0.28 0.26 0.24 0.24 0.27 0.28
1.44 1.29 0.97 0.73 0.58 0.44 0.28 0.28 0.38 0.25 0.27 0.30 0.25 0.19 0.19 0.28 0.30 0.31 0.33 0.37 0.46 0.45 0.50 0.62 0.65 0.54 0.52 0.42 0.35 0.32 0.33 0.39 0.48 0.45 0.38 0.33 0.31 0.24 0.14 0.16 0.17 0.24 0.26
0.93 0.56 0.40 0.39 0.25 0.14 0.13 0.13 0.20 0.21 0.31 0.34 0.23 0.11 0.10 0.13 0.16 0.17 0.17 0.20 0.29 0.28 0.30 0.42 0.58 0.65 0.54 0.76 0.72 0.54 0.41 0.39 0.40 0.41 0.33 0.27 0.26 0.20 0.16 0.17 0.18 0.19 0.33
0.35 0.31 0.25 0.19 0.14 0.09 0.08 0.08 0.07 0.08 0.15 0.14 0.11 0.12 0.17 0.16 0.22 0.18 0.22 0.33 0.45 0.77 0.77 0.84 0.69 0.69 0.69 0.77 0.73 0.80 0.73 0.62 0.50 0.42 0.36 0.26 0.15 0.12 0.09 0.06 0.10 0.19 0.35
0.14 0.18 0.17 0.14 0.15 0.10 0.07 0.06 0.10 0.13 0.41 0.13 0.20 0.23 0.20 0.20 0.22 0.35 0.48 0.52 0.52 0.56 0.68 1.06 1.20 1.27 1.27 1.08 0.82 0.71 0.63 0.50 0.36 0.27 0.17 0.06 0.04 0.04 0.05 0.09 0.29 0.26 0.13
0.01 0.00 0.00 0.00 0.00 0.02 0.02 0.02 0.04 0.14 0.36 0.22 0.25 0.38 0.35 0.32 0.28 0.42 0.51 0.39 0.53 0.70 0.63 0.57 0.51 0.45 0.37 0.33 0.28 0.22 0.20 0.20 0.13 0.05 0.01 0.04 0.03 0.04 0.12 0.27 0.32 0.07 0.01
0.00 0.00 0.00 0.02 0.05 0.08 0.08 0.07 0.07 0.10 0.31 0.33 0.31 0.31 0.49 0.41 0.51 0.47 0.51 0.76 0.61 0.56 0.45 0.36 0.25 0.25 0.30 0.31 0.26 0.21 0.14 0.07 0.03 0.05 0.04 0.05 0.03 0.09 0.33 0.19 0.05 0.08 0.04
0.12 0.14 0.08 0.16 0.24 0.37 0.35 0.41 0.43 0.62 0.88 0.58 0.60 0.65 0.78 0.67 0.62 0.68 0.59 0.51 0.37 0.27 0.20 0.13 0.07 0.04 0.05 0.07 0.09 0.09 0.09 0.07 0.13 0.09 0.03 0.02 0.12 0.29 0.16 0.05 0.03 0.08 0.11
0.12 0.33 0.48 0.53 0.60 0.72 0.65 0.63 0.71 0.75 0.91 0.67 0.59 0.57 0.49 0.44 0.35 0.27 0.18 0.10 0.09 0.06 0.04 0.03 0.03 0.02 0.02 0.03 0.04 0.03 0.04 0.07 0.08 0.05 0.03 0.08 0.22 0.08 0.02 0.02 0.05 0.08 0.08
0.03 0.12 0.22 0.13 0.18 0.29 0.34 0.25 0.24 0.23 0.20 0.16 0.13 0.13 0.08 0.05 0.03 0.00 0.00 0.00 0.00 0.00 0.00 0.00 0.00 0.00 0.00 0.00 0.02 0.04 0.12 0.16 0.13 0.10 0.20 0.17 0.03 0.01 0.01 0.02 0.04 0.04 0.02
0.02 0.04 0.04 0.04 0.04 0.05 0.04 0.03 0.02 0.02 0.02 0.02 0.02 0.00 0.00 0.01 0.00 0.00 0.00 0.00 0.00 0.00 0.00 0.00 0.00 0.00 0.00 0.00 0.00 0.03 0.05 0.05 0.10 0.18 0.16 0.02 0.01 0.02 0.02 0.01 0.02 0.02 0.07
0.00 0.00 0.01 0.02 0.00 0.00 0.00 0.00 0.01 0.03 0.06 0.09 0.13 0.16 0.14 0.12 0.06 0.03 0.03 0.02 0.01 0.02 0.01 0.01 0.02 0.03 0.03 0.04 0.07 0.09 0.07 0.11 0.19 0.10 0.01 0.01 0.01 0.01 0.01 0.00 0.01 0.02 0.06
0.00 0.00 0.00 0.01 0.00 0.00 0.00 0.00 0.00 0.00 0.00 0.01 0.01 0.04 0.11 0.23 0.32 0.35 0.38 0.40 0.38 0.37 0.30 0.25 0.22 0.20 0.25 0.25 0.29 0.28 0.35 0.39 0.31 0.24 0.13 0.10 0.08 0.05 0.05 0.07 0.09 0.07 0.09

GFSMW_prec_precacc_129.txt.gz
Total_Precipitation_Accumulation
0.14 0.31 0.73 2.22 2.50 1.74 1.93 2.53 2.34 2.00 1.28 0.75 0.63 0.77 1.06 1.15 1.06 0.94 0.58 0.39 0.25 0.18 0.08 0.02 0.00 0.00 0.00 0.00 0.00 0.00 0.00 0.00 0.00 0.00 0.00 0.00 0.00 0.00 0.00 0.00 0.00 0.00 0.00
0.07 0.17 0.47 1.20 2.66 1.81 1.56 2.36 2.77 2.01 1.48 1.04 0.86 0.89 1.06 0.96 1.12 1.24 0.93 0.80 0.65 0.63 0.30 0.13 0.12 0.04 0.01 0.01 0.00 0.01 0.01 0.01 0.01 0.02 0.04 0.03 0.01 0.00 0.00 0.01 0.00 0.00 0.01
0.04 0.12 0.24 0.68 1.55 2.58 1.53 2.00 3.12 2.62 1.98 1.65 1.90 1.85 1.75 1.28 1.22 1.02 1.09 1.51 1.54 1.30 0.91 0.67 0.55 0.39 0.26 0.35 0.28 0.32 0.30 0.23 0.22 0.18 0.23 0.23 0.19 0.14 0.05 0.05 0.05 0.08 0.07
0.03 0.06 0.15 0.38 0.78 2.03 1.93 1.86 2.68 3.89 2.35 2.14 1.75 1.26 1.21 1.36 1.05 1.25 1.44 1.23 1.33 1.44 1.59 1.50 1.23 1.05 0.99 0.90 0.98 0.83 0.91 0.98 0.85 0.72 0.57 0.57 0.45 0.41 0.23 0.07 0.08 0.07 0.06
0.01 0.01 0.08 0.26 0.56 0.98 2.02 1.96 2.65 2.97 4.34 2.96 2.30 1.42 1.01 0.96 0.91 0.84 0.86 1.01 1.03 1.16 1.37 1.46 1.51 1.54 1.62 1.57 1.62 1.60 1.48 1.30 1.07 0.85 0.77 0.64 0.57 0.57 0.76 0.59 0.31 0.25 0.13
0.03 0.00 0.03 0.19 0.39 0.68 1.47 2.11 2.65 2.35 4.08 4.49 3.81 2.34 1.30 1.08 1.28 1.05 1.07 1.16 1.41 1.48 1.56 1.73 1.59 1.53 1.32 1.16 1.23 1.34 1.10 0.89 0.72 0.63 0.71 0.83 0.82 0.62 0.62 0.53 0.26 0.17 0.09
0.07 0.01 0.01 0.10 0.28 0.54 0.96 1.38 2.80 2.47 3.15 3.53 4.24 3.94 3.03 1.68 1.32 1.39 1.33 0.93 0.93 0.90 0.92 0.92 1.09 1.08 0.95 0.72 0.61 0.58 0.51 0.46 0.49 0.56 0.54 0.53 0.53 0.50 0.50 0.54 0.42 0.32 0.22
0.07 0.07 0.04 0.09 0.20 0.40 0.80 0.95 1.36 2.08 2.23 2.54 3.91 4.16 4.43 3.81 2.26 1.71 1.16 0.98 0.60 0.54 0.61 0.55 0.67 0.71 0.65 0.60 0.42 0.36 0.38 0.40 0.46 0.51 0.52 0.54 0.47 0.48 0.48 0.47 0.52 0.44 0.29
0.05 0.06 0.07 0.11 0.18 0.38 0.52 0.83 0.96 1.04 1.65 1.45 2.59 3.12 3.00 2.98 2.48 1.98 1.32 1.07 0.91 0.66 0.53 0.66 0.52 0.47 0.47 0.42 0.37 0.35 0.33 0.33 0.38 0.42 0.49 0.49 0.46 0.47 0.49 0.55 0.72 1.00 0.84
0.03 0.03 0.04 0.19 0.22 0.37 0.53 0.67 0.79 0.93 1.03 1.13 1.29 1.67 1.92 2.23 2.14 1.93 1.54 1.03 0.92 0.79 0.67 0.53 0.47 0.37 0.38 0.46 0.31 0.22 0.21 0.23 0.26 0.32 0.42 0.43 0.40 0.42 0.44 0.51 0.59 0.75 1.01
0.09 0.10 0.28 0.40 0.40 0.78 0.64 0.63 0.75 0.83 0.96 0.85 0.90 1.04 1.33 1.45 1.33 1.59 1.37 0.97 0.74 0.61 0.59 0.52 0.40 0.28 0.19 0.20 0.31 0.17 0.11 0.13 0.17 0.21 0.26 0.26 0.24 0.30 0.35 0.43 0.49 0.57 0.76
0.34 0.55 0.78 0.87 1.31 1.25 0.86 0.76 0.84 0.60 1.14 0.91 0.72 0.70 0.77 0.91 0.79 0.87 0.94 1.26 0.66 0.49 0.42 0.36 0.40 0.34 0.25 0.19 0.17 0.16 0.12 0.10 0.07 0.07 0.11 0.13 0.14 0.19 0.27 0.32 0.36 0.41 0.44
0.86 0.99 1.37 1.71 1.29 1.09 0.67 0.62 0.59 0.48 1.18 1.28 0.87 0.60 0.48 0.72 0.62 0.62 0.65 0.92 0.94 0.62 0.47 0.41 0.32 0.25 0.26 0.24 0.22 0.23 0.24 0.21 0.17 0.15 0.16 0.17 0.22 0.28 0.33 0.39 0.41 0.39 0.37
1.40 1.39 1.37 1.05 0.73 0.63 0.71 0.60 0.63 0.71 0.79 1.04 1.01 0.71 0.62 0.78 0.74 0.60 0.74 0.75 0.91 0.76 0.66 0.59 0.49 0.38 0.31 0.30 0.27 0.24 0.26 0.28 0.25 0.24 0.26 0.30 0.30 0.29 0.26 0.24 0.25 0.27 0.28
2.08 2.11 2.00 1.71 1.29 0.88 0.79 0.81 0.70 0.52 0.41 0.36 0.42 0.41 0.43 0.62 0.65 0.64 0.71 0.67 0.81 0.71 0.66 0.73 0.78 0.66 0.61 0.48 0.43 0.43 0.41 0.45 0.52 0.50 0.43 0.35 0.32 0.25 0.16 0.17 0.18 0.24 0.27
1.49 1.08 0.83 0.68 0.52 0.47 0.48 0.45 0.58 0.59 0.45 0.40 0.29 0.17 0.18 0.27 0.36 0.33 0.37 0.43 0.51 0.61 0.64 0.64 0.76 0.85 0.71 0.90 0.86 0.66 0.51 0.47 0.46 0.47 0.40 0.32 0.32 0.26 0.24 0.27 0.26 0.22 0.34
0.61 0.53 0.49 0.34 0.28 0.27 0.28 0.33 0.37 0.39 0.37 0.21 0.12 0.14 0.21 0.27 0.33 0.22 0.25 0.38 0.55 0.90 0.88 0.99 0.87 1.04 1.23 1.25 1.15 1.29 1.23 1.03 0.83 0.70 0.64 0.59 0.54 0.47 0.33 0.24 0.19 0.23 0.37
0.29 0.35 0.34 0.29 0.30 0.19 0.11 0.07 0.11 0.14 0.43 0.14 0.21 0.26 0.23 0.23 0.24 0.36 0.48 0.53 0.54 0.61 0.78 1.18 1.30 1.38 1.44 1.29 1.08 1.02 0.98 1.01 0.97 0.84 0.74 0.59 0.49 0.40 0.32 0.23 0.33 0.27 0.13
0.01 0.00 0.00 0.00 0.00 0.02 0.02 0.02 0.04 0.14 0.37 0.22 0.25 0.38 0.36 0.32 0.28 0.42 0.51 0.39 0.53 0.70 0.64 0.59 0.55 0.50 0.40 0.37 0.34 0.37 0.35 0.39 0.41 0.39 0.40 0.44 0.38 0.33 0.28 0.34 0.35 0.08 0.01
0.00 0.00 0.00 0.02 0.05 0.08 0.08 0.07 0.07 0.10 0.31 0.33 0.31 0.31 0.49 0.41 0.51 0.47 0.51 0.76 0.61 0.56 0.45 0.36 0.26 0.27 0.33 0.36 0.32 0.30 0.26 0.22 0.18 0.20 0.18 0.19 0.16 0.18 0.38 0.22 0.07 0.10 0.05
0.12 0.14 0.08 0.16 0.24 0.37 0.35 0.41 0.43 0.62 0.88 0.58 0.60 0.65 0.78 0.67 0.62 0.68 0.59 0.51 0.37 0.27 0.20 0.13 0.07 0.04 0.05 0.09 0.15 0.17 0.19 0.19 0.26 0.24 0.20 0.20 0.31 0.45 0.29 0.16 0.10 0.13 0.14
0.12 0.33 0.48 0.53 0.60 0.72 0.65 0.63 0.71 0.75 0.91 0.67 0.59 0.57 0.49 0.44 0.35 0.27 0.18 0.10 0.09 0.06 0.04 0.03 0.03 0.02 0.02 0.03 0.04 0.05 0.07 0.11 0.12 0.11 0.08 0.13 0.27 0.12 0.07 0.07 0.07 0.09 0.08
0.03 0.12 0.22 0.13 0.18 0.29 0.34 0.25 0.24 0.23 0.20 0.16 0.13 0.13 0.08 0.05 0.03 0.00 0.00 0.00 0.00 0.00 0.00 0.00 0.00 0.00 0.00 0.00 0.02 0.05 0.13 0.17 0.17 0.16 0.29 0.28 0.14 0.12 0.12 0.11 0.10 0.09 0.05
0.02 0.04 0.04 0.04 0.04 0.05 0.04 0.03 0.02 0.02 0.02 0.02 0.02 0.00 0.00 0.01 0.00 0.00 0.00 0.00 0.00 0.00 0.00 0.00 0.00 0.00 0.00 0.00 0.00 0.03 0.05 0.05 0.11 0.20 0.21 0.09 0.08 0.09 0.08 0.08 0.07 0.05 0.09
0.00 0.00 0.01 0.02 0.00 0.00 0.00 0.00 0.01 0.03 0.06 0.09 0.13 0.16 0.14 0.12 0.06 0.03 0.03 0.02 0.01 0.02 0.01 0.01 0.02 0.03 0.03 0.04 0.07 0.09 0.07 0.12 0.20 0.11 0.02 0.02 0.03 0.03 0.04 0.04 0.05 0.07 0.10
0.00 0.00 0.00 0.01 0.00 0.00 0.00 0.00 0.00 0.00 0.00 0.01 0.01 0.04 0.11 0.23 0.32 0.35 0.38 0.40 0.38 0.37 0.30 0.25 0.22 0.20 0.25 0.26 0.30 0.28 0.36 0.39 0.32 0.26 0.14 0.13 0.13 0.12 0.14 0.19 0.23 0.25 0.25

GFSMW_prec_precacc_132.txt.gz
Total_Precipitation_Accumulation
0.14 0.31 0.73 2.22 2.50 1.74 1.93 2.53 2.34 2.00 1.28 0.75 0.63 0.77 1.06 1.15 1.11 1.26 0.81 0.45 0.31 0.25 0.14 0.06 0.01 0.00 0.00 0.00 0.00 0.00 0.00 0.00 0.00 0.00 0.00 0.00 0.00 0.00 0.00 0.00 0.00 0.00 0.00
0.07 0.17 0.47 1.20 2.66 1.81 1.56 2.36 2.77 2.01 1.48 1.04 0.86 0.89 1.06 0.96 1.12 1.26 1.07 0.97 0.72 0.69 0.36 0.20 0.18 0.06 0.01 0.01 0.00 0.01 0.01 0.01 0.01 0.02 0.04 0.03 0.01 0.00 0.00 0.01 0.00 0.00 0.01
0.04 0.12 0.24 0.68 1.55 2.58 1.53 2.00 3.12 2.62 1.98 1.65 1.90 1.85 1.75 1.28 1.22 1.03 1.13 1.56 1.59 1.34 0.98 0.75 0.63 0.44 0.26 0.35 0.28 0.32 0.30 0.23 0.22 0.18 0.23 0.23 0.19 0.14 0.05 0.05 0.05 0.08 0.07
0.03 0.06 0.15 0.38 0.78 2.03 1.93 1.86 2.68 3.89 2.35 2.14 1.75 1.26 1.21 1.36 1.05 1.25 1.44 1.24 1.36 1.47 1.63 1.58 1.31 1.14 1.03 0.90 0.98 0.83 0.91 0.98 0.85 0.72 0.57 0.57 0.45 0.41 0.23 0.07 0.08 0.07 0.06
0.01 0.01 0.08 0.26 0.56 0.98 2.02 1.96 2.65 2.97 4.34 2.96 2.30 1.42 1.01 0.96 0.91 0.84 0.86 1.01 1.03 1.17 1.39 1.56 1.66 1.63 1.68 1.59 1.63 1.60 1.48 1.30 1.07 0.85 0.77 0.64 0.57 0.57 0.76 0.59 0.31 0.25 0.13
0.03 0.00 0.03 0.19 0.39 0.68 1.47 2.11 2.65 2.35 4.08 4.49 3.81 2.34 1.30 1.08 1.28 1.05 1.08 1.16 1.41 1.48 1.57 1.75 1.73 1.76 1.51 1.24 1.24 1.34 1.10 0.89 0.72 0.63 0.71 0.83 0.82 0.62 0.62 0.53 0.26 0.17 0.09
0.07 0.01 0.01 0.10 0.28 0.54 0.96 1.38 2.80 2.47 3.15 3.54 4.24 3.95 3.04 1.68 1.32 1.39 1.33 0.94 0.93 0.90 0.93 0.93 1.12 1.16 1.04 0.80 0.63 0.58 0.51 0.46 0.49 0.56 0.54 0.53 0.53 0.50 0.50 0.54 0.42 0.32 0.22
0.07 0.07 0.04 0.09 0.20 0.40 0.80 0.95 1.36 2.08 2.23 2.55 3.91 4.17 4.44 3.81 2.26 1.71 1.17 0.98 0.60 0.54 0.61 0.55 0.69 0.73 0.66 0.60 0.43 0.36 0.38 0.40 0.46 0.51 0.52 0.54 0.47 0.49 0.49 0.48 0.52 0.44 0.29
0.05 0.06 0.07 0.11 0.18 0.38 0.52 0.83 0.96 1.04 1.65 1.45 2.59 3.13 3.02 2.99 2.48 1.99 1.33 1.08 0.91 0.66 0.53 0.68 0.63 0.55 0.49 0.43 0.38 0.35 0.33 0.34 0.39 0.42 0.49 0.50 0.47 0.48 0.50 0.55 0.72 1.00 0.84
0.03 0.03 0.04 0.19 0.22 0.37 0.53 0.67 0.80 0.94 1.06 1.17 1.30 1.67 1.92 2.25 2.16 1.95 1.56 1.04 0.94 0.82 0.68 0.55 0.60 0.61 0.50 0.50 0.32 0.24 0.23 0.25 0.28 0.34 0.43 0.46 0.44 0.46 0.48 0.54 0.59 0.75 1.01
0.09 0.10 0.28 0.40 0.40 0.78 0.66 0.67 0.79 0.89 1.01 0.90 0.92 1.07 1.37 1.47 1.36 1.64 1.44 1.00 0.78 0.68 0.66 0.61 0.51 0.44 0.42 0.35 0.38 0.19 0.13 0.16 0.20 0.22 0.26 0.27 0.30 0.34 0.39 0.45 0.49 0.57 0.76
0.34 0.55 0.78 0.88 1.31 1.25 0.88 0.82 0.90 0.63 1.19 1.00 0.83 0.75 0.85 0.99 0.82 0.90 1.11 1.46 0.76 0.61 0.60 0.55 0.62 0.55 0.46 0.37 0.28 0.21 0.15 0.13 0.11 0.09 0.11 0.16 0.19 0.23 0.30 0.33 0.36 0.41 0.44
0.87 1.00 1.39 1.75 1.35 1.16 0.83 1.02 1.04 0.87 1.40 1.45 1.13 0.66 0.53 0.77 0.67 0.65 0.73 1.12 1.26 0.72 0.62 0.65 0.59 0.49 0.48 0.47 0.40 0.32 0.32 0.30 0.27 0.23 0.21 0.26 0.31 0.34 0.37 0.45 0.47 0.43 0.38
1.41 1.41 1.45 1.25 0.97 1.05 1.37 1.47 1.57 1.69 1.75 1.84 1.67 1.08 0.74 0.83 0.79 0.71 0.90 0.88 1.12 1.03 0.76 0.73 0.68 0.61 0.48 0.45 0.43 0.38 0.36 0.35 0.30 0.28 0.32 0.37 0.38 0.36 0.35 0.32 0.30 0.30 0.30
2.42 2.50 2.46 2.21 1.88 1.71 1.53 1.52 1.41 1.25 1.07 1.08 1.25 1.03 0.84 0.97 0.97 0.99 1.05 0.86 1.01 0.88 0.74 0.81 0.89 0.83 0.79 0.66 0.59 0.53 0.49 0.51 0.56 0.54 0.47 0.40 0.36 0.30 0.20 0.21 0.21 0.25 0.27
2.04 1.62 1.35 1.17 1.02 0.97 1.03 0.88 0.93 0.87 0.68 0.67 0.64 0.61 0.69 0.71 0.81 0.77 0.71 0.65 0.68 0.80 0.82 0.72 0.81 0.91 0.79 0.98 0.94 0.75 0.59 0.53 0.50 0.50 0.43 0.36 0.36 0.31 0.30 0.33 0.32 0.28 0.39
0.83 0.72 0.70 0.62 0.60 0.65 0.66 0.62 0.58 0.49 0.41 0.27 0.22 0.29 0.39 0.43 0.51 0.39 0.43 0.57 0.69 1.03 1.07 1.27 0.95 1.09 1.27 1.29 1.19 1.33 1.25 1.05 0.84 0.72 0.67 0.62 0.57 0.56 0.49 0.43 0.44 0.51 0.64
0.34 0.40 0.40 0.35 0.34 0.23 0.15 0.10 0.13 0.15 0.43 0.14 0.22 0.27 0.24 0.24 0.26 0.37 0.50 0.55 0.59 0.72 0.83 1.28 1.43 1.51 1.57 1.44 1.20 1.16 1.14 1.18 1.14 1.05 0.94 0.79 0.68 0.67 0.70 0.69 0.84 0.76 0.56
0.01 0.00 0.00 0.00 0.00 0.02 0.02 0.03 0.05 0.15 0.38 0.22 0.26 0.39 0.37 0.32 0.28 0.42 0.51 0.39 0.53 0.71 0.67 0.63 0.61 0.58 0.51 0.52 0.46 0.47 0.47 0.54 0.58 0.60 0.63 0.73 0.78 0.83 0.84 0.88 0.86 0.48 0.27
0.00 0.00 0.00 0.02 0.05 0.08 0.08 0.07 0.07 0.10 0.31 0.33 0.31 0.31 0.49 0.41 0.51 0.47 0.51 0.76 0.61 0.56 0.45 0.36 0.26 0.28 0.34 0.38 0.35 0.33 0.32 0.33 0.36 0.39 0.35 0.39 0.36 0.44 0.68 0.50 0.32 0.28 0.20
0.12 0.14 0.08 0.16 0.24 0.37 0.35 0.41 0.43 0.62 0.88 0.58 0.60 0.65 0.78 0.67 0.62 0.68 0.59 0.51 0.37 0.27 0.20 0.13 0.07 0.04 0.05 0.09 0.15 0.17 0.20 0.20 0.30 0.32 0.34 0.39 0.52 0.66 0.52 0.40 0.33 0.34 0.38
0.12 0.33 0.48 0.53 0.60 0.72 0.65 0.63 0.71 0.75 0.91 0.67 0.59 0.57 0.49 0.44 0.35 0.27 0.18 0.10 0.09 0.06 0.04 0.03 0.03 0.02 0.02 0.03 0.04 0.05 0.07 0.11 0.13 0.13 0.13 0.21 0.39 0.25 0.22 0.24 0.28 0.30 0.27
0.03 0.12 0.22 0.13 0.18 0.29 0.34 0.25 0.24 0.23 0.20 0.16 0.13 0.13 0.08 0.05 0.03 0.00 0.00 0.00 0.00 0.00 0.00 0.00 0.00 0.00 0.00 0.00 0.02 0.05 0.13 0.18 0.17 0.16 0.29 0.29 0.16 0.16 0.19 0.22 0.26 0.26 0.23
0.02 0.04 0.04 0.04 0.04 0.05 0.04 0.03 0.02 0.02 0.02 0.02 0.02 0.00 0.00 0.01 0.00 0.00 0.00 0.00 0.00 0.00 0.00 0.00 0.00 0.00 0.00 0.00 0.00 0.03 0.05 0.05 0.11 0.20 0.21 0.09 0.09 0.11 0.11 0.13 0.15 0.15 0.18
0.00 0.00 0.01 0.02 0.00 0.00 0.00 0.00 0.01 0.03 0.06 0.09 0.13 0.16 0.14 0.12 0.06 0.03 0.03 0.02 0.01 0.02 0.01 0.01 0.02 0.03 0.03 0.04 0.08 0.09 0.07 0.12 0.20 0.11 0.02 0.02 0.03 0.04 0.06 0.09 0.14 0.19 0.24
0.00 0.00 0.00 0.01 0.00 0.00 0.00 0.00 0.00 0.00 0.00 0.01 0.01 0.04 0.11 0.23 0.32 0.35 0.38 0.40 0.38 0.37 0.30 0.26 0.22 0.20 0.26 0.26 0.30 0.29 0.36 0.40 0.32 0.26 0.14 0.13 0.13 0.12 0.15 0.21 0.28 0.33 0.37

GFSMW_prec_precacc_135.txt.gz
Total_Precipitation_Accumulation
0.14 0.31 0.73 2.22 2.50 1.74 1.93 2.53 2.34 2.00 1.28 0.75 0.63 0.77 1.06 1.15 1.11 1.27 0.82 0.47 0.32 0.26 0.15 0.08 0.04 0.01 0.00 0.00 0.00 0.00 0.00 0.00 0.00 0.00 0.00 0.00 0.00 0.00 0.00 0.00 0.00 0.00 0.00
0.07 0.17 0.47 1.20 2.66 1.81 1.56 2.36 2.77 2.01 1.48 1.04 0.86 0.89 1.06 0.96 1.12 1.26 1.08 1.04 0.79 0.71 0.38 0.22 0.22 0.09 0.02 0.01 0.00 0.01 0.01 0.01 0.01 0.02 0.04 0.03 0.01 0.00 0.00 0.01 0.00 0.00 0.01
0.04 0.12 0.24 0.68 1.55 2.58 1.53 2.00 3.12 2.62 1.98 1.65 1.90 1.85 1.75 1.28 1.22 1.04 1.16 1.58 1.68 1.43 1.03 0.77 0.65 0.47 0.29 0.36 0.28 0.32 0.30 0.23 0.22 0.18 0.23 0.23 0.19 0.14 0.05 0.05 0.05 0.08 0.07
0.03 0.06 0.15 0.38 0.78 2.03 1.93 1.86 2.68 3.89 2.35 2.14 1.75 1.26 1.21 1.36 1.05 1.25 1.45 1.24 1.37 1.48 1.66 1.63 1.34 1.15 1.06 0.93 1.00 0.83 0.91 0.98 0.85 0.72 0.57 0.57 0.45 0.41 0.23 0.07 0.08 0.07 0.06
0.01 0.01 0.08 0.26 0.56 0.98 2.02 1.96 2.65 2.97 4.34 2.96 2.30 1.42 1.01 0.96 0.91 0.84 0.86 1.02 1.03 1.18 1.40 1.57 1.68 1.65 1.70 1.63 1.66 1.61 1.48 1.30 1.07 0.85 0.77 0.64 0.57 0.57 0.76 0.59 0.31 0.25 0.13
0.03 0.00 0.03 0.19 0.39 0.68 1.47 2.11 2.65 2.35 4.08 4.49 3.81 2.34 1.30 1.08 1.28 1.05 1.08 1.17 1.41 1.48 1.58 1.76 1.73 1.77 1.53 1.28 1.29 1.39 1.12 0.89 0.72 0.63 0.71 0.83 0.82 0.62 0.62 0.53 0.26 0.17 0.09
0.07 0.01 0.01 0.10 0.28 0.54 0.96 1.38 2.80 2.47 3.15 3.54 4.24 3.95 3.04 1.68 1.32 1.39 1.33 0.94 0.94 0.91 0.95 0.94 1.12 1.16 1.05 0.83 0.73 0.65 0.54 0.47 0.49 0.56 0.54 0.53 0.53 0.50 0.50 0.54 0.42 0.32 0.22
0.08 0.07 0.04 0.09 0.20 0.40 0.80 0.95 1.36 2.08 2.23 2.55 3.91 4.17 4.44 3.81 2.26 1.71 1.17 0.98 0.60 0.54 0.62 0.56 0.69 0.73 0.66 0.61 0.45 0.39 0.41 0.41 0.47 0.51 0.52 0.54 0.47 0.49 0.49 0.48 0.52 0.44 0.29
0.05 0.06 0.07 0.11 0.18 0.38 0.52 0.83 0.96 1.04 1.65 1.45 2.59 3.13 3.02 3.00 2.48 1.99 1.34 1.08 0.91 0.66 0.53 0.69 0.64 0.55 0.49 0.44 0.39 0.36 0.34 0.35 0.40 0.43 0.50 0.50 0.47 0.48 0.50 0.55 0.72 1.00 0.84
0.03 0.03 0.04 0.19 0.22 0.37 0.53 0.67 0.80 0.94 1.06 1.17 1.30 1.68 1.94 2.27 2.18 1.97 1.58 1.06 0.94 0.82 0.68 0.56 0.61 0.63 0.52 0.50 0.32 0.24 0.23 0.26 0.29 0.35 0.45 0.48 0.45 0.47 0.50 0.57 0.62 0.78 1.05
0.09 0.10 0.28 0.40 0.40 0.78 0.66 0.67 0.79 0.89 1.01 0.90 0.92 1.07 1.39 1.50 1.40 1.67 1.46 1.02 0.80 0.69 0.66 0.61 0.51 0.45 0.44 0.36 0.41 0.20 0.14 0.16 0.21 0.23 0.28 0.29 0.32 0.37 0.43 0.49 0.55 0.63 0.82
0.34 0.55 0.78 0.88 1.31 1.25 0.88 0.82 0.90 0.63 1.20 1.01 0.85 0.76 0.86 1.01 0.86 0.93 1.13 1.50 0.78 0.62 0.61 0.56 0.62 0.55 0.47 0.40 0.37 0.29 0.18 0.15 0.12 0.13 0.15 0.18 0.21 0.25 0.33 0.38 0.42 0.49 0.52
0.87 1.00 1.40 1.76 1.38 1.16 0.83 1.02 1.04 0.87 1.40 1.46 1.16 0.69 0.55 0.79 0.67 0.66 0.75 1.17 1.31 0.75 0.64 0.66 0.61 0.50 0.54 0.51 0.46 0.41 0.41 0.38 0.32 0.29 0.27 0.32 0.39 0.40 0.47 0.56 0.59 0.57 0.51
1.42 1.45 1.50 1.33 1.09 1.11 1.41 1.53 1.66 1.78 1.82 1.88 1.73 1.14 0.79 0.90 0.87 0.73 0.91 0.92 1.21 1.15 0.82 0.78 0.82 0.89 0.76 0.70 0.69 0.61 0.53 0.50 0.45 0.42 0.46 0.51 0.51 0.46 0.45 0.45 0.40 0.40 0.39
2.50 2.64 2.69 2.52 2.19 2.09 2.08 2.13 2.05 1.84 1.45 1.33 1.58 1.40 1.10 1.18 1.44 1.32 1.17 0.93 1.19 1.19 1.06 0.95 1.00 1.01 1.16 1.19 1.16 1.05 0.95 0.89 0.81 0.73 0.60 0.49 0.45 0.38 0.29 0.29 0.26 0.30 0.32
2.40 1.99 1.77 1.60 1.46 1.42 1.47 1.38 1.47 1.35 1.20 1.32 1.30 1.15 1.41 1.42 1.58 1.54 1.32 0.83 1.08 1.09 1.29 1.07 0.99 1.01 0.92 1.19 1.29 1.13 0.91 0.80 0.77 0.65 0.49 0.41 0.44 0.40 0.40 0.42 0.39 0.33 0.46
1.01 0.92 0.96 0.89 0.83 0.85 0.80 0.80 0.85 0.79 0.79 0.79 0.77 0.82 0.97 0.98 1.12 0.98 1.04 1.02 1.05 1.25 1.24 1.46 1.13 1.20 1.36 1.44 1.38 1.56 1.49 1.28 1.05 0.90 0.81 0.72 0.64 0.62 0.55 0.50 0.53 0.61 0.78
0.35 0.41 0.41 0.37 0.37 0.26 0.17 0.14 0.17 0.20 0.49 0.22 0.32 0.44 0.43 0.46 0.48 0.56 0.65 0.67 0.74 0.84 0.89 1.35 1.59 1.59 1.69 1.58 1.35 1.31 1.26 1.29 1.25 1.16 1.05 0.90 0.78 0.77 0.83 0.81 0.98 0.93 0.77
0.01 0.00 0.00 0.00 0.00 0.02 0.02 0.03 0.05 0.15 0.38 0.23 0.26 0.39 0.38 0.33 0.29 0.43 0.52 0.41 0.55 0.74 0.67 0.63 0.62 0.61 0.56 0.59 0.51 0.52 0.51 0.58 0.64 0.70 0.75 0.87 0.90 0.96 1.00 1.05 1.11 0.83 0.73
0.00 0.00 0.00 0.02 0.05 0.08 0.08 0.07 0.07 0.10 0.31 0.33 0.31 0.31 0.49 0.41 0.51 0.47 0.51 0.76 0.61 0.56 0.45 0.36 0.26 0.28 0.34 0.38 0.35 0.33 0.32 0.34 0.38 0.42 0.40 0.46 0.46 0.57 0.83 0.67 0.56 0.62 0.57
0.12 0.14 0.08 0.16 0.24 0.37 0.35 0.41 0.43 0.62 0.88 0.58 0.60 0.65 0.78 0.67 0.62 0.68 0.59 0.51 0.37 0.27 0.20 0.13 0.07 0.04 0.05 0.09 0.15 0.17 0.20 0.21 0.31 0.33 0.36 0.42 0.59 0.75 0.63 0.52 0.45 0.50 0.59
0.12 0.33 0.48 0.53 0.60 0.72 0.65 0.63 0.71 0.75 0.91 0.67 0.59 0.57 0.49 0.44 0.35 0.27 0.18 0.10 0.09 0.06 0.04 0.03 0.03 0.02 0.02 0.03 0.04 0.05 0.07 0.11 0.13 0.13 0.13 0.22 0.41 0.28 0.28 0.30 0.34 0.37 0.33
0.03 0.12 0.22 0.13 0.18 0.29 0.34 0.25 0.24 0.23 0.20 0.16 0.13 0.13 0.08 0.05 0.03 0.00 0.00 0.00 0.00 0.00 0.00 0.00 0.00 0.00 0.00 0.00 0.02 0.05 0.13 0.18 0.17 0.16 0.29 0.29 0.16 0.16 0.19 0.25 0.30 0.31 0.27
0.02 0.04 0.04 0.04 0.04 0.05 0.04 0.03 0.02 0.02 0.02 0.02 0.02 0.00 0.00 0.01 0.00 0.00 0.00 0.00 0.00 0.00 0.00 0.00 0.00 0.00 0.00 0.00 0.00 0.03 0.05 0.05 0.11 0.20 0.21 0.09 0.09 0.11 0.12 0.15 0.17 0.17 0.21
0.00 0.00 0.01 0.02 0.00 0.00 0.00 0.00 0.01 0.03 0.06 0.09 0.13 0.16 0.14 0.12 0.06 0.03 0.03 0.02 0.01 0.03 0.01 0.01 0.02 0.03 0.04 0.04 0.08 0.09 0.07 0.12 0.20 0.11 0.02 0.02 0.03 0.04 0.06 0.10 0.16 0.22 0.28
0.00 0.00 0.00 0.01 0.00 0.00 0.00 0.00 0.00 0.00 0.00 0.01 0.01 0.04 0.11 0.23 0.32 0.35 0.38 0.40 0.38 0.37 0.30 0.26 0.22 0.20 0.26 0.26 0.30 0.29 0.36 0.40 0.32 0.26 0.14 0.13 0.13 0.12 0.15 0.21 0.28 0.34 0.40

GFSMW_prec_precacc_138.txt.gz
Total_Precipitation_Accumulation
0.14 0.31 0.73 2.22 2.50 1.74 1.93 2.53 2.34 2.00 1.28 0.75 0.63 0.77 1.06 1.15 1.11 1.28 0.84 0.49 0.34 0.27 0.16 0.08 0.05 0.02 0.00 0.00 0.00 0.00 0.00 0.00 0.00 0.00 0.00 0.00 0.00 0.00 0.00 0.00 0.00 0.00 0.00
0.07 0.17 0.47 1.20 2.66 1.81 1.56 2.36 2.77 2.01 1.48 1.04 0.86 0.89 1.06 0.96 1.12 1.26 1.09 1.06 0.82 0.73 0.39 0.23 0.23 0.10 0.02 0.01 0.00 0.01 0.01 0.01 0.01 0.02 0.04 0.03 0.01 0.00 0.00 0.01 0.00 0.00 0.01
0.04 0.12 0.24 0.68 1.55 2.58 1.53 2.00 3.12 2.62 1.98 1.65 1.90 1.85 1.75 1.28 1.22 1.04 1.16 1.60 1.71 1.44 1.04 0.78 0.67 0.50 0.31 0.36 0.28 0.32 0.30 0.23 0.22 0.18 0.23 0.23 0.19 0.14 0.05 0.05 0.05 0.08 0.07
0.03 0.06 0.15 0.38 0.78 2.03 1.93 1.86 2.68 3.89 2.35 2.14 1.75 1.26 1.21 1.36 1.05 1.25 1.45 1.24 1.38 1.51 1.67 1.63 1.36 1.18 1.09 0.94 1.00 0.83 0.91 0.98 0.85 0.72 0.57 0.57 0.45 0.41 0.23 0.07 0.08 0.07 0.06
0.01 0.01 0.08 0.26 0.56 0.98 2.02 1.96 2.65 2.97 4.34 2.96 2.30 1.42 1.01 0.96 0.91 0.84 0.86 1.02 1.04 1.21 1.42 1.59 1.70 1.67 1.72 1.66 1.67 1.62 1.49 1.30 1.07 0.85 0.77 0.64 0.57 0.57 0.76 0.59 0.31 0.25 0.13
0.03 0.00 0.03 0.19 0.39 0.68 1.47 2.11 2.65 2.35 4.08 4.49 3.81 2.34 1.30 1.08 1.28 1.05 1.08 1.17 1.42 1.50 1.61 1.79 1.75 1.78 1.54 1.30 1.32 1.41 1.15 0.90 0.72 0.63 0.71 0.83 0.82 0.62 0.62 0.53 0.26 0.17 0.09
0.07 0.01 0.01 0.10 0.28 0.54 0.96 1.38 2.80 2.47 3.15 3.54 4.24 3.95 3.04 1.68 1.32 1.39 1.33 0.94 0.94 0.92 0.96 0.97 1.15 1.17 1.05 0.83 0.73 0.68 0.58 0.49 0.51 0.56 0.54 0.53 0.53 0.50 0.50 0.54 0.42 0.32 0.22
0.08 0.07 0.04 0.09 0.20 0.40 0.80 0.95 1.36 2.08 2.23 2.55 3.91 4.17 4.44 3.81 2.26 1.71 1.17 0.98 0.60 0.55 0.62 0.58 0.72 0.75 0.66 0.61 0.45 0.40 0.42 0.43 0.48 0.52 0.53 0.54 0.47 0.49 0.49 0.48 0.52 0.44 0.29
0.05 0.07 0.07 0.11 0.18 0.38 0.52 0.83 0.96 1.04 1.65 1.45 2.59 3.13 3.02 3.00 2.48 1.99 1.34 1.08 0.92 0.66 0.53 0.69 0.66 0.57 0.51 0.44 0.39 0.36 0.34 0.35 0.40 0.44 0.50 0.50 0.47 0.48 0.50 0.55 0.72 1.01 0.85
0.04 0.03 0.04 0.19 0.22 0.37 0.53 0.67 0.80 0.94 1.06 1.17 1.30 1.68 1.94 2.27 2.18 1.97 1.58 1.07 0.95 0.84 0.69 0.56 0.62 0.65 0.53 0.52 0.33 0.24 0.23 0.26 0.29 0.35 0.45 0.48 0.45 0.47 0.50 0.57 0.62 0.79 1.08
0.10 0.11 0.28 0.40 0.41 0.78 0.66 0.67 0.79 0.89 1.01 0.90 0.92 1.07 1.39 1.50 1.40 1.68 1.47 1.02 0.81 0.72 0.70 0.64 0.52 0.47 0.46 0.37 0.42 0.21 0.15 0.17 0.21 0.24 0.28 0.29 0.33 0.37 0.43 0.50 0.56 0.64 0.86
0.36 0.56 0.78 0.88 1.32 1.25 0.88 0.82 0.90 0.63 1.20 1.01 0.85 0.76 0.86 1.01 0.88 0.96 1.15 1.51 0.79 0.63 0.64 0.58 0.64 0.56 0.48 0.42 0.37 0.30 0.19 0.15 0.12 0.13 0.15 0.18 0.22 0.26 0.35 0.42 0.46 0.54 0.60
0.88 1.00 1.40 1.76 1.39 1.17 0.83 1.03 1.04 0.87 1.40 1.46 1.16 0.69 0.55 0.79 0.69 0.72 0.78 1.21 1.32 0.75 0.64 0.66 0.61 0.51 0.54 0.52 0.47 0.41 0.43 0.39 0.33 0.29 0.28 0.33 0.42 0.44 0.52 0.64 0.68 0.69 0.66
1.42 1.45 1.50 1.34 1.10 1.12 1.43 1.56 1.71 1.79 1.82 1.88 1.73 1.16 0.81 0.92 0.89 0.76 0.94 0.93 1.21 1.15 0.82 0.78 0.82 0.89 0.76 0.70 0.70 0.61 0.54 0.51 0.47 0.44 0.47 0.53 0.55 0.53 0.53 0.56 0.52 0.56 0.51
2.54 2.70 2.74 2.57 2.23 2.13 2.16 2.22 2.13 1.89 1.46 1.34 1.58 1.42 1.14 1.19 1.51 1.42 1.24 0.96 1.21 1.23 1.10 0.99 1.04 1.04 1.20 1.23 1.20 1.09 1.00 0.95 0.88 0.82 0.74 0.63 0.60 0.51 0.44 0.47 0.42 0.44 0.44
2.56 2.20 1.94 1.72 1.61 1.61 1.66 1.48 1.53 1.41 1.25 1.35 1.31 1.16 1.45 1.45 1.68 1.81 1.53 0.89 1.19 1.16 1.43 1.19 1.11 1.13 1.06 1.38 1.45 1.35 1.20 1.22 1.24 1.09 0.88 0.76 0.76 0.66 0.66 0.69 0.62 0.55 0.64
1.05 0.96 0.99 0.93 0.92 0.98 0.96 1.02 1.16 1.00 0.96 0.91 0.88 1.09 1.32 1.30 1.47 1.42 1.51 1.55 1.65 1.67 1.84 1.83 1.43 1.55 1.61 1.62 1.52 1.71 1.67 1.47 1.32 1.20 1.11 1.01 0.92 0.88 0.81 0.75 0.77 0.89 1.11
0.35 0.41 0.41 0.37 0.37 0.26 0.18 0.16 0.23 0.36 0.71 0.56 0.84 1.05 1.00 1.07 1.22 1.18 1.49 1.36 1.25 1.27 1.21 1.64 1.84 1.85 1.90 1.76 1.45 1.39 1.36 1.44 1.43 1.38 1.30 1.15 1.03 1.02 1.07 1.04 1.20 1.13 1.00
0.01 0.00 0.00 0.00 0.00 0.02 0.02 0.03 0.05 0.15 0.39 0.27 0.35 0.53 0.56 0.51 0.51 0.70 0.78 0.64 0.70 0.82 0.74 0.71 0.68 0.68 0.62 0.67 0.58 0.58 0.56 0.63 0.69 0.76 0.82 0.93 0.96 1.03 1.06 1.10 1.16 0.90 0.82
0.00 0.00 0.00 0.02 0.05 0.08 0.08 0.07 0.07 0.10 0.31 0.33 0.31 0.31 0.49 0.41 0.52 0.48 0.54 0.78 0.61 0.56 0.45 0.36 0.26 0.28 0.34 0.40 0.36 0.33 0.32 0.34 0.38 0.42 0.40 0.46 0.46 0.58 0.84 0.68 0.57 0.63 0.59
0.12 0.14 0.08 0.16 0.24 0.37 0.35 0.41 0.43 0.62 0.88 0.58 0.60 0.65 0.78 0.67 0.62 0.68 0.59 0.51 0.37 0.27 0.20 0.13 0.07 0.04 0.05 0.09 0.15 0.17 0.20 0.21 0.31 0.33 0.36 0.42 0.60 0.76 0.63 0.53 0.46 0.52 0.61
0.12 0.33 0.48 0.53 0.60 0.72 0.65 0.63 0.71 0.75 0.91 0.67 0.59 0.57 0.49 0.44 0.35 0.27 0.18 0.10 0.09 0.06 0.04 0.03 0.03 0.02 0.02 0.03 0.04 0.05 0.07 0.11 0.13 0.13 0.13 0.22 0.41 0.28 0.28 0.31 0.36 0.39 0.36
0.03 0.12 0.22 0.13 0.18 0.29 0.34 0.25 0.24 0.23 0.20 0.16 0.13 0.13 0.08 0.05 0.03 0.00 0.00 0.00 0.00 0.00 0.00 0.00 0.00 0.00 0.00 0.00 0.02 0.05 0.13 0.18 0.17 0.16 0.29 0.29 0.16 0.16 0.19 0.25 0.30 0.33 0.28
0.02 0.04 0.04 0.04 0.04 0.05 0.04 0.03 0.02 0.02 0.02 0.02 0.02 0.00 0.00 0.01 0.00 0.00 0.00 0.00 0.00 0.00 0.00 0.00 0.00 0.00 0.00 0.00 0.00 0.03 0.06 0.06 0.11 0.20 0.21 0.09 0.09 0.11 0.12 0.15 0.17 0.17 0.22
0.00 0.00 0.01 0.02 0.00 0.00 0.00 0.00 0.01 0.03 0.06 0.09 0.13 0.16 0.14 0.12 0.06 0.03 0.03 0.02 0.01 0.03 0.01 0.01 0.02 0.03 0.04 0.04 0.08 0.09 0.07 0.12 0.21 0.11 0.02 0.02 0.03 0.04 0.06 0.10 0.16 0.22 0.29
0.00 0.00 0.00 0.01 0.00 0.00 0.00 0.00 0.00 0.00 0.00 0.01 0.01 0.04 0.11 0.23 0.32 0.35 0.38 0.40 0.38 0.37 0.30 0.26 0.22 0.20 0.26 0.26 0.30 0.29 0.36 0.40 0.32 0.26 0.14 0.13 0.13 0.13 0.15 0.22 0.28 0.34 0.40

GFSMW_prec_precacc_141.txt.gz
Total_Precipitation_Accumulation
0.14 0.31 0.73 2.22 2.50 1.74 1.93 2.53 2.34 2.00 1.28 0.75 0.63 0.77 1.06 1.15 1.11 1.28 0.84 0.52 0.38 0.30 0.19 0.10 0.06 0.04 0.00 0.00 0.00 0.00 0.00 0.00 0.00 0.00 0.00 0.00 0.00 0.00 0.00 0.00 0.00 0.00 0.00
0.07 0.17 0.47 1.20 2.66 1.81 1.56 2.36 2.77 2.01 1.48 1.04 0.86 0.89 1.06 0.96 1.12 1.26 1.09 1.07 0.86 0.76 0.41 0.24 0.24 0.11 0.02 0.01 0.00 0.01 0.01 0.01 0.01 0.02 0.04 0.03 0.01 0.00 0.00 0.01 0.00 0.00 0.01
0.04 0.12 0.24 0.68 1.55 2.58 1.53 2.00 3.12 2.62 1.98 1.65 1.90 1.85 1.75 1.28 1.22 1.04 1.16 1.60 1.72 1.47 1.06 0.80 0.68 0.54 0.32 0.38 0.28 0.32 0.30 0.23 0.22 0.18 0.23 0.23 0.19 0.14 0.05 0.05 0.05 0.08 0.07
0.03 0.06 0.15 0.38 0.78 2.03 1.93 1.86 2.68 3.89 2.35 2.14 1.75 1.26 1.21 1.36 1.05 1.25 1.45 1.24 1.39 1.52 1.70 1.66 1.38 1.19 1.11 0.95 1.01 0.83 0.91 0.98 0.85 0.72 0.57 0.57 0.45 0.41 0.23 0.07 0.08 0.07 0.06
0.01 0.01 0.08 0.26 0.56 0.98 2.02 1.96 2.65 2.97 4.34 2.96 2.30 1.42 1.01 0.96 0.91 0.84 0.86 1.02 1.04 1.22 1.46 1.61 1.72 1.68 1.74 1.68 1.69 1.62 1.49 1.31 1.07 0.85 0.77 0.64 0.57 0.57 0.76 0.59 0.31 0.25 0.13
0.03 0.00 0.03 0.19 0.39 0.68 1.47 2.11 2.65 2.35 4.08 4.49 3.81 2.34 1.30 1.08 1.28 1.05 1.08 1.17 1.42 1.50 1.65 1.85 1.82 1.81 1.56 1.32 1.38 1.44 1.16 0.91 0.73 0.63 0.71 0.83 0.82 0.62 0.62 0.53 0.26 0.17 0.09
0.07 0.01 0.01 0.10 0.28 0.54 0.96 1.38 2.80 2.47 3.15 3.54 4.24 3.95 3.04 1.68 1.32 1.39 1.33 0.94 0.94 0.93 0.97 1.01 1.23 1.26 1.09 0.84 0.75 0.71 0.61 0.51 0.52 0.56 0.54 0.54 0.53 0.50 0.50 0.54 0.42 0.32 0.22
0.08 0.07 0.04 0.09 0.20 0.40 0.80 0.95 1.36 2.08 2.23 2.55 3.91 4.17 4.44 3.81 2.26 1.71 1.17 0.98 0.60 0.55 0.62 0.60 0.78 0.82 0.74 0.64 0.47 0.41 0.44 0.46 0.51 0.54 0.54 0.55 0.48 0.50 0.49 0.48 0.52 0.44 0.29
0.05 0.07 0.07 0.12 0.19 0.38 0.52 0.83 0.96 1.04 1.65 1.45 2.59 3.13 3.02 3.00 2.48 1.99 1.34 1.08 0.92 0.66 0.54 0.71 0.69 0.63 0.58 0.49 0.42 0.39 0.37 0.38 0.42 0.44 0.51 0.53 0.48 0.49 0.50 0.55 0.72 1.01 0.85
0.04 0.03 0.04 0.20 0.22 0.38 0.53 0.67 0.80 0.94 1.06 1.17 1.30 1.68 1.94 2.27 2.18 1.97 1.58 1.07 0.95 0.84 0.69 0.57 0.65 0.70 0.58 0.56 0.39 0.28 0.26 0.28 0.31 0.36 0.45 0.49 0.46 0.48 0.50 0.58 0.63 0.79 1.09
0.13 0.13 0.29 0.40 0.41 0.79 0.66 0.67 0.79 0.89 1.01 0.90 0.92 1.07 1.39 1.50 1.40 1.68 1.47 1.02 0.81 0.72 0.70 0.65 0.55 0.50 0.52 0.42 0.46 0.26 0.18 0.18 0.21 0.24 0.28 0.29 0.33 0.39 0.45 0.51 0.57 0.65 0.86
0.44 0.60 0.80 0.89 1.32 1.25 0.88 0.82 0.91 0.64 1.20 1.01 0.85 0.76 0.86 1.01 0.88 0.96 1.15 1.51 0.79 0.63 0.64 0.59 0.68 0.62 0.56 0.51 0.43 0.32 0.21 0.17 0.13 0.13 0.15 0.18 0.22 0.27 0.35 0.42 0.47 0.55 0.61
0.91 1.03 1.41 1.78 1.41 1.19 0.84 1.03 1.05 0.88 1.41 1.47 1.16 0.69 0.55 0.79 0.69 0.72 0.78 1.22 1.33 0.75 0.64 0.66 0.61 0.53 0.61 0.62 0.55 0.46 0.45 0.41 0.34 0.30 0.29 0.34 0.42 0.45 0.53 0.65 0.69 0.70 0.68
1.43 1.46 1.51 1.34 1.10 1.12 1.44 1.57 1.72 1.80 1.82 1.88 1.74 1.18 0.84 0.94 0.90 0.76 0.95 0.95 1.23 1.17 0.83 0.78 0.82 0.89 0.76 0.72 0.75 0.67 0.56 0.52 0.47 0.44 0.48 0.54 0.56 0.54 0.55 0.58 0.54 0.59 0.57
2.55 2.70 2.75 2.57 2.23 2.14 2.16 2.22 2.15 1.90 1.46 1.34 1.58 1.43 1.20 1.29 1.60 1.46 1.25 0.99 1.27 1.26 1.14 1.01 1.05 1.05 1.20 1.23 1.20 1.11 1.01 0.96 0.89 0.83 0.75 0.66 0.68 0.64 0.58 0.60 0.54 0.58 0.59
2.56 2.20 1.94 1.72 1.61 1.61 1.66 1.48 1.53 1.42 1.26 1.37 1.39 1.21 1.46 1.46 1.73 1.88 1.56 0.92 1.30 1.30 1.55 1.25 1.16 1.15 1.08 1.40 1.47 1.37 1.22 1.25 1.28 1.15 0.98 0.88 0.97 0.85 0.85 0.85 0.81 0.78 0.92
1.05 0.96 0.99 0.93 0.92 0.98 0.96 1.02 1.16 1.00 0.97 0.99 1.08 1.23 1.37 1.31 1.47 1.42 1.53 1.57 1.71 1.77 1.94 1.88 1.46 1.58 1.70 1.74 1.60 1.81 1.73 1.54 1.40 1.27 1.15 1.06 1.02 1.03 0.95 0.92 0.96 1.08 1.32
0.35 0.41 0.41 0.37 0.37 0.26 0.18 0.16 0.23 0.37 0.73 0.61 0.92 1.14 1.11 1.16 1.26 1.25 1.72 1.57 1.44 1.65 1.71 1.90 2.08 2.09 2.24 2.06 1.63 1.58 1.50 1.52 1.47 1.41 1.35 1.23 1.11 1.10 1.15 1.11 1.27 1.21 1.07
0.01 0.00 0.00 0.00 0.00 0.02 0.02 0.03 0.05 0.15 0.39 0.28 0.36 0.58 0.66 0.64 0.63 0.91 1.22 1.03 1.01 1.19 1.17 0.98 0.94 0.94 0.82 0.85 0.72 0.67 0.59 0.66 0.72 0.78 0.83 0.94 0.98 1.06 1.09 1.11 1.17 0.90 0.83
0.00 0.00 0.00 0.02 0.05 0.08 0.08 0.07 0.07 0.10 0.31 0.33 0.31 0.31 0.50 0.48 0.67 0.75 0.82 1.01 0.86 0.78 0.62 0.47 0.33 0.35 0.38 0.43 0.39 0.35 0.32 0.34 0.38 0.42 0.40 0.46 0.46 0.58 0.84 0.68 0.57 0.63 0.59
0.12 0.14 0.08 0.16 0.24 0.37 0.35 0.41 0.43 0.62 0.88 0.58 0.60 0.65 0.78 0.67 0.62 0.70 0.60 0.52 0.38 0.27 0.21 0.13 0.07 0.05 0.05 0.09 0.16 0.17 0.20 0.21 0.31 0.33 0.36 0.42 0.60 0.76 0.63 0.53 0.46 0.52 0.61
0.12 0.33 0.48 0.53 0.60 0.72 0.65 0.63 0.71 0.75 0.91 0.67 0.59 0.57 0.49 0.44 0.35 0.27 0.18 0.10 0.09 0.06 0.04 0.03 0.03 0.02 0.02 0.03 0.04 0.05 0.07 0.11 0.13 0.13 0.13 0.22 0.41 0.28 0.28 0.31 0.36 0.39 0.36
0.03 0.12 0.22 0.13 0.18 0.29 0.34 0.25 0.24 0.23 0.20 0.16 0.13 0.13 0.08 0.05 0.03 0.00 0.00 0.00 0.00 0.00 0.00 0.00 0.00 0.00 0.00 0.00 0.02 0.05 0.13 0.18 0.17 0.16 0.29 0.29 0.16 0.16 0.19 0.25 0.30 0.33 0.28
0.02 0.04 0.04 0.04 0.04 0.05 0.04 0.03 0.02 0.02 0.02 0.02 0.02 0.00 0.00 0.01 0.00 0.00 0.00 0.00 0.00 0.00 0.00 0.00 0.00 0.00 0.00 0.00 0.00 0.03 0.06 0.06 0.11 0.20 0.21 0.09 0.09 0.11 0.12 0.15 0.17 0.17 0.22
0.00 0.00 0.01 0.02 0.00 0.00 0.00 0.00 0.01 0.03 0.06 0.09 0.13 0.16 0.14 0.12 0.06 0.03 0.03 0.02 0.01 0.03 0.01 0.01 0.02 0.03 0.04 0.04 0.08 0.09 0.07 0.12 0.21 0.11 0.02 0.02 0.03 0.04 0.06 0.10 0.16 0.23 0.29
0.00 0.00 0.00 0.01 0.00 0.00 0.00 0.00 0.00 0.00 0.00 0.01 0.01 0.04 0.11 0.23 0.32 0.35 0.38 0.40 0.38 0.37 0.30 0.26 0.22 0.20 0.26 0.26 0.30 0.29 0.36 0.40 0.32 0.26 0.14 0.13 0.13 0.13 0.15 0.22 0.29 0.34 0.41

GFSMW_prec_precacc_144.txt.gz
Total_Precipitation_Accumulation
0.14 0.31 0.73 2.22 2.50 1.74 1.93 2.53 2.34 2.00 1.28 0.75 0.63 0.77 1.06 1.15 1.11 1.28 0.84 0.52 0.41 0.35 0.26 0.14 0.08 0.10 0.03 0.00 0.00 0.00 0.00 0.00 0.00 0.00 0.00 0.00 0.00 0.00 0.00 0.00 0.00 0.00 0.00
0.07 0.17 0.47 1.20 2.66 1.81 1.56 2.36 2.77 2.01 1.48 1.04 0.86 0.89 1.06 0.96 1.12 1.26 1.09 1.07 0.87 0.78 0.43 0.25 0.26 0.13 0.04 0.01 0.00 0.01 0.01 0.01 0.01 0.02 0.04 0.03 0.01 0.00 0.00 0.01 0.00 0.00 0.01
0.04 0.12 0.24 0.68 1.55 2.58 1.53 2.00 3.12 2.62 1.98 1.65 1.90 1.85 1.75 1.28 1.22 1.04 1.16 1.60 1.72 1.47 1.08 0.82 0.70 0.55 0.35 0.39 0.29 0.32 0.30 0.23 0.22 0.18 0.23 0.23 0.19 0.14 0.05 0.05 0.05 0.08 0.07
0.03 0.06 0.15 0.38 0.78 2.03 1.93 1.86 2.68 3.89 2.35 2.14 1.75 1.26 1.21 1.36 1.05 1.25 1.45 1.24 1.39 1.52 1.71 1.72 1.45 1.21 1.15 0.99 1.03 0.84 0.91 0.98 0.85 0.72 0.57 0.57 0.45 0.41 0.23 0.07 0.08 0.07 0.06
0.01 0.01 0.08 0.26 0.56 0.98 2.02 1.96 2.65 2.97 4.34 2.96 2.30 1.42 1.01 0.96 0.91 0.84 0.86 1.02 1.04 1.22 1.46 1.63 1.77 1.74 1.77 1.72 1.74 1.68 1.51 1.31 1.07 0.85 0.77 0.64 0.57 0.57 0.76 0.59 0.31 0.25 0.13
0.03 0.00 0.03 0.19 0.39 0.68 1.47 2.11 2.65 2.35 4.08 4.49 3.81 2.34 1.30 1.08 1.28 1.05 1.08 1.17 1.42 1.50 1.65 1.87 1.84 1.85 1.61 1.38 1.43 1.51 1.22 0.94 0.74 0.63 0.71 0.83 0.82 0.62 0.62 0.53 0.26 0.17 0.09
0.07 0.01 0.01 0.10 0.28 0.54 0.96 1.38 2.80 2.47 3.15 3.54 4.24 3.95 3.04 1.68 1.32 1.39 1.33 0.94 0.94 0.93 0.97 1.02 1.25 1.29 1.13 0.89 0.81 0.79 0.68 0.58 0.55 0.58 0.55 0.54 0.53 0.50 0.50 0.54 0.42 0.32 0.22
0.08 0.07 0.04 0.09 0.20 0.40 0.80 0.95 1.36 2.08 2.23 2.55 3.91 4.17 4.44 3.81 2.26 1.71 1.17 0.98 0.60 0.55 0.62 0.60 0.79 0.86 0.81 0.74 0.55 0.47 0.50 0.53 0.58 0.59 0.58 0.57 0.49 0.51 0.51 0.50 0.55 0.49 0.31
0.05 0.07 0.07 0.12 0.19 0.38 0.52 0.83 0.96 1.04 1.65 1.45 2.59 3.13 3.02 3.00 2.48 1.99 1.34 1.08 0.92 0.66 0.54 0.71 0.70 0.65 0.65 0.60 0.54 0.49 0.49 0.48 0.49 0.51 0.59 0.60 0.55 0.61 0.62 0.66 0.84 1.14 0.94
0.08 0.07 0.06 0.20 0.22 0.38 0.54 0.68 0.80 0.94 1.06 1.17 1.30 1.68 1.94 2.27 2.18 1.97 1.58 1.07 0.95 0.84 0.69 0.57 0.65 0.71 0.63 0.65 0.49 0.39 0.34 0.39 0.40 0.44 0.52 0.55 0.52 0.55 0.60 0.69 0.75 0.93 1.21
0.31 0.30 0.38 0.43 0.41 0.79 0.66 0.67 0.80 0.89 1.02 0.90 0.92 1.07 1.39 1.50 1.40 1.68 1.47 1.02 0.81 0.72 0.70 0.65 0.55 0.51 0.53 0.47 0.53 0.32 0.26 0.25 0.27 0.31 0.34 0.34 0.37 0.40 0.47 0.54 0.62 0.72 0.94
0.61 0.75 0.90 0.94 1.34 1.26 0.88 0.82 0.91 0.65 1.21 1.02 0.85 0.76 0.86 1.01 0.88 0.96 1.15 1.51 0.79 0.63 0.64 0.59 0.68 0.62 0.56 0.54 0.51 0.43 0.30 0.22 0.17 0.16 0.18 0.22 0.25 0.28 0.37 0.43 0.47 0.55 0.62
1.03 1.11 1.42 1.78 1.41 1.19 0.84 1.03 1.05 0.88 1.41 1.48 1.17 0.70 0.55 0.79 0.69 0.72 0.78 1.22 1.33 0.75 0.64 0.66 0.61 0.53 0.61 0.62 0.59 0.54 0.56 0.49 0.38 0.33 0.33 0.37 0.44 0.46 0.54 0.65 0.69 0.70 0.68
1.44 1.46 1.52 1.35 1.10 1.12 1.44 1.57 1.74 1.81 1.82 1.88 1.74 1.18 0.87 0.96 0.93 0.79 0.96 0.95 1.23 1.17 0.83 0.78 0.83 0.90 0.77 0.73 0.76 0.73 0.69 0.61 0.55 0.51 0.53 0.57 0.57 0.55 0.56 0.58 0.55 0.59 0.57
2.55 2.70 2.75 2.57 2.23 2.14 2.16 2.23 2.16 1.91 1.46 1.34 1.58 1.43 1.21 1.31 1.67 1.56 1.36 1.02 1.28 1.30 1.20 1.05 1.09 1.09 1.25 1.26 1.25 1.16 1.07 1.04 1.00 0.92 0.80 0.67 0.69 0.64 0.58 0.61 0.55 0.62 0.69
2.56 2.20 1.94 1.72 1.61 1.61 1.66 1.48 1.53 1.42 1.26 1.37 1.40 1.21 1.47 1.46 1.74 1.92 1.61 0.99 1.36 1.38 1.62 1.36 1.27 1.27 1.14 1.46 1.51 1.41 1.27 1.29 1.30 1.18 1.00 0.89 0.98 0.87 0.90 0.90 0.85 0.82 0.96
1.05 0.96 0.99 0.93 0.92 0.98 0.96 1.02 1.16 1.00 0.97 0.99 1.09 1.24 1.38 1.31 1.47 1.42 1.53 1.57 1.71 1.77 1.97 1.94 1.50 1.61 1.72 1.77 1.63 1.84 1.76 1.56 1.41 1.28 1.16 1.07 1.04 1.08 0.98 1.01 1.04 1.15 1.42
0.35 0.41 0.41 0.37 0.37 0.26 0.18 0.16 0.23 0.37 0.73 0.61 0.92 1.14 1.11 1.16 1.27 1.26 1.73 1.57 1.44 1.66 1.76 1.93 2.10 2.12 2.28 2.11 1.67 1.62 1.54 1.55 1.50 1.45 1.39 1.27 1.16 1.15 1.19 1.14 1.30 1.24 1.09
0.01 0.00 0.00 0.00 0.00 0.02 0.02 0.03 0.05 0.15 0.39 0.28 0.36 0.58 0.66 0.64 0.65 0.98 1.29 1.07 1.02 1.25 1.32 1.10 1.04 1.11 1.01 1.16 1.03 0.96 0.84 0.78 0.79 0.89 0.94 1.03 1.04 1.12 1.13 1.12 1.17 0.90 0.83
0.00 0.00 0.00 0.02 0.05 0.08 0.08 0.07 0.07 0.10 0.31 0.33 0.31 0.31 0.50 0.48 0.68 0.76 0.85 1.05 0.91 0.90 0.86 0.72 0.51 0.54 0.56 0.64 0.57 0.55 0.47 0.43 0.44 0.46 0.42 0.48 0.46 0.59 0.85 0.68 0.57 0.63 0.59
0.12 0.14 0.08 0.16 0.24 0.37 0.35 0.41 0.43 0.62 0.88 0.58 0.60 0.65 0.78 0.67 0.62 0.71 0.62 0.54 0.42 0.33 0.30 0.24 0.18 0.14 0.13 0.14 0.18 0.19 0.20 0.21 0.31 0.33 0.36 0.42 0.60 0.76 0.63 0.53 0.46 0.52 0.61
0.12 0.33 0.48 0.53 0.60 0.72 0.65 0.63 0.71 0.75 0.91 0.67 0.59 0.57 0.49 0.44 0.35 0.27 0.18 0.10 0.09 0.06 0.04 0.03 0.03 0.02 0.02 0.03 0.04 0.05 0.07 0.11 0.13 0.13 0.13 0.22 0.41 0.28 0.28 0.31 0.36 0.40 0.36
0.03 0.12 0.22 0.13 0.18 0.29 0.34 0.25 0.24 0.23 0.20 0.16 0.13 0.13 0.08 0.05 0.03 0.00 0.00 0.00 0.00 0.00 0.00 0.00 0.00 0.00 0.00 0.00 0.02 0.05 0.13 0.18 0.17 0.16 0.29 0.29 0.16 0.16 0.20 0.25 0.31 0.33 0.28
0.02 0.04 0.04 0.04 0.04 0.05 0.04 0.03 0.02 0.02 0.02 0.02 0.02 0.00 0.00 0.01 0.00 0.00 0.00 0.00 0.00 0.00 0.00 0.00 0.00 0.00 0.00 0.00 0.00 0.03 0.06 0.06 0.11 0.21 0.21 0.09 0.09 0.11 0.12 0.16 0.17 0.18 0.23
0.00 0.00 0.01 0.02 0.00 0.00 0.00 0.00 0.01 0.03 0.06 0.09 0.13 0.16 0.14 0.12 0.06 0.03 0.03 0.02 0.01 0.03 0.01 0.01 0.02 0.03 0.04 0.04 0.08 0.09 0.07 0.12 0.21 0.11 0.02 0.02 0.03 0.04 0.06 0.10 0.16 0.23 0.29
0.00 0.00 0.00 0.01 0.00 0.00 0.00 0.00 0.00 0.00 0.00 0.01 0.01 0.04 0.11 0.23 0.32 0.35 0.38 0.40 0.38 0.37 0.30 0.26 0.22 0.20 0.26 0.26 0.30 0.29 0.36 0.40 0.32 0.26 0.14 0.13 0.13 0.13 0.16 0.22 0.29 0.34 0.41

GFSMW_prec_precacc_147.txt.gz
Total_Precipitation_Accumulation
0.14 0.31 0.73 2.22 2.50 1.74 1.93 2.53 2.34 2.00 1.28 0.75 0.63 0.77 1.06 1.15 1.11 1.28 0.84 0.52 0.41 0.38 0.31 0.16 0.09 0.13 0.06 0.00 0.00 0.00 0.00 0.00 0.00 0.00 0.00 0.00 0.00 0.00 0.00 0.00 0.00 0.00 0.00
0.07 0.17 0.47 1.20 2.66 1.81 1.56 2.36 2.77 2.01 1.48 1.04 0.86 0.89 1.06 0.96 1.12 1.26 1.09 1.07 0.87 0.78 0.44 0.27 0.26 0.16 0.07 0.04 0.02 0.03 0.01 0.01 0.01 0.02 0.04 0.03 0.01 0.00 0.00 0.01 0.00 0.00 0.01
0.04 0.12 0.24 0.68 1.55 2.58 1.53 2.00 3.12 2.62 1.98 1.65 1.90 1.85 1.75 1.28 1.22 1.04 1.16 1.60 1.72 1.48 1.09 0.85 0.75 0.59 0.40 0.44 0.31 0.36 0.31 0.23 0.22 0.18 0.23 0.23 0.19 0.14 0.05 0.05 0.05 0.08 0.07
0.03 0.06 0.15 0.38 0.78 2.03 1.93 1.86 2.68 3.89 2.35 2.14 1.75 1.26 1.21 1.36 1.05 1.25 1.45 1.24 1.39 1.52 1.71 1.73 1.50 1.29 1.22 1.04 1.07 0.87 0.94 0.99 0.85 0.73 0.58 0.57 0.45 0.41 0.23 0.07 0.08 0.07 0.06
0.01 0.01 0.08 0.26 0.56 0.98 2.02 1.96 2.65 2.97 4.34 2.96 2.30 1.42 1.01 0.96 0.91 0.84 0.86 1.02 1.04 1.22 1.46 1.64 1.80 1.79 1.86 1.81 1.85 1.75 1.56 1.33 1.07 0.86 0.78 0.64 0.57 0.57 0.76 0.59 0.31 0.25 0.13
0.03 0.00 0.03 0.19 0.39 0.68 1.47 2.11 2.65 2.35 4.08 4.49 3.81 2.34 1.30 1.08 1.28 1.05 1.08 1.17 1.42 1.50 1.65 1.87 1.85 1.87 1.65 1.46 1.55 1.62 1.31 1.00 0.77 0.64 0.74 0.86 0.83 0.63 0.62 0.53 0.26 0.17 0.09
0.07 0.01 0.01 0.10 0.28 0.54 0.96 1.38 2.80 2.47 3.15 3.54 4.24 3.95 3.04 1.68 1.32 1.39 1.33 0.94 0.94 0.93 0.97 1.02 1.25 1.29 1.14 0.92 0.89 0.89 0.81 0.72 0.64 0.62 0.58 0.57 0.57 0.53 0.52 0.54 0.42 0.32 0.22
0.08 0.07 0.04 0.09 0.20 0.40 0.80 0.95 1.36 2.08 2.23 2.55 3.91 4.17 4.44 3.81 2.26 1.71 1.17 0.98 0.60 0.55 0.62 0.60 0.79 0.87 0.83 0.76 0.59 0.55 0.60 0.65 0.74 0.68 0.63 0.61 0.53 0.55 0.55 0.53 0.56 0.50 0.32
0.06 0.07 0.07 0.12 0.19 0.38 0.53 0.83 0.96 1.04 1.65 1.45 2.59 3.13 3.02 3.00 2.48 1.99 1.34 1.08 0.92 0.66 0.54 0.71 0.70 0.65 0.65 0.61 0.57 0.53 0.55 0.57 0.57 0.61 0.70 0.71 0.62 0.66 0.71 0.79 0.94 1.25 1.11
0.15 0.16 0.16 0.26 0.26 0.40 0.55 0.68 0.80 0.94 1.06 1.17 1.30 1.68 1.94 2.27 2.18 1.97 1.58 1.07 0.95 0.84 0.69 0.57 0.65 0.72 0.64 0.66 0.51 0.40 0.37 0.48 0.54 0.55 0.61 0.65 0.60 0.62 0.71 0.87 0.99 1.17 1.44
0.43 0.43 0.52 0.53 0.48 0.83 0.68 0.68 0.80 0.89 1.02 0.90 0.92 1.07 1.39 1.50 1.40 1.68 1.47 1.02 0.81 0.72 0.70 0.65 0.55 0.51 0.53 0.47 0.53 0.34 0.28 0.28 0.31 0.36 0.39 0.40 0.47 0.52 0.57 0.63 0.73 0.85 1.11
0.69 0.82 1.01 1.00 1.37 1.29 0.90 0.83 0.91 0.65 1.21 1.02 0.85 0.76 0.86 1.01 0.88 0.96 1.15 1.51 0.79 0.63 0.64 0.59 0.68 0.62 0.56 0.54 0.51 0.44 0.32 0.28 0.22 0.22 0.23 0.28 0.32 0.36 0.45 0.49 0.52 0.59 0.65
1.04 1.11 1.45 1.80 1.41 1.20 0.87 1.07 1.07 0.88 1.41 1.48 1.17 0.70 0.55 0.79 0.69 0.72 0.78 1.22 1.33 0.75 0.64 0.66 0.61 0.53 0.61 0.62 0.59 0.54 0.57 0.52 0.43 0.40 0.40 0.41 0.51 0.53 0.61 0.72 0.73 0.72 0.70
1.44 1.46 1.52 1.35 1.10 1.12 1.44 1.58 1.75 1.81 1.82 1.88 1.75 1.18 0.87 0.96 0.93 0.79 0.96 0.96 1.23 1.17 0.84 0.79 0.83 0.90 0.78 0.73 0.76 0.73 0.70 0.62 0.58 0.55 0.57 0.62 0.64 0.65 0.65 0.66 0.60 0.64 0.60
2.55 2.70 2.75 2.57 2.23 2.14 2.17 2.23 2.16 1.91 1.46 1.34 1.58 1.43 1.21 1.31 1.67 1.57 1.39 1.05 1.30 1.31 1.22 1.07 1.11 1.10 1.26 1.27 1.25 1.16 1.08 1.07 1.05 1.01 0.92 0.78 0.79 0.77 0.70 0.68 0.59 0.64 0.70
2.56 2.20 1.94 1.72 1.61 1.61 1.66 1.48 1.53 1.42 1.26 1.37 1.40 1.21 1.47 1.46 1.74 1.92 1.62 0.99 1.37 1.38 1.63 1.36 1.28 1.28 1.16 1.47 1.52 1.42 1.27 1.32 1.34 1.22 1.07 0.99 1.08 0.94 0.94 0.92 0.89 0.87 1.01
1.05 0.96 0.99 0.93 0.92 0.98 0.96 1.02 1.16 1.00 0.97 0.99 1.09 1.24 1.38 1.31 1.47 1.42 1.53 1.57 1.71 1.77 1.97 1.94 1.50 1.61 1.73 1.79 1.65 1.90 1.82 1.63 1.47 1.34 1.20 1.10 1.07 1.11 1.01 1.04 1.08 1.19 1.47
0.35 0.41 0.41 0.37 0.37 0.26 0.18 0.16 0.23 0.37 0.73 0.61 0.92 1.15 1.12 1.16 1.27 1.27 1.73 1.57 1.44 1.66 1.76 1.93 2.10 2.12 2.29 2.11 1.68 1.64 1.55 1.56 1.51 1.46 1.41 1.29 1.18 1.18 1.22 1.17 1.34 1.29 1.15
0.01 0.00 0.00 0.00 0.00 0.02 0.02 0.03 0.05 0.15 0.39 0.28 0.36 0.58 0.66 0.64 0.65 0.98 1.29 1.07 1.02 1.26 1.32 1.10 1.04 1.11 1.01 1.17 1.07 1.00 0.87 0.79 0.80 0.89 0.95 1.06 1.08 1.21 1.22 1.17 1.23 0.96 0.86
0.00 0.00 0.00 0.02 0.05 0.08 0.08 0.07 0.07 0.10 0.31 0.33 0.31 0.31 0.50 0.48 0.68 0.76 0.85 1.05 0.91 0.91 0.87 0.73 0.54 0.59 0.60 0.70 0.74 0.74 0.69 0.55 0.50 0.52 0.51 0.58 0.54 0.69 0.92 0.72 0.60 0.63 0.59
0.12 0.14 0.08 0.16 0.24 0.37 0.35 0.41 0.43 0.62 0.88 0.58 0.60 0.65 0.78 0.67 0.62 0.71 0.62 0.54 0.42 0.33 0.30 0.25 0.20 0.18 0.20 0.25 0.34 0.39 0.40 0.35 0.39 0.39 0.40 0.46 0.63 0.78 0.65 0.53 0.46 0.52 0.61
0.12 0.33 0.48 0.53 0.60 0.72 0.65 0.63 0.71 0.75 0.91 0.67 0.59 0.57 0.49 0.44 0.35 0.27 0.18 0.10 0.09 0.06 0.04 0.03 0.03 0.03 0.03 0.05 0.05 0.05 0.07 0.12 0.14 0.14 0.13 0.22 0.41 0.28 0.28 0.31 0.37 0.40 0.36
0.03 0.12 0.22 0.13 0.18 0.29 0.34 0.25 0.24 0.23 0.20 0.16 0.13 0.13 0.08 0.05 0.03 0.00 0.00 0.00 0.00 0.00 0.00 0.00 0.00 0.00 0.00 0.00 0.02 0.05 0.13 0.18 0.17 0.16 0.29 0.29 0.16 0.16 0.20 0.25 0.31 0.33 0.28
0.02 0.04 0.04 0.04 0.04 0.05 0.04 0.03 0.02 0.02 0.02 0.02 0.02 0.00 0.00 0.01 0.00 0.00 0.00 0.00 0.00 0.00 0.00 0.00 0.00 0.00 0.00 0.00 0.00 0.03 0.06 0.06 0.11 0.21 0.21 0.09 0.09 0.11 0.12 0.16 0.17 0.18 0.23
0.00 0.00 0.01 0.02 0.00 0.00 0.00 0.00 0.01 0.03 0.06 0.09 0.13 0.16 0.14 0.12 0.06 0.03 0.03 0.02 0.01 0.03 0.01 0.01 0.02 0.03 0.04 0.04 0.08 0.09 0.07 0.12 0.21 0.11 0.02 0.02 0.03 0.04 0.06 0.10 0.16 0.23 0.29
0.00 0.00 0.00 0.01 0.00 0.00 0.00 0.00 0.00 0.00 0.00 0.01 0.01 0.04 0.11 0.23 0.32 0.35 0.38 0.40 0.38 0.37 0.30 0.26 0.22 0.20 0.26 0.26 0.30 0.29 0.36 0.40 0.32 0.26 0.14 0.13 0.13 0.13 0.16 0.22 0.29 0.34 0.41

GFSMW_prec_precacc_150.txt.gz
Total_Precipitation_Accumulation
0.14 0.31 0.73 2.22 2.50 1.74 1.93 2.53 2.34 2.00 1.28 0.75 0.63 0.77 1.06 1.15 1.11 1.28 0.84 0.52 0.41 0.39 0.36 0.21 0.14 0.17 0.09 0.04 0.07 0.03 0.00 0.00 0.01 0.00 0.00 0.00 0.00 0.00 0.00 0.00 0.00 0.00 0.00
0.07 0.17 0.47 1.20 2.66 1.81 1.56 2.36 2.77 2.01 1.48 1.04 0.86 0.89 1.06 0.96 1.12 1.26 1.09 1.07 0.87 0.78 0.45 0.30 0.31 0.22 0.12 0.09 0.06 0.07 0.03 0.01 0.02 0.03 0.04 0.03 0.01 0.00 0.00 0.01 0.00 0.00 0.01
0.04 0.12 0.24 0.68 1.55 2.58 1.53 2.00 3.12 2.62 1.98 1.65 1.90 1.85 1.75 1.28 1.22 1.04 1.16 1.60 1.72 1.48 1.09 0.86 0.79 0.64 0.45 0.48 0.35 0.42 0.37 0.27 0.24 0.20 0.24 0.24 0.19 0.14 0.05 0.05 0.05 0.08 0.07
0.03 0.06 0.15 0.38 0.78 2.03 1.93 1.86 2.68 3.89 2.35 2.14 1.75 1.26 1.21 1.36 1.05 1.25 1.45 1.24 1.39 1.52 1.71 1.74 1.52 1.31 1.26 1.10 1.11 0.93 1.01 1.06 0.91 0.76 0.59 0.58 0.45 0.41 0.23 0.07 0.08 0.07 0.06
0.01 0.01 0.08 0.26 0.56 0.98 2.02 1.96 2.65 2.97 4.34 2.96 2.30 1.42 1.01 0.96 0.91 0.84 0.86 1.02 1.04 1.22 1.46 1.64 1.80 1.81 1.89 1.87 1.94 1.83 1.62 1.40 1.16 0.93 0.87 0.69 0.58 0.57 0.76 0.59 0.31 0.25 0.13
0.03 0.00 0.03 0.19 0.39 0.68 1.47 2.11 2.65 2.35 4.08 4.49 3.81 2.34 1.30 1.08 1.28 1.05 1.08 1.17 1.42 1.50 1.65 1.87 1.85 1.87 1.65 1.48 1.60 1.72 1.43 1.10 0.87 0.74 0.82 0.92 0.88 0.65 0.63 0.54 0.26 0.17 0.09
0.07 0.01 0.01 0.10 0.28 0.54 0.96 1.38 2.80 2.47 3.15 3.54 4.24 3.95 3.04 1.68 1.32 1.39 1.33 0.94 0.94 0.93 0.97 1.02 1.25 1.29 1.14 0.93 0.91 0.94 0.90 0.82 0.72 0.71 0.65 0.64 0.61 0.58 0.56 0.57 0.43 0.32 0.22
0.08 0.07 0.04 0.09 0.20 0.40 0.80 0.95 1.36 2.08 2.23 2.55 3.91 4.17 4.44 3.81 2.26 1.71 1.17 0.98 0.60 0.55 0.62 0.60 0.79 0.87 0.83 0.76 0.60 0.56 0.62 0.71 0.84 0.83 0.73 0.67 0.58 0.61 0.61 0.58 0.62 0.56 0.36
0.06 0.07 0.08 0.13 0.20 0.40 0.54 0.84 0.96 1.04 1.65 1.45 2.59 3.13 3.02 3.00 2.48 1.99 1.34 1.08 0.92 0.66 0.54 0.71 0.70 0.65 0.65 0.61 0.57 0.54 0.55 0.58 0.61 0.67 0.78 0.79 0.71 0.76 0.80 0.87 1.02 1.33 1.20
0.15 0.17 0.16 0.28 0.28 0.43 0.58 0.70 0.81 0.94 1.06 1.17 1.30 1.68 1.94 2.27 2.18 1.97 1.58 1.07 0.95 0.84 0.69 0.57 0.65 0.72 0.64 0.66 0.51 0.41 0.38 0.49 0.55 0.58 0.64 0.67 0.65 0.71 0.81 0.96 1.05 1.23 1.51
0.43 0.44 0.54 0.56 0.54 0.91 0.75 0.71 0.82 0.90 1.02 0.90 0.92 1.07 1.39 1.50 1.40 1.68 1.47 1.02 0.81 0.72 0.70 0.65 0.55 0.51 0.53 0.47 0.53 0.34 0.29 0.29 0.32 0.37 0.42 0.43 0.50 0.54 0.59 0.68 0.80 0.98 1.27
0.69 0.82 1.04 1.04 1.41 1.36 0.97 0.87 0.92 0.66 1.21 1.02 0.85 0.76 0.86 1.01 0.88 0.96 1.15 1.51 0.79 0.63 0.64 0.59 0.68 0.62 0.56 0.54 0.51 0.44 0.32 0.28 0.24 0.24 0.26 0.29 0.35 0.38 0.47 0.55 0.61 0.70 0.78
1.04 1.11 1.45 1.81 1.42 1.21 0.89 1.07 1.07 0.89 1.41 1.49 1.18 0.70 0.55 0.79 0.69 0.72 0.78 1.22 1.33 0.75 0.64 0.66 0.61 0.53 0.61 0.62 0.59 0.54 0.57 0.52 0.44 0.41 0.42 0.44 0.55 0.57 0.64 0.77 0.81 0.80 0.77
1.44 1.46 1.52 1.35 1.10 1.12 1.44 1.58 1.75 1.81 1.83 1.89 1.76 1.18 0.87 0.96 0.93 0.79 0.96 0.96 1.23 1.17 0.84 0.79 0.83 0.90 0.78 0.73 0.76 0.73 0.70 0.62 0.58 0.55 0.58 0.65 0.68 0.68 0.69 0.72 0.69 0.76 0.81
2.55 2.70 2.75 2.57 2.23 2.14 2.17 2.23 2.16 1.91 1.47 1.35 1.59 1.43 1.22 1.32 1.67 1.57 1.39 1.05 1.30 1.31 1.22 1.07 1.11 1.10 1.26 1.27 1.25 1.16 1.08 1.07 1.05 1.01 0.92 0.80 0.83 0.84 0.79 0.79 0.74 0.89 1.01
2.56 2.20 1.94 1.72 1.61 1.61 1.66 1.48 1.53 1.42 1.26 1.38 1.40 1.21 1.47 1.46 1.74 1.92 1.62 0.99 1.37 1.38 1.63 1.36 1.28 1.28 1.16 1.48 1.53 1.42 1.27 1.32 1.35 1.23 1.08 1.01 1.11 1.00 1.02 1.01 1.01 0.95 1.10
1.05 0.96 0.99 0.93 0.92 0.98 0.96 1.02 1.16 1.00 0.97 0.99 1.09 1.24 1.38 1.31 1.47 1.42 1.53 1.57 1.71 1.77 1.97 1.94 1.50 1.61 1.73 1.79 1.65 1.90 1.82 1.64 1.48 1.36 1.22 1.12 1.09 1.14 1.05 1.07 1.10 1.21 1.50
0.35 0.41 0.41 0.37 0.37 0.26 0.18 0.16 0.23 0.37 0.73 0.61 0.92 1.15 1.12 1.16 1.27 1.27 1.73 1.57 1.44 1.66 1.76 1.93 2.10 2.12 2.29 2.12 1.68 1.65 1.55 1.56 1.51 1.46 1.41 1.29 1.19 1.19 1.23 1.17 1.35 1.30 1.17
0.01 0.00 0.00 0.00 0.00 0.02 0.02 0.03 0.05 0.15 0.39 0.28 0.36 0.58 0.66 0.64 0.65 0.98 1.29 1.07 1.02 1.26 1.32 1.10 1.04 1.11 1.01 1.17 1.08 1.01 0.87 0.79 0.80 0.89 0.95 1.07 1.08 1.22 1.23 1.18 1.24 0.98 0.91
0.00 0.00 0.00 0.02 0.05 0.08 0.08 0.07 0.07 0.10 0.31 0.33 0.31 0.31 0.50 0.48 0.68 0.76 0.85 1.05 0.91 0.91 0.87 0.73 0.54 0.59 0.60 0.70 0.74 0.76 0.70 0.55 0.51 0.52 0.51 0.60 0.55 0.72 0.96 0.75 0.65 0.72 0.67
0.12 0.14 0.08 0.16 0.24 0.37 0.35 0.41 0.43 0.62 0.88 0.58 0.60 0.65 0.78 0.67 0.62 0.71 0.62 0.54 0.42 0.33 0.30 0.25 0.20 0.18 0.20 0.25 0.36 0.44 0.49 0.47 0.48 0.46 0.44 0.48 0.68 0.85 0.74 0.62 0.50 0.56 0.65
0.12 0.33 0.48 0.53 0.60 0.72 0.65 0.63 0.71 0.75 0.91 0.67 0.59 0.57 0.49 0.44 0.35 0.27 0.18 0.10 0.09 0.06 0.04 0.03 0.03 0.03 0.03 0.05 0.06 0.07 0.08 0.14 0.18 0.19 0.18 0.26 0.44 0.30 0.30 0.32 0.37 0.40 0.36
0.03 0.12 0.22 0.13 0.18 0.29 0.34 0.25 0.24 0.23 0.20 0.16 0.13 0.13 0.08 0.05 0.03 0.00 0.00 0.00 0.00 0.00 0.00 0.00 0.00 0.00 0.00 0.00 0.02 0.05 0.13 0.18 0.17 0.16 0.29 0.29 0.16 0.16 0.20 0.25 0.31 0.33 0.28
0.02 0.04 0.04 0.04 0.04 0.05 0.04 0.03 0.02 0.02 0.02 0.02 0.02 0.00 0.00 0.01 0.00 0.00 0.00 0.00 0.00 0.00 0.00 0.00 0.00 0.00 0.00 0.00 0.00 0.03 0.06 0.06 0.11 0.21 0.21 0.09 0.09 0.11 0.12 0.16 0.17 0.18 0.23
0.00 0.00 0.01 0.02 0.00 0.00 0.00 0.00 0.01 0.03 0.06 0.09 0.13 0.16 0.14 0.12 0.06 0.03 0.03 0.02 0.01 0.03 0.01 0.01 0.02 0.03 0.04 0.04 0.08 0.09 0.07 0.12 0.21 0.11 0.02 0.02 0.03 0.04 0.06 0.10 0.16 0.23 0.29
0.00 0.00 0.00 0.01 0.00 0.00 0.00 0.00 0.00 0.00 0.00 0.01 0.01 0.04 0.11 0.23 0.32 0.35 0.38 0.40 0.38 0.37 0.30 0.26 0.22 0.20 0.26 0.26 0.30 0.29 0.36 0.40 0.32 0.26 0.14 0.13 0.13 0.13 0.16 0.22 0.29 0.34 0.41

GFSMW_prec_precacc_153.txt.gz
Total_Precipitation_Accumulation
0.14 0.31 0.73 2.22 2.50 1.74 1.93 2.53 2.34 2.00 1.28 0.75 0.63 0.77 1.06 1.15 1.11 1.28 0.84 0.52 0.41 0.39 0.36 0.23 0.18 0.23 0.14 0.08 0.15 0.12 0.09 0.07 0.07 0.03 0.00 0.02 0.01 0.00 0.00 0.00 0.00 0.00 0.00
0.07 0.17 0.47 1.20 2.66 1.81 1.56 2.36 2.77 2.01 1.48 1.04 0.86 0.89 1.06 0.96 1.12 1.26 1.09 1.07 0.87 0.78 0.45 0.30 0.33 0.25 0.16 0.13 0.12 0.16 0.10 0.06 0.06 0.07 0.06 0.03 0.01 0.00 0.01 0.01 0.00 0.00 0.01
0.04 0.12 0.24 0.68 1.55 2.58 1.53 2.00 3.12 2.62 1.98 1.65 1.90 1.85 1.75 1.28 1.22 1.04 1.16 1.60 1.72 1.48 1.09 0.86 0.79 0.65 0.48 0.52 0.40 0.47 0.45 0.35 0.29 0.26 0.30 0.26 0.19 0.14 0.05 0.05 0.05 0.08 0.07
0.03 0.06 0.15 0.38 0.78 2.03 1.93 1.86 2.68 3.89 2.35 2.14 1.75 1.26 1.21 1.36 1.05 1.25 1.45 1.24 1.39 1.52 1.71 1.74 1.52 1.31 1.27 1.13 1.16 1.01 1.08 1.14 0.99 0.83 0.67 0.62 0.46 0.42 0.23 0.08 0.08 0.08 0.06
0.01 0.01 0.08 0.26 0.56 0.98 2.02 1.96 2.65 2.97 4.34 2.96 2.30 1.42 1.01 0.96 0.91 0.84 0.86 1.02 1.04 1.22 1.46 1.64 1.80 1.81 1.89 1.87 1.95 1.88 1.70 1.49 1.25 1.01 0.94 0.82 0.77 0.72 0.82 0.63 0.33 0.25 0.13
0.03 0.00 0.03 0.19 0.39 0.68 1.47 2.11 2.65 2.35 4.08 4.49 3.81 2.34 1.30 1.08 1.28 1.05 1.08 1.17 1.42 1.50 1.65 1.87 1.85 1.87 1.65 1.48 1.60 1.73 1.47 1.16 0.97 0.85 0.89 0.97 0.97 0.81 0.83 0.73 0.39 0.23 0.10
0.07 0.01 0.01 0.10 0.28 0.54 0.96 1.38 2.80 2.47 3.15 3.54 4.24 3.95 3.04 1.68 1.32 1.39 1.33 0.94 0.94 0.93 0.97 1.02 1.25 1.29 1.14 0.93 0.91 0.94 0.90 0.84 0.76 0.75 0.70 0.70 0.67 0.63 0.63 0.64 0.48 0.36 0.23
0.08 0.07 0.04 0.09 0.20 0.40 0.80 0.95 1.37 2.08 2.23 2.55 3.91 4.17 4.44 3.81 2.26 1.71 1.17 0.98 0.60 0.55 0.62 0.60 0.79 0.87 0.83 0.76 0.60 0.56 0.62 0.72 0.84 0.84 0.75 0.69 0.60 0.63 0.66 0.66 0.71 0.61 0.38
0.06 0.07 0.08 0.13 0.20 0.40 0.54 0.84 0.97 1.04 1.65 1.45 2.59 3.13 3.02 3.00 2.48 1.99 1.34 1.08 0.92 0.66 0.54 0.71 0.70 0.65 0.65 0.61 0.57 0.54 0.55 0.59 0.61 0.67 0.79 0.81 0.72 0.77 0.82 0.91 1.09 1.45 1.31
0.15 0.17 0.16 0.28 0.29 0.44 0.59 0.71 0.82 0.94 1.06 1.17 1.30 1.68 1.94 2.27 2.18 1.97 1.58 1.07 0.95 0.84 0.69 0.57 0.65 0.72 0.64 0.66 0.51 0.41 0.38 0.49 0.55 0.58 0.65 0.67 0.66 0.72 0.81 0.97 1.09 1.32 1.65
0.43 0.44 0.54 0.56 0.55 0.92 0.77 0.73 0.84 0.92 1.02 0.90 0.92 1.07 1.39 1.50 1.40 1.68 1.47 1.02 0.81 0.72 0.70 0.65 0.55 0.51 0.53 0.47 0.53 0.34 0.29 0.30 0.32 0.38 0.43 0.43 0.52 0.55 0.60 0.69 0.81 1.00 1.29
0.69 0.82 1.04 1.04 1.41 1.36 0.97 0.87 0.93 0.68 1.22 1.02 0.85 0.76 0.86 1.01 0.88 0.96 1.15 1.51 0.79 0.63 0.64 0.59 0.68 0.62 0.56 0.54 0.51 0.44 0.32 0.28 0.24 0.24 0.27 0.30 0.36 0.40 0.49 0.57 0.62 0.71 0.79
1.04 1.11 1.45 1.81 1.42 1.21 0.89 1.07 1.07 0.89 1.41 1.49 1.19 0.70 0.55 0.79 0.69 0.72 0.78 1.22 1.33 0.75 0.64 0.66 0.61 0.53 0.61 0.62 0.59 0.54 0.57 0.52 0.44 0.41 0.42 0.44 0.55 0.57 0.65 0.80 0.83 0.82 0.79
1.44 1.46 1.52 1.35 1.10 1.12 1.44 1.58 1.75 1.82 1.83 1.92 1.81 1.19 0.87 0.96 0.93 0.79 0.96 0.96 1.23 1.17 0.84 0.79 0.83 0.90 0.78 0.73 0.76 0.73 0.70 0.62 0.58 0.55 0.58 0.65 0.68 0.68 0.70 0.75 0.74 0.80 0.85
2.55 2.70 2.75 2.57 2.23 2.14 2.17 2.23 2.16 1.91 1.47 1.36 1.61 1.44 1.22 1.32 1.67 1.57 1.39 1.05 1.30 1.31 1.22 1.07 1.11 1.10 1.26 1.27 1.25 1.16 1.08 1.07 1.05 1.01 0.92 0.80 0.83 0.84 0.79 0.81 0.77 0.94 1.09
2.56 2.20 1.94 1.72 1.61 1.61 1.66 1.48 1.53 1.42 1.26 1.38 1.40 1.21 1.47 1.46 1.74 1.92 1.62 0.99 1.37 1.38 1.63 1.36 1.28 1.28 1.16 1.48 1.53 1.42 1.27 1.32 1.35 1.23 1.08 1.01 1.11 1.01 1.03 1.03 1.04 1.06 1.25
1.05 0.96 0.99 0.93 0.92 0.98 0.96 1.02 1.16 1.00 0.97 0.99 1.09 1.24 1.38 1.31 1.47 1.42 1.53 1.57 1.71 1.77 1.97 1.94 1.50 1.61 1.73 1.80 1.65 1.91 1.82 1.64 1.49 1.36 1.22 1.12 1.09 1.14 1.06 1.09 1.13 1.24 1.56
0.35 0.41 0.41 0.37 0.37 0.26 0.18 0.16 0.23 0.37 0.73 0.61 0.92 1.15 1.12 1.16 1.27 1.27 1.73 1.57 1.44 1.66 1.76 1.93 2.10 2.12 2.29 2.12 1.68 1.65 1.55 1.56 1.51 1.46 1.41 1.30 1.20 1.23 1.28 1.20 1.36 1.30 1.17
0.01 0.00 0.00 0.00 0.00 0.02 0.02 0.03 0.05 0.15 0.39 0.28 0.36 0.58 0.66 0.64 0.65 0.98 1.29 1.07 1.02 1.26 1.32 1.10 1.04 1.11 1.01 1.18 1.08 1.01 0.88 0.80 0.80 0.89 0.96 1.07 1.09 1.24 1.25 1.19 1.24 0.98 0.91
0.00 0.00 0.00 0.02 0.05 0.08 0.08 0.07 0.07 0.10 0.31 0.33 0.31 0.31 0.50 0.48 0.68 0.76 0.85 1.05 0.91 0.91 0.87 0.73 0.54 0.59 0.61 0.71 0.75 0.77 0.70 0.56 0.52 0.52 0.52 0.62 0.57 0.74 0.98 0.77 0.66 0.74 0.69
0.12 0.14 0.08 0.16 0.24 0.37 0.35 0.41 0.43 0.62 0.88 0.58 0.60 0.65 0.78 0.67 0.62 0.71 0.62 0.54 0.42 0.33 0.30 0.25 0.20 0.18 0.20 0.26 0.37 0.46 0.52 0.54 0.55 0.53 0.52 0.58 0.78 0.95 0.86 0.74 0.64 0.70 0.78
0.12 0.33 0.48 0.53 0.60 0.72 0.65 0.63 0.71 0.75 0.91 0.67 0.59 0.57 0.49 0.44 0.35 0.27 0.18 0.10 0.09 0.06 0.04 0.03 0.03 0.03 0.03 0.05 0.07 0.07 0.09 0.14 0.18 0.20 0.21 0.31 0.51 0.36 0.35 0.36 0.41 0.43 0.37
0.03 0.12 0.22 0.13 0.18 0.29 0.34 0.25 0.24 0.23 0.20 0.16 0.13 0.13 0.08 0.05 0.03 0.00 0.00 0.00 0.00 0.00 0.00 0.00 0.00 0.00 0.00 0.00 0.03 0.05 0.13 0.18 0.17 0.16 0.29 0.29 0.16 0.16 0.20 0.25 0.31 0.33 0.28
0.02 0.04 0.04 0.04 0.04 0.05 0.04 0.03 0.02 0.02 0.02 0.02 0.02 0.00 0.00 0.01 0.00 0.00 0.00 0.00 0.00 0.00 0.00 0.00 0.00 0.00 0.00 0.00 0.00 0.03 0.06 0.06 0.11 0.21 0.21 0.09 0.09 0.11 0.12 0.16 0.17 0.18 0.23
0.00 0.00 0.01 0.02 0.00 0.00 0.00 0.00 0.01 0.03 0.06 0.09 0.13 0.16 0.14 0.12 0.06 0.03 0.03 0.02 0.01 0.03 0.01 0.01 0.02 0.03 0.04 0.04 0.08 0.09 0.07 0.12 0.21 0.11 0.02 0.02 0.03 0.04 0.06 0.10 0.16 0.23 0.29
0.00 0.00 0.00 0.01 0.00 0.00 0.00 0.00 0.00 0.00 0.00 0.01 0.01 0.04 0.11 0.23 0.32 0.35 0.38 0.40 0.38 0.37 0.30 0.26 0.22 0.20 0.26 0.26 0.30 0.29 0.36 0.40 0.32 0.26 0.14 0.13 0.13 0.13 0.16 0.22 0.29 0.34 0.41